     2.10           OBSERVATION DATA    G (GPS)             RINEX VERSION / TYPE
teqc 2000Feb29 simon 20020107 22:29:05UTC                   PGM / RUN BY / DATE
Linux 2.0.36|Pentium II|gcc|Linux|486/DX+                   COMMENT
BIT 2 OF LLI FLAGS DATA COLLECTED UNDER A/S CONDITION       COMMENT
SILV                                                        MARKER NAME
silv                                                        MARKER NUMBER
_BT -Unknown-                                               OBSERVER / AGENCY
488 ASHTECH Z-XII3 4J30                                     REC # / TYPE / VERS
009 ASH701933_M                                             ANT # / TYPE
 -2305712.0000 -4667045.0000  3674212.0000                  APPROX POSITION XYZ
        1.3494        0.0000        0.0000                  ANTENNA: DELTA H/E/N
     1     1                                                WAVELENGTH FACT L1/2
     7    L1    L2    C1    P1    P2    S1    S2            # / TYPES OF OBSERV
    30.0000                                                 INTERVAL
SNR is mapped to RINEX snr flag value [1-9]                 COMMENT
L1: 1 -> 1; 90 -> 5; 210 -> 9                               COMMENT
L2: 1 -> 1; 150 -> 5; 250 -> 9                              COMMENT
Original height was 1.2420                                  COMMENT
New height found assuming measured height 1.4240            COMMENT
and assuming radial 0.1737 vertical -0.0640                 COMMENT
  2001    12     3    16    15    0.0000000     GPS         TIME OF FIRST OBS
                                                            END OF HEADER
 01 12  3 16 15  0.0000000  0  7G 1G20G 4G27G25G22G13
    -48870.00949    -31499.91347  17573024.757    17573024.210    17573031.685
       243.000         206.000
      8077.26559      4137.88957  17210080.378    17210079.206    17210085.844
       239.000         206.000
    -15200.42243                  21236332.508
       220.000          74.000
    -36992.87243                  20937166.657
       221.000          74.000
     19605.39743                  20620403.498
       225.000          74.000
     -7540.71559     -4101.01457  17360908.527    17360907.276    17360914.887
       244.000         211.000
     -4855.87743                  19452827.972
       231.000          74.000
 01 12  3 16 15 30.0000000  0  8G 1G20G29G 4G27G25G22G13
   -109749.28949    -78938.37147  17561440.022    17561439.367    17561446.801
       242.000         206.000
     19878.76059     13333.76847  17212325.924    17212324.933    17212331.793
       239.000         206.000
      9173.75053                  20931714.489
       213.000          74.000
    -56449.53049    -37889.47745  21230792.263    21230792.428    21230801.320
       221.000         156.000
   -170451.59149   -117014.14946  20917625.460    20917625.401    20917637.126
       221.000         167.000
     90653.22249     61955.39546  20630746.147    20630746.309    20630758.322
       225.000         170.000
    -18532.95059    -12666.46247  17358816.714    17358815.627    17358823.369
       244.000         211.000
   -145832.47349    -83578.08846  19433605.098    19433604.822    19433613.326
       230.000         177.000
 01 12  3 16 16  0.0010000  0  7G 1G20G 4G27G25G22G13
   -170458.33049   -126244.17547  21447189.511    21447188.786    21447196.217
       242.000         206.000
     32194.43149     22930.30447  21111971.525    21111970.508    21111977.405
       239.000         206.000
    -85099.72549    -60214.49245  25122642.618    25122642.868    25122652.713
       221.000         162.000
   -272992.43449   -196916.15645  24795414.848    24795414.391    24795424.439
       220.000         161.000
    144946.47849    104261.52046  24538380.417    24538380.404    24538391.783
       225.000         169.000
    -28908.73149    -20751.55047  21254144.326    21254143.184    21254150.984
       245.000         211.000
   -246798.07349   -162252.62446  23311693.984    23311693.678    23311701.622
       232.000         177.000
 01 12  3 16 16 30.0010000  0  8G 1G20G29G 4G27G25G22G13
   -230965.20549   -173392.44447  21435675.458    21435674.712    21435682.160
       242.000         206.000
     45112.39649     32996.15847  21114429.752    21114428.723    21114435.628
       239.000         206.000
    124598.26349     79693.78945  24846239.137    24846239.018    24846253.559
       213.000         149.000
   -113226.67349    -82131.74545  25117290.263    25117290.329    25117300.421
       219.000         158.000
   -375382.77549   -276700.80946  24775930.749    24775930.178    24775940.704
       222.000         173.000
    199305.86449    146619.18046  24548724.989    24548724.762    24548736.287
       226.000         171.000
    -38597.57249    -28301.35347  21252300.633    21252299.492    21252307.305
       245.000         211.000
   -347702.60449   -240879.54146  23292492.420    23292492.130    23292500.252
       229.000         178.000
 01 12  3 16 17  0.0010000  0  8G 1G20G29G 4G27G25G22G13
   -291256.16949   -220372.47447  21424202.568    21424201.759    21424209.189
       243.000         206.000
     58615.04949     43517.61247  21116999.253    21116998.224    21117005.137
       239.000         206.000
    170121.26949    115165.90945  24854902.030    24854902.211    24854917.446
       215.000         151.000
   -140831.23449   -103641.91945  25112037.394    25112037.362    25112047.433
       223.000         159.000
   -477592.93249   -356345.02346  24756480.921    24756480.240    24756491.229
       220.000         163.000
    253697.21349    189001.74846  24559075.397    24559075.109    24559086.778
       223.000         172.000
    -47607.61649    -35322.21847  21250586.114    21250584.961    21250592.809
       244.000         211.000
   -448516.39849   -319435.78846  23273308.293    23273307.965    23273315.910
       232.000         179.000
 01 12  3 16 17 30.0010000  0  8G 1G20G29G 4G27G25G22G13
   -351399.78449   -267237.68047  21412757.715    21412756.872    21412764.277
       243.000         206.000
     72631.86649     54439.72447  21119666.651    21119665.596    21119672.503
       240.000         206.000
    215745.99959    150717.26455  24863584.302    24863584.448    24863598.966
       214.000         151.000
   -167983.73949   -124799.87545  25106870.522    25106870.422    25106880.371
       217.000         151.000
   -579692.40049   -435903.09446  24737051.992    24737051.337    24737062.182
       215.000         163.000
    308049.95049    231354.22546  24569418.616    24569418.257    24569429.951
       224.000         169.000
    -56009.18449    -41868.94847  21248987.412    21248986.216    21248994.067
       244.000         211.000
   -549308.30449   -397974.95146  23254128.239    23254127.901    23254135.876
       233.000         178.000
 01 12  3 16 18  0.0010000  0  8G 1G20G29G 4G27G25G22G13
   -411432.29449   -314016.31847  21401333.991    21401333.109    21401340.510
       243.000         207.000
     87124.51749     65732.60347  21122424.607    21122423.497    21122430.424
       240.000         206.000
    261435.25449    186318.89245  24872278.899    24872278.795    24872293.575
       215.000         154.000
   -194722.24149   -145635.28845  25101782.308    25101782.213    25101792.038
       216.000         151.000
   -681718.21349   -515403.66246  24717637.060    24717636.408    24717647.473
       224.000         174.000
    362326.09649    273646.99646  24579747.254    24579746.782    24579758.529
       225.000         170.000
    -63840.50949    -47971.33747  21247497.245    21247496.003    21247503.826
       244.000         211.000
   -650114.76749   -476525.49046  23234945.441    23234945.124    23234952.988
       232.000         178.000
 01 12  3 16 18 30.0010000  0  8G 1G20G29G 4G27G25G22G13
   -471375.72149   -360725.54547  21389927.206    21389926.304    21389933.677
       243.000         207.000
    102068.84449     77377.44247  21125268.501    21125267.362    21125274.284
       240.000         206.000
    307165.99149    221952.84645  24880981.350    24880981.311    24880996.036
       211.000         155.000
   -221070.37149   -166166.46345  25096768.535    25096768.395    25096778.111
       218.000         147.000
   -783692.99049   -594864.54846  24698232.005    24698231.272    24698242.323
       219.000         170.000
    416501.76949    315861.50946  24590056.704    24590056.187    24590067.894
       222.000         169.000
    -71125.26149    -53647.83347  21246111.115    21246109.804    21246117.592
       245.000         211.000
   -750957.88249   -555104.56146  23215755.733    23215755.350    23215763.238
       233.000         179.000
 01 12  3 16 19  0.0010000  0  8G 1G20G29G 4G27G25G22G13
   -531214.16349   -407352.96447  21378540.449    21378539.490    21378546.842
       243.000         207.000
    117478.56949     89384.92947  21128200.988    21128199.802    21128206.704
       240.000         207.000
    352952.99549    257630.63045  24889694.571    24889694.514    24889709.240
       213.000         157.000
   -247014.18149   -186382.53545  25091831.669    25091831.484    25091841.063
       219.000         145.000
   -885601.79049   -674273.96546  24678839.382    24678838.626    24678849.746
       217.000         168.000
    470590.75749    358008.44046  24600349.712    24600349.067    24600360.837
       221.000         167.000
    -77849.48749    -58887.55547  21244831.639    21244830.266    21244838.056
       245.000         211.000
   -851822.00749   -633700.01646  23196562.003    23196561.579    23196569.378
       233.000         179.000
 01 12  3 16 19 30.0010000  0  8G 1G20G29G 4G27G25G22G13
   -590961.45049   -453909.35147  21367170.984    21367170.008    21367177.340
       243.000         207.000
    133337.88949    101742.74947  21131219.038    21131217.810    21131224.715
       240.000         207.000
    398781.28549    293340.56445  24898415.611    24898415.436    24898430.337
       212.000         158.000
   -272569.44349   -206295.85245  25086968.592    25086968.440    25086978.016
       220.000         151.000
   -987459.20749   -753643.36746  24659456.643    24659455.829    24659467.016
       221.000         168.000
    524577.44749    400075.67146  24610623.375    24610622.557    24610634.311
       222.000         164.000
    -84029.09649    -63702.90747  21243655.778    21243654.377    21243662.167
       245.000         212.000
   -952721.14549   -712322.73146  23177361.622    23177361.167    23177369.012
       233.000         181.000
 01 12  3 16 20  0.0010000  0  8G 1G20G29G 4G27G25G22G13
   -650607.27249   -500386.67947  21355820.842    21355819.840    21355827.152
       243.000         207.000
    149654.70449    114457.05247  21134324.143    21134322.882    21134329.782
       240.000         207.000
    444660.25049    329090.00445  24907146.287    24907146.038    24907161.027
       211.000         157.000
   -297727.67449   -225899.80145  25082181.288    25082181.044    25082190.768
       222.000         155.000
  -1089255.70549   -832965.23946  24640085.364    24640084.572    24640095.942
       222.000         167.000
    578469.88549    442069.45646  24620878.930    24620878.107    24620889.882
       222.000         170.000
    -89655.46449    -68087.17147  21242585.207    21242583.778    21242591.585
       245.000         212.000
  -1053645.13049   -790964.82646  23158156.414    23158155.983    23158163.765
       233.000         179.000
 01 12  3 16 20 30.0010000  0  8G 1G20G29G 4G27G25G22G13
   -710136.29849   -546772.98947  21344492.922    21344491.904    21344499.189
       243.000         207.000
    166441.95849    127537.93647  21137518.761    21137517.476    21137524.376
       241.000         207.000
    490604.00549    364889.95645  24915889.449    24915888.998    24915904.034
       214.000         160.000
   -322475.42049   -245183.90245  25077472.319    25077471.879    25077481.697
       226.000         159.000
  -1190976.89549   -912228.46046  24620728.472    24620727.690    24620739.068
       226.000         172.000
    632281.45449    484000.23546  24631119.137    24631118.291    24631129.994
       222.000         163.000
    -94715.54749    -72030.17647  21241622.406    21241620.937    21241628.746
       244.000         211.000
  -1154579.03149   -869614.62446  23138949.427    23138948.942    23138956.760
       232.000         180.000
 01 12  3 16 21  0.0010000  0  8G 1G20G29G 4G27G25G22G13
   -769538.00849   -593060.08647  21333189.195    21333188.184    21333195.451
       243.000         207.000
    183707.95849    140991.86547  21140804.477    21140803.164    21140810.072
       241.000         207.000
    536621.73949    400747.55345  24924646.717    24924646.035    24924661.170
       214.000         160.000
   -346803.92649   -264141.31845  25072843.129    25072842.520    25072852.376
       226.000         161.000
  -1292612.96149   -991425.40146  24601387.988    24601387.087    24601398.368
       224.000         172.000
    686021.14249    525874.98146  24641345.702    24641344.834    24641356.548
       222.000         166.000
    -99200.91149    -75525.35047  21240768.953    21240767.461    21240775.252
       245.000         211.000
  -1255512.26349   -948263.93046  23119742.459    23119742.001    23119749.804
       233.000         179.000
 01 12  3 16 21 30.0010000  0  9G 1G20G29G 4G27G25G22G 3G13
   -828809.50849   -639245.72247  21321910.272    21321909.258    21321916.523
       243.000         207.000
    201453.45549    154819.42647  21144181.430    21144180.101    21144187.030
       241.000         208.000
    582715.39749    436664.29845  24933418.359    24933417.564    24933432.804
       210.000         160.000
   -370712.50049   -282771.55646  25068293.657    25068293.023    25068302.918
       224.000         165.000
  -1394162.10949  -1070554.58846  24582063.718    24582062.898    24582074.171
       222.000         170.000
    739689.34949    567694.04046  24651558.851    24651557.809    24651569.536
       220.000         166.000
   -103110.39649    -78571.79247  21240025.083    21240023.582    21240031.357
       244.000         211.000
  -1366891.73359  -1051910.95355  25669927.368    25669926.485    25669946.540
       196.000         137.000
  -1356442.15749  -1026910.59946  23100536.056    23100535.645    23100543.557
       231.000         181.000
 01 12  3 16 22  0.0010000  0  9G 1G20G29G 4G27G25G22G 3G13
   -887936.45949   -685318.72047  21310658.875    21310657.844    21310665.125
       243.000         208.000
    219690.15849    169029.75147  21147651.862    21147650.519    21147657.483
       240.000         207.000
    628898.17849    472650.52045  24942206.868    24942206.035    24942221.446
       212.000         158.000
   -394188.87849   -301065.00346  25063826.328    25063825.699    25063835.663
       225.000         167.000
  -1495610.95149  -1149605.60946  24562758.625    24562757.767    24562769.082
       223.000         174.000
    793298.60449    609467.16746  24661760.649    24661759.550    24661771.314
       222.000         164.000
   -106432.09349    -81160.21647  21239393.055    21239391.546    21239399.315
       244.000         211.000
  -1468055.33649  -1130739.32345  25650676.237    25650675.564    25650695.531
       202.000         139.000
  -1457354.67649  -1105543.74446  23081333.042    23081332.675    23081340.532
       232.000         178.000
 01 12  3 16 22 30.0010000  0  9G 1G20G29G 4G27G25G22G 3G13
   -946913.81549   -731275.14747  21299435.941    21299434.885    21299442.175
       243.000         208.000
    238420.71749    183624.89447  21151216.197    21151214.893    21151221.914
       240.000         207.000
    675173.94349    508709.19945  24951013.205    24951012.227    24951027.682
       212.000         155.000
   -417229.83349   -319019.14846  25059441.960    25059441.275    25059451.376
       225.000         167.000
  -1596955.24549  -1228575.15046  24543473.377    24543472.533    24543483.951
       224.000         172.000
    846852.12949    651196.82846  24671951.812    24671950.655    24671962.563
       222.000         166.000
   -109163.00649    -83288.29047  21238873.448    21238871.937    21238879.719
       244.000         211.000
  -1569307.80749  -1209636.92945  25631408.437    25631407.702    25631427.664
       202.000         142.000
  -1558244.72249  -1184159.37346  23062134.360    23062133.957    23062141.844
       234.000         181.000
 01 12  3 16 23  0.0010000  0  9G 1G20G29G 4G27G25G22G 3G13
  -1005744.88949   -777117.58647  21288240.806    21288239.756    21288247.085
       243.000         208.000
    257639.59349    198600.54347  21154873.450    21154872.170    21154879.254
       240.000         207.000
    721538.00749    544836.70445  24959836.407    24959835.330    24959850.786
       210.000         153.000
   -439840.97649   -336638.39446  25055139.369    25055138.642    25055148.912
       223.000         167.000
  -1698199.31649  -1307466.60946  24524207.306    24524206.444    24524217.884
       223.000         172.000
    900344.84949    692879.15446  24682131.376    24682130.179    24682142.126
       220.000         166.000
   -111308.80549    -84960.43847  21238465.169    21238463.666    21238471.478
       244.000         212.000
  -1670651.14149  -1288605.37245  25612123.178    25612122.539    25612142.519
       204.000         141.000
  -1659115.97049  -1262760.38146  23042939.226    23042938.795    23042946.641
       234.000         180.000
 01 12  3 16 23 30.0010000  0  9G 1G20G29G 4G27G25G22G 3G13
  -1064428.27749   -822844.93847  21277073.765    21277072.732    21277080.103
       242.000         209.000
    277345.65049    213955.81547  21158623.465    21158622.181    21158629.302
       240.000         207.000
    767990.61049    581033.20145  24968676.450    24968675.197    24968690.705
       208.000         150.000
   -462022.85349   -353923.14046  25050918.323    25050917.618    25050928.178
       217.000         164.000
  -1799342.84949  -1386279.77946  24504960.409    24504959.507    24504970.797
       223.000         166.000
    953776.11149    734513.57345  24692299.318    24692298.051    24692309.981
       220.000         162.000
   -112870.10249    -86177.13047  21238168.077    21238166.618    21238174.491
       244.000         212.000
  -1772082.31949  -1367642.27345  25592821.227    25592820.694    25592840.583
       207.000         140.000
  -1759967.35349  -1341345.88146  23023747.921    23023747.476    23023755.328
       234.000         181.000
 01 12  3 16 24  0.0010000  0  9G 1G20G29G 4G27G25G22G 3G13
  -1122989.99749   -868477.48247  21265929.914    21265928.871    21265936.255
       242.000         209.000
    297510.50149    229668.58447  21162460.800    21162459.497    21162466.648
       241.000         207.000
    814504.85649    617277.73545  24977528.060    24977526.691    24977542.396
       206.000         148.000
   -483803.57949   -370895.31546  25046773.551    25046772.892    25046783.729
       215.000         163.000
  -1900412.54649  -1465035.40246  24485727.421    24485726.557    24485737.720
       225.000         168.000
   1007118.20149    776078.51246  24702450.264    24702448.941    24702460.966
       217.000         163.000
   -113875.13849    -86960.36647  21237976.849    21237975.435    21237983.359
       244.000         212.000
  -1873625.20549  -1446766.31345  25573497.947    25573497.523    25573517.378
       208.000         140.000
  -1860824.86249  -1419936.16446  23004555.343    23004554.940    23004562.731
       235.000         179.000
 01 12  3 16 24 30.0010000  0  9G 1G20G29G 4G27G25G22G 3G13
  -1181376.77149   -913973.69547  21254819.360    21254818.308    21254825.705
       242.000         209.000
    318184.86549    245778.38047  21166395.074    21166393.766    21166400.955
       241.000         207.000
    861132.50049    653610.65445  24986401.196    24986399.899    24986415.628
       206.000         147.000
   -505131.99549   -387515.01245  25042714.796    25042714.203    25042725.277
       216.000         161.000
  -2001356.04649  -1543692.68546  24466518.552    24466517.699    24466528.735
       228.000         168.000
   1060422.12049    817613.73545  24712593.949    24712592.590    24712604.600
       220.000         161.000
   -114273.08349    -87270.53747  21237901.196    21237899.768    21237907.764
       244.000         212.000
  -1975225.00849  -1525934.66845  25554163.970    25554163.504    25554183.360
       211.000         143.000
  -1961635.46749  -1498489.88946  22985371.799    22985371.344    22985379.136
       233.000         178.000
 01 12  3 16 25  0.0010000  0  9G 1G20G29G 4G27G25G22G 3G13
  -1239592.86449   -959336.90947  21243741.267    21243740.212    21243747.632
       242.000         209.000
    339362.05649    262279.98847  21170425.069    21170423.739    21170430.947
       241.000         208.000
    907868.29449    690027.86845  24995294.889    24995293.640    24995309.435
       208.000         145.000
   -526014.32149   -403787.09045  25038740.988    25038740.466    25038751.772
       213.000         158.000
  -2102178.50749  -1622255.66746  24447332.594    24447331.806    24447342.711
       225.000         168.000
   1113681.81849    859114.45046  24722729.109    24722727.772    24722739.946
       221.000         164.000
   -114070.22149    -87112.54447  21237939.881    21237938.446    21237946.505
       244.000         212.000
  -2076884.39549  -1605149.48345  25534818.574    25534818.176    25534838.065
       208.000         136.000
  -2062403.37349  -1577010.36246  22966196.339    22966195.884    22966203.520
       233.000         178.000
 01 12  3 16 25 30.0010000  0  9G 1G20G29G 4G27G25G22G 3G13
  -1297639.63549  -1004568.18547  21232695.379    21232694.328    21232701.773
       242.000         209.000
    361038.43349    279170.56747  21174550.064    21174548.712    21174555.946
       241.000         208.000
    954709.80549    726527.46145  25004208.825    25004207.557    25004223.366
       205.000         144.000
   -546454.20849   -419714.44645  25034851.455    25034850.923    25034862.344
       216.000         160.000
  -2202882.31949  -1700726.15846  24428169.293    24428168.491    24428179.498
       225.000         173.000
   1166893.80149    900578.03046  24732855.340    24732853.955    24732866.144
       219.000         164.000
   -113270.19749    -86489.22947  21238092.229    21238090.761    21238098.870
       244.000         212.000
  -2178602.83049  -1684410.32545  25515462.077    25515461.684    25515481.386
       211.000         140.000
  -2163129.90649  -1655498.55646  22947028.712    22947028.237    22947035.935
       233.000         178.000
 01 12  3 16 26  0.0010000  0  9G 1G20G29G 4G27G25G22G 3G13
  -1355515.37549  -1049666.19147  21221681.992    21221680.980    21221688.459
       243.000         209.000
    383213.06949    296449.40047  21178769.846    21178768.496    21178775.777
       241.000         208.000
   1001657.63949    763109.90645  25013143.074    25013141.703    25013157.462
       207.000         144.000
   -566451.81549   -435297.13645  25031046.229    25031045.658    25031057.018
       218.000         159.000
  -2303466.57949  -1779103.52546  24409028.806    24409027.956    24409039.035
       229.000         173.000
   1220058.62349    942004.82345  24742972.497    24742971.117    24742983.464
       219.000         161.000
   -111873.60749    -85401.05947  21238358.056    21238356.589    21238364.769
       243.000         212.000
  -2280376.98949  -1763714.60045  25496094.967    25496094.533    25496114.136
       213.000         133.000
  -2263813.58249  -1733953.39746  22927869.288    22927868.791    22927876.390
       232.000         178.000
 01 12  3 16 26 30.0010000  0  9G 1G20G29G 4G27G25G22G 3G13
  -1413196.42949  -1094612.49647  21210705.629    21210704.656    21210712.196
       242.000         208.000
    405906.98849    314132.86647  21183088.431    21183087.093    21183094.427
       241.000         208.000
   1048733.72449    799792.30045  25022101.746    25022100.266    25022115.987
       208.000         146.000
   -585986.07249   -450518.77845  25027329.037    25027328.487    25027339.852
       213.000         152.000
  -2403908.87349  -1857370.29146  24389915.492    24389914.535    24389925.515
       225.000         173.000
   1273197.44249    983411.37246  24753084.731    24753083.347    24753095.802
       221.000         166.000
   -109859.36249    -83831.59147  21238741.387    21238739.943    21238748.179
       243.000         211.000
  -2382181.73849  -1843042.83245  25476722.044    25476721.550    25476740.961
       211.000         135.000
  -2364431.01749  -1812356.58646  22908722.279    22908721.912    22908729.614
       234.000         180.000
 01 12  3 16 27  0.0010000  0  9G 1G20G29G 4G27G25G22G 3G13
  -1470715.00649  -1139432.19147  21199760.170    21199759.239    21199766.826
       241.000         208.000
    429085.26149    332193.75947  21187499.194    21187497.869    21187505.208
       241.000         207.000
   1095904.76949    836548.66845  25031078.377    25031076.846    25031092.631
       207.000         144.000
   -605091.36949   -465406.18645  25023693.468    25023692.932    25023704.281
       215.000         152.000
  -2504242.42849  -1935552.29046  24370822.583    24370821.705    24370832.759
       228.000         174.000
   1326276.37249   1024771.24945  24763185.587    24763184.174    24763196.751
       220.000         162.000
   -107262.14749    -81807.85647  21239235.680    21239234.239    21239242.506
       243.000         211.000
  -2484047.56449  -1922418.59145  25457337.411    25457336.936    25457356.088
       212.000         133.000
  -2465014.63049  -1890733.43346  22889581.853    22889581.487    22889589.161
       233.000         179.000
 01 12  3 16 27 30.0010000  0  9G 1G20G29G 4G27G25G22G 3G13
  -1528055.74449  -1184113.31947  21188848.605    21188847.673    21188855.305
       242.000         208.000
    452760.83549    350642.14647  21192004.599    21192003.267    21192010.600
       242.000         207.000
   1143184.85649    873390.00745  25040075.698    25040074.194    25040090.064
       209.000         145.000
   -623754.68849   -479949.15045  25020142.075    25020141.514    25020152.891
       216.000         148.000
  -2604452.74449  -2013638.27846  24351753.101    24351752.273    24351763.350
       222.000         168.000
   1379308.94549   1066094.97246  24773277.523    24773276.170    24773288.887
       221.000         165.000
   -104068.89049    -79319.67647  21239843.410    21239841.961    21239850.228
       244.000         211.000
  -2585957.33449  -2001828.67845  25437944.535    25437943.979    25437963.069
       212.000         137.000
  -2565548.95449  -1969071.87846  22870450.820    22870450.440    22870458.185
       234.000         180.000
 01 12  3 16 28  0.0010000  0  9G 1G20G29G 4G27G25G22G 3G13
  -1585195.26749  -1228637.65147  21177975.344    21177974.424    21177982.055
       242.000         208.000
    476954.17749    369493.99947  21196608.520    21196607.199    21196614.524
       241.000         207.000
   1190595.96449    910333.47045  25049097.905    25049096.473    25049112.419
       207.000         146.000
   -641954.93649   -494131.32145  25016678.775    25016678.199    25016689.502
       213.000         144.000
  -2704517.66849  -2091610.97446  24332711.337    24332710.521    24332721.617
       225.000         168.000
   1432316.26449   1107399.05745  24783364.915    24783363.413    24783376.185
       218.000         161.000
   -100258.97449    -76350.97647  21240568.501    21240567.050    21240575.292
       244.000         211.000
  -2687886.22549  -2081253.72044  25418547.898    25418547.431    25418566.583
       209.000         131.000
  -2666011.05449  -2047354.02846  22851333.557    22851333.171    22851340.838
       234.000         182.000
 01 12  3 16 28 30.0010000  0  9G 1G20G29G 4G27G25G22G 3G13
  -1642134.30049  -1273005.76047  21167140.242    21167139.319    21167146.958
       242.000         208.000
    501662.17649    388746.88047  21201310.321    21201309.050    21201316.377
       241.000         207.000
   1238136.35049    947377.68945  25058144.651    25058143.293    25058159.403
       207.000         145.000
   -659695.22249   -507955.04245  25013302.991    25013302.397    25013313.622
       217.000         148.000
  -2804438.74549  -2169471.60646  24313697.147    24313696.213    24313707.254
       223.000         172.000
   1485296.04549   1148681.64545  24793446.796    24793445.396    24793458.283
       221.000         162.000
    -95835.50149    -72904.18147  21241410.384    21241408.892    21241417.097
       244.000         210.000
  -2789833.04849  -2160692.78445  25399147.928    25399147.546    25399166.416
       210.000         134.000
  -2766401.67949  -2125580.48246  22832229.857    22832229.499    22832237.179
       234.000         181.000
 01 12  3 16 29  0.0010000  0  9G 1G20G29G 4G27G25G22G 3G13
  -1698878.13949  -1317221.77047  21156342.286    21156341.352    21156349.028
       242.000         208.000
    526876.84149    408394.56247  21206108.587    21206107.327    21206114.655
       241.000         207.000
   1285799.36849    984517.45145  25067214.737    25067213.422    25067229.724
       204.000         143.000
   -676982.98449   -521426.15845  25010013.362    25010012.774    25010023.994
       217.000         154.000
  -2904222.31349  -2247225.04746  24294709.001    24294708.081    24294719.193
       226.000         177.000
   1538240.91149   1189937.06045  24803522.076    24803520.698    24803533.598
       216.000         158.000
    -90806.14649    -68985.27547  21242367.525    21242366.013    21242374.207
       244.000         210.000
  -2891801.30849  -2240148.62445  25379743.925    25379743.499    25379762.190
       208.000         132.000
  -2866725.98749  -2203755.25946  22813138.818    22813138.452    22813146.135
       235.000         182.000
 01 12  3 16 29 30.0010000  0  9G 1G20G29G 4G27G25G22G 3G13
  -1755436.20749  -1361293.03647  21145579.694    21145578.746    21145586.431
       242.000         208.000
    552585.93949    428427.51647  21211000.978    21210999.682    21211007.024
       241.000         207.000
   1333574.37249   1021744.48045  25076306.130    25076304.931    25076321.249
       206.000         140.000
   -693830.02649   -534553.92445  25006807.583    25006806.977    25006818.252
       214.000         151.000
  -3003878.87449  -2324879.54546  24275745.043    24275744.124    24275755.215
       227.000         177.000
   1591139.83749   1231156.61945  24813588.684    24813587.323    24813600.335
       219.000         155.000
    -85183.02849    -64603.70247  21243437.600    21243436.097    21243444.326
       243.000         210.000
  -2993798.82249  -2319627.23045  25360334.394    25360333.936    25360352.478
       205.000         133.000
  -2966993.72449  -2281885.94446  22794058.538    22794058.166    22794065.885
       234.000         182.000
 01 12  3 16 30  0.0010000  0  9G 1G20G29G 4G27G25G22G 3G13
  -1811785.83549  -1405201.88147  21134856.747    21134855.801    21134863.493
       242.000         208.000
    578809.14249    448861.06747  21215991.184    21215989.881    21215997.230
       241.000         207.000
   1381482.61849   1059075.32945  25085422.966    25085421.756    25085438.162
       206.000         137.000
   -710216.26549   -547322.54345  25003689.582    25003688.934    25003700.271
       220.000         153.000
  -3103386.84349  -2402418.22346  24256809.300    24256808.418    24256819.578
       222.000         174.000
   1644013.54449   1272356.57245  24823650.411    24823649.069    24823662.146
       215.000         155.000
    -78946.13649    -59743.86047  21244624.541    21244622.991    21244631.249
       243.000         210.000
  -3095801.24549  -2399109.80045  25340924.103    25340923.545    25340941.844
       207.000         137.000
  -3067182.41749  -2359955.04746  22774993.323    22774992.928    22775000.636
       235.000         184.000
 01 12  3 16 30 30.0010000  0  9G 1G20G29G 4G27G25G22G 3G13
  -1867940.00149  -1448958.42447  21124170.975    21124170.051    21124177.736
       241.000         208.000
    605530.79749    469683.01947  21221076.221    21221074.911    21221082.288
       241.000         207.000
   1429509.76249   1096498.84645  25094562.465    25094561.234    25094577.684
       205.000         137.000
   -726157.03149   -559744.05745  25000656.366    25000655.693    25000667.050
       219.000         156.000
  -3202760.27849  -2479852.10046  24237899.067    24237898.248    24237909.454
       225.000         175.000
   1696846.80749   1313524.99945  24833704.567    24833703.179    24833716.291
       218.000         154.000
    -72111.02649    -54417.88147  21245925.255    21245923.721    21245931.998
       243.000         210.000
  -3197820.20049  -2478605.22345  25321510.486    25321509.932    25321528.111
       205.000         133.000
  -3167305.13949  -2437972.75346  22755940.614    22755940.198    22755947.988
       234.000         182.000
 01 12  3 16 31  0.0010000  0  9G 1G20G29G 4G27G25G22G 3G13
  -1923913.08249  -1492573.86047  21113519.701    21113518.765    21113526.430
       241.000         207.000
    632733.90049    490880.12847  21226252.844    21226251.554    21226258.971
       241.000         207.000
   1477640.08049   1134002.74445  25103721.693    25103720.330    25103736.809
       202.000         135.000
   -741669.04349   -571831.51945  24997704.537    24997703.951    24997715.488
       216.000         154.000
  -3302014.44749  -2557193.03646  24219011.690    24219010.809    24219022.078
       225.000         175.000
   1749624.01149   1354649.76245  24843747.917    24843746.592    24843759.719
       217.000         157.000
    -64694.70949    -48639.01547  21247336.567    21247335.056    21247343.357
       243.000         210.000
  -3299867.94149  -2558123.09145  25302091.398    25302090.886    25302108.948
       207.000         138.000
  -3267376.19749  -2515950.19746  22736897.760    22736897.342    22736905.160
       234.000         183.000
 01 12  3 16 31 30.0010000  0  9G 1G20G29G 4G27G25G22G 3G13
  -1979684.65949  -1536032.27947  21102906.733    21102905.827    21102913.470
       242.000         207.000
    660435.98549    512466.05647  21231524.459    21231523.158    21231530.624
       241.000         207.000
   1525892.78249   1171602.02945  25112904.087    25112902.738    25112919.250
       202.000         134.000
   -756734.35049   -583570.91545  24994837.827    24994837.185    24994848.883
       218.000         156.000
  -3401130.10849  -2634426.07446  24200150.747    24200149.789    24200160.955
       228.000         175.000
   1802363.56549   1395745.16345  24853784.299    24853782.885    24853796.065
       218.000         153.000
    -56679.49449    -42393.48247  21248861.835    21248860.361    21248868.700
       243.000         210.000
  -3401922.55649  -2637646.35945  25282671.192    25282670.691    25282688.493
       206.000         136.000
  -3367375.23349  -2593871.52746  22717868.555    22717868.165    22717875.978
       235.000         184.000
 01 12  3 16 32  0.0010000  0  9G 1G20G29G 4G27G25G22G 3G13
  -2035248.38349  -1579328.73747  21092333.347    21092332.441    21092340.070
       241.000         207.000
    688640.53049    534443.51247  21236891.695    21236890.390    21236897.911
       241.000         207.000
   1574272.45949   1209300.22745  25122110.643    25122109.288    25122125.793
       200.000         134.000
   -771349.16549   -594959.27245  24992056.955    24992056.283    24992067.921
       218.000         154.000
  -3500102.28449  -2711547.28746  24181317.088    24181316.069    24181327.162
       229.000         179.000
   1855069.61149   1436814.43945  24863814.119    24863812.733    24863826.029
       217.000         157.000
    -48061.82349    -35678.51247  21250501.755    21250500.309    21250508.685
       243.000         210.000
  -3503975.88749  -2717168.52745  25263251.262    25263250.636    25263268.448
       204.000         138.000
  -3467296.27649  -2671732.07746  22698854.217    22698853.841    22698861.707
       234.000         184.000
 01 12  3 16 32 30.0010000  0  9G 1G20G29G 4G27G25G22G 3G13
  -2090610.78649  -1622468.32947  21081798.300    21081797.361    21081804.964
       242.000         207.000
    717337.95749    556805.03447  21242352.684    21242351.403    21242358.973
       242.000         207.000
   1622771.67349   1247091.59045  25131339.859    25131338.565    25131355.083
       203.000         134.000
   -785522.77349   -606003.84345  24989359.988    24989359.266    24989370.905
       217.000         156.000
  -3598938.54149  -2788562.59946  24162509.232    24162508.222    24162519.239
       226.000         176.000
   1907733.47149   1477850.86545  24873835.965    24873834.632    24873848.026
       218.000         159.000
    -38850.98249    -28501.33247  21252254.532    21252253.126    21252261.543
       242.000         210.000
  -3606032.67749  -2796693.38745  25243830.709    25243829.920    25243847.783
       202.000         137.000
  -3567145.78749  -2749536.91246  22679853.481    22679853.116    22679860.976
       236.000         184.000
 01 12  3 16 33  0.0010000  0  9G 1G20G29G 4G27G25G22G 3G13
  -2145769.77849  -1665449.41347  21071301.930    21071300.990    21071308.594
       242.000         207.000
    746527.82049    579550.27547  21247907.391    21247906.130    21247913.726
       242.000         207.000
   1671391.04749   1284976.60745  25140591.982    25140590.611    25140607.293
       203.000         135.000
   -799255.43549   -616704.82645  24986746.874    24986746.183    24986757.809
       216.000         153.000
  -3697637.73749  -2865471.08246  24143727.444    24143726.423    24143737.467
       225.000         179.000
   1960355.87149   1518854.95245  24883849.969    24883848.566    24883862.157
       216.000         159.000
    -29047.51549    -20862.36647  21254120.078    21254118.713    21254127.158
       243.000         210.000
  -3708089.04749  -2876217.83345  25224409.921    25224409.201    25224427.025
       199.000         136.000
  -3666921.94349  -2827284.56946  22660866.739    22660866.363    22660874.248
       236.000         185.000
 01 12  3 16 33 30.0010000  0  9G 1G20G29G 4G27G25G22G 3G13
  -2200728.33249  -1708274.32347  21060843.732    21060842.774    21060850.360
       242.000         207.000
    776203.86949    602674.35547  21253554.623    21253553.372    21253561.001
       242.000         207.000
   1720125.92149   1322951.60845  25149866.079    25149864.755    25149881.454
       201.000         136.000
   -812552.51549   -627066.39445  24984216.595    24984215.978    24984227.650
       212.000         151.000
  -3796203.96049  -2942275.95146  24124970.797    24124969.857    24124980.966
       225.000         174.000
   2012932.00949   1559823.02445  24893855.273    24893853.833    24893867.403
       220.000         161.000
    -18657.37349    -12766.25647  21256097.280    21256095.953    21256104.398
       243.000         210.000
  -3810146.57349  -2955743.07945  25204988.919    25204988.205    25205006.137
       202.000         137.000
  -3766627.77449  -2904977.44846  22641893.397    22641892.987    22641900.845
       236.000         186.000
 01 12  3 16 34  0.0010000  0  9G 1G20G29G 4G27G25G22G 3G13
  -2255488.14749  -1750944.37447  21050423.348    21050422.381    21050429.933
       242.000         207.000
    806361.70849    626173.85547  21259293.518    21259292.298    21259299.974
       242.000         208.000
   1768973.61549   1361014.52345  25159161.550    25159160.343    25159177.123
       203.000         138.000
   -825418.21449   -637091.81945  24981768.279    24981767.769    24981779.501
       209.000         146.000
  -3894639.88949  -3018979.31246  24106239.108    24106238.169    24106249.264
       226.000         175.000
   2065458.53749   1600752.39345  24903851.136    24903849.586    24903863.336
       216.000         161.000
     -7685.05649     -4216.50247  21258185.290    21258183.974    21258192.424
       243.000         209.000
  -3912204.85649  -3035268.90145  25185567.799    25185567.137    25185585.120
       205.000         140.000
  -3866264.77349  -2982616.69246  22622933.084    22622932.733    22622940.585
       236.000         186.000
 01 12  3 16 34 30.0010000  0  9G 1G20G29G 4G27G25G22G 3G13
  -2310041.17349  -1793453.28247  21040042.314    21040041.340    21040048.865
       241.000         206.000
    837006.18649    650052.55247  21265125.084    21265123.831    21265131.564
       242.000         208.000
   1817940.57349   1399170.38145  25168479.854    25168478.694    25168495.596
       204.000         139.000
   -837847.44749   -646777.14745  24979403.106    24979402.625    24979414.418
       210.000         149.000
  -3992938.89949  -3095575.98846  24087533.582    24087532.552    24087543.578
       228.000         177.000
   2117941.21549   1641647.65645  24913838.530    24913836.972    24913850.703
       219.000         162.000
      3874.75349      4791.04347  21260385.103    21260383.787    21260392.244
       243.000         209.000
  -4014254.36349  -3114787.80545  25166148.378    25166147.740    25166165.807
       207.000         138.000
  -3965825.13649  -3060196.22546  22603987.493    22603987.089    22603994.892
       236.000         187.000
 01 12  3 16 35  0.0010000  0  9G 1G20G29G 4G27G25G22G 3G13
  -2364384.46849  -1835798.76847  21029701.187    21029700.207    21029707.714
       241.000         206.000
    868137.58249    674310.66447  21271049.300    21271048.040    21271055.804
       242.000         207.000
   1867028.35149   1437420.36445  25177821.082    25177820.015    25177837.014
       205.000         141.000
   -849839.76749   -656122.04245  24977121.181    24977120.671    24977132.549
       210.000         148.000
  -4091099.13849  -3172064.51346  24068854.361    24068853.358    24068864.340
       226.000         178.000
   2170381.26049   1682509.67745  24923817.932    24923816.290    24923830.093
       217.000         160.000
     16022.12449     14256.42947  21262696.781    21262695.437    21262703.886
       243.000         209.000
  -4116290.42049  -3194296.17445  25146731.285    25146730.794    25146749.035
       203.000         137.000
  -4065305.96649  -3137713.78146  22585056.951    22585056.541    22585064.357
       237.000         187.000
 01 12  3 16 35 30.0010000  0  9G 1G20G29G 4G27G25G22G 3G13
  -2418515.54949  -1877978.88647  21019400.454    21019399.457    21019406.947
       241.000         206.000
    899755.34749    698947.76447  21277066.084    21277064.778    21277072.586
       242.000         207.000
   1916238.05449   1475765.37745  25187185.640    25187184.477    25187201.518
       202.000         143.000
   -861395.17149   -665126.46945  24974922.365    24974921.808    24974933.862
       210.000         146.000
  -4189118.96749  -3248443.62246  24050201.855    24050200.856    24050211.839
       229.000         177.000
   2222779.37849   1723338.99946  24933789.084    24933787.508    24933801.501
       221.000         163.000
     28756.55649     24179.26847  21265120.157    21265118.791    21265127.279
       242.000         209.000
  -4218308.85049  -3273790.84845  25127317.927    25127317.256    25127335.520
       207.000         142.000
  -4164704.73449  -3215167.39746  22566142.096    22566141.647    22566149.433
       236.000         187.000
 01 12  3 16 36  0.0010000  0  9G 1G20G29G 4G27G25G22G 3G13
  -2472438.67949  -1919996.96047  21009139.267    21009138.279    21009145.776
       241.000         207.000
    931852.15549    723958.14247  21283174.010    21283172.677    21283180.508
       242.000         206.000
   1965563.93649   1514200.93845  25196572.276    25196571.085    25196588.206
       206.000         142.000
   -872520.64549   -673795.86445  24972805.410    24972804.790    24972816.950
       212.000         146.000
  -4287004.26749  -3324717.89246  24031574.904    24031573.899    24031584.966
       227.000         178.000
   2275129.56849   1764131.00446  24943751.371    24943749.755    24943763.826
       220.000         163.000
     42070.79649     34553.91347  21267653.914    21267652.499    21267661.010
       243.000         209.000
  -4320312.56949  -3353274.08245  25107907.150    25107906.533    25107924.728
       205.000         141.000
  -4264025.94949  -3292560.57646  22547242.008    22547241.509    22547249.266
       236.000         187.000
 01 12  3 16 36 30.0010000  0  9G 1G20G29G 4G27G25G22G 3G13
  -2526159.96549  -1961857.74547  20998916.520    20998915.515    20998923.021
       242.000         206.000
    964418.58349    749334.46247  21289371.340    21289369.961    21289377.812
       244.000         206.000
   2014998.32749   1552721.03945  25205979.603    25205978.299    25205995.456
       208.000         142.000
   -883225.30549   -682137.31545  24970768.504    24970767.867    24970780.156
       212.000         148.000
  -4384762.24449  -3400892.94646  24012972.074    24012971.175    24012982.281
       226.000         177.000
   2327423.75149   1804879.36146  24953702.962    24953701.302    24953715.375
       222.000         164.000
     55955.70749     45373.23547  21270296.271    21270294.795    21270303.354
       244.000         209.000
  -4422305.85149  -3432749.13545  25088498.329    25088497.802    25088516.026
       204.000         137.000
  -4363275.82449  -3369898.17346  22528355.379    22528354.923    22528362.631
       236.000         187.000
 01 12  3 16 37  0.0010000  0  9G 1G20G29G 4G27G25G22G 3G13
  -2579683.58349  -2003564.50747  20988731.355    20988730.355    20988737.874
       242.000         206.000
    997447.67949    775071.30147  21295656.691    21295655.286    21295663.117
       244.000         206.000
   2064535.92649   1591321.54345  25215406.385    25215405.142    25215422.315
       206.000         144.000
   -893515.73049   -690155.99345  24968810.497    24968809.838    24968822.185
       212.000         149.000
  -4482398.06049  -3476972.82446  23994392.646    23994391.727    23994402.861
       226.000         178.000
   2379656.04949   1845579.50245  24963642.707    24963641.048    24963655.204
       220.000         158.000
     70404.42349     56631.88547  21273045.930    21273044.397    21273052.968
       243.000         209.000
  -4524291.07049  -3512217.90445  25069091.040    25069090.571    25069108.806
       204.000         143.000
  -4462458.46149  -3447183.37246  22509481.544    22509481.118    22509488.851
       236.000         187.000
 01 12  3 16 37 30.0010000  0  9G 1G20G29G 4G27G25G22G 3G13
  -2632986.49849  -2045099.28347  20978588.171    20978587.189    20978594.730
       241.000         206.000
   1030959.32849    801184.16447  21302033.839    21302032.435    21302040.252
       244.000         206.000
   2114198.35149   1630019.34945  25224857.002    25224855.772    25224872.988
       207.000         144.000
   -903371.72249   -697836.17145  24966935.132    24966934.396    24966946.822
       215.000         147.000
  -4579889.78749  -3552940.41146  23975840.595    23975839.704    23975850.821
       225.000         176.000
   2431847.91049   1886248.14945  24973574.759    24973573.111    24973587.237
       220.000         161.000
     85436.76849     68345.31947  21275906.602    21275905.046    21275913.629
       244.000         209.000
  -4626243.35349  -3591661.11245  25049689.932    25049689.568    25049707.695
       206.000         145.000
  -4561550.61349  -3524398.04946  22490624.923    22490624.500    22490632.305
       235.000         187.000
 01 12  3 16 38  0.0010000  0  9G 1G20G29G 4G27G25G22G 3G13
  -2686079.83149  -2086470.75647  20968484.896    20968483.907    20968491.448
       241.000         206.000
   1064939.41849    827662.04347  21308500.109    21308498.714    21308506.549
       244.000         206.000
   2163972.70749   1668804.39345  25234328.873    25234327.653    25234344.959
       204.000         143.000
   -912806.93749   -705188.49045  24965139.838    24965139.123    24965151.464
       214.000         147.000
  -4677249.73849  -3628805.30546  23957313.487    23957312.662    23957323.877
       225.000         176.000
   2483986.02449   1926874.85845  24983496.686    24983494.977    24983509.205
       218.000         162.000
    101038.62949     80502.52747  21278875.643    21278874.069    21278882.659
       243.000         208.000
  -4728172.14549  -3671086.00245  25030293.419    25030293.015    25030311.041
       206.000         143.000
  -4660563.52249  -3601550.97946  22471783.410    22471782.991    22471790.813
       236.000         187.000
 01 12  3 16 38 30.0010000  0  9G 1G20G29G 4G27G25G22G 3G13
  -2738942.24949  -2127662.29147  20958425.557    20958424.581    20958432.099
       242.000         206.000
   1099405.85449    854518.89247  21315058.946    21315057.541    21315065.425
       244.000         206.000
   2213878.95149   1707692.17545  25243825.851    25243824.657    25243841.996
       206.000         142.000
   -921803.07749   -712198.66645  24963428.080    24963427.386    24963439.709
       217.000         149.000
  -4774457.95049  -3704551.96546  23938815.308    23938814.544    23938825.808
       224.000         177.000
   2536090.11149   1967475.08745  24993411.840    24993410.296    24993424.635
       214.000         155.000
    117228.25649     93117.72747  21281956.475    21281954.923    21281963.536
       243.000         208.000
  -4830054.74349  -3750474.89145  25010905.674    25010905.334    25010923.342
       207.000         141.000
  -4759476.26849  -3678625.85347  22452960.884    22452960.518    22452968.397
       237.000         188.000
 01 12  3 16 39  0.0010000  0  9G 1G20G29G 4G27G25G22G 3G13
  -2791609.48549  -2168701.73847  20948403.328    20948402.369    20948409.907
       241.000         206.000
   1134319.94149    881724.56147  21321702.962    21321701.545    21321709.497
       243.000         205.000
   2263879.72249   1746653.63345  25253340.862    25253339.742    25253357.140
       208.000         144.000
   -930398.58049   -718896.63545  24961792.570    24961791.868    24961804.183
       215.000         146.000
  -4871551.33149  -3780209.14446  23920339.103    23920338.269    23920349.599
       226.000         178.000
   2588122.69549   2008019.59545  25003313.635    25003312.023    25003326.464
       217.000         160.000
    133966.88549    106160.72547  21285141.743    21285140.256    21285148.892
       243.000         208.000
  -4931925.05049  -3829854.25045  24991520.209    24991519.967    24991537.885
       206.000         141.000
  -4858324.26149  -3755650.27247  22434150.690    22434150.355    22434158.279
       237.000         188.000
 01 12  3 16 39 30.0010000  0  9G 1G20G29G 4G27G25G22G 3G13
  -2844042.61549  -2209558.76347  20938425.688    20938424.720    20938432.277
       241.000         206.000
   1169717.34449    909306.83247  21328438.897    21328437.520    21328445.518
       243.000         205.000
   2314012.63649   1785718.04045  25262880.944    25262879.941    25262897.402
       204.000         142.000
   -938557.34849   -725254.26945  24960240.186    24960239.471    24960251.711
       215.000         146.000
  -4968492.22749  -3855747.49546  23901891.991    23901891.085    23901902.424
       228.000         179.000
   2640121.09749   2048537.45845  25013208.866    25013207.276    25013221.825
       217.000         161.000
    151290.19949    119659.31647  21288438.338    21288436.857    21288445.501
       244.000         208.000
  -5033742.16249  -3909192.19045  24972145.033    24972144.693    24972162.670
       206.000         143.000
  -4957068.69249  -3832593.99047  22415360.296    22415359.936    22415367.877
       237.000         189.000
 01 12  3 16 40  0.0010000  0  9G 1G20G29G 4G27G25G22G 3G13
  -2896252.13049  -2250241.54647  20928490.547    20928489.605    20928497.218
       241.000         206.000
   1205584.51449    937255.15847  21335264.299    21335262.896    21335270.921
       243.000         205.000
   2364265.90249   1824876.23145  25272443.920    25272442.951    25272460.506
       206.000         142.000
   -946292.72149   -731281.99045  24958768.399    24958767.638    24958779.819
       213.000         146.000
  -5065292.27249  -3931176.10546  23883471.634    23883470.684    23883482.013
       228.000         177.000
   2692072.71949   2089018.86645  25023095.189    25023093.626    25023108.314
       210.000         155.000
    169184.62349    133602.91747  21291843.670    21291842.143    21291850.778
       244.000         208.000
  -5135514.92749  -3988495.59645  24952778.139    24952777.830    24952795.747
       206.000         140.000
  -5055719.93349  -3909465.08747  22396587.610    22396587.243    22396595.193
       237.000         190.000
 01 12  3 16 40 30.0010000  0  8G 1G20G 4G27G25G22G 3G13
  -2948265.13249  -2290771.19847  20918592.854    20918591.901    20918599.536
       242.000         207.000
   1241891.02249    965545.82347  21342173.256    21342171.864    21342179.933
       243.000         205.000
   -953634.61849   -737003.11845  24957371.407    24957370.707    24957382.812
       214.000         148.000
  -5161979.85049  -4006517.07846  23865072.609    23865071.662    23865082.927
       228.000         177.000
   2743948.34249   2129441.06045  25032967.213    25032965.508    25032980.264
       215.000         158.000
    187619.93849    147967.98947  21295351.935    21295350.360    21295358.960
       244.000         207.000
  -5237268.88049  -4067784.35545  24933415.018    24933414.588    24933432.483
       205.000         141.000
  -5154305.39649  -3986284.92547  22377827.446    22377827.086    22377834.998
       238.000         189.000
 01 12  3 16 41  0.0000000  0  8G 1G20G 4G27G25G22G 3G13
  -3000055.34349  -2331127.24547  20908737.586    20908736.610    20908744.234
       242.000         207.000
   1278657.06249    994194.56547  21349169.685    21349168.298    21349176.383
       243.000         206.000
   -960561.29449   -742400.74145  24956053.477    24956052.751    24956064.896
       216.000         151.000
  -5258528.45349  -4081749.76746  23846699.984    23846699.050    23846710.290
       227.000         178.000
   2795769.47149   2169820.76645  25042828.693    25042827.051    25042841.884
       214.000         158.000
    206616.88249    162770.67647  21298966.981    21298965.433    21298974.034
       243.000         207.000
  -5338974.32449  -4147035.31145  24914061.027    24914060.632    24914078.443
       205.000         140.000
  -5252797.10349  -4063031.70147  22359085.154    22359084.758    22359092.666
       238.000         190.000
 01 12  3 16 41 30.0000000  0  8G 1G20G 4G27G25G22G 3G13
  -3051626.25149  -2371312.40747  20898924.030    20898923.043    20898930.643
       241.000         207.000
   1315881.61949   1023200.59647  21356253.394    21356252.004    21356260.110
       243.000         206.000
   -967076.10849   -747477.40645  24954813.928    24954813.224    24954825.372
       216.000         151.000
  -5354945.73549  -4156880.14046  23828352.512    23828351.535    23828362.657
       229.000         181.000
   2847537.77449   2210159.31145  25052679.993    25052678.430    25052693.390
       214.000         155.000
    226173.30949    178009.32447  21302688.535    21302686.967    21302695.566
       243.000         206.000
  -5440636.16249  -4226252.30145  24894715.420    24894714.912    24894732.777
       206.000         143.000
  -5351201.61849  -4139710.54047  22340359.387    22340359.013    22340366.907
       238.000         190.000
 01 12  3 16 42  0.0000000  0  8G 1G20G 4G27G25G22G 3G13
  -3102946.66449  -2411302.37947  20889158.140    20889157.154    20889164.717
       241.000         207.000
   1353589.89849   1052583.55347  21363429.212    21363427.778    21363435.905
       244.000         206.000
   -973152.17649   -752212.21845  24953657.830    24953657.122    24953669.342
       216.000         154.000
  -5451200.35549  -4231883.75346  23810035.826    23810034.925    23810046.019
       229.000         183.000
   2899278.89349   2250476.73945  25062526.109    25062524.686    25062539.750
       212.000         156.000
    246315.00249    193704.02447  21306521.492    21306519.883    21306528.481
       243.000         206.000
  -5542219.82849  -4305408.34345  24875384.628    24875384.109    24875401.966
       205.000         144.000
  -5449486.12149  -4216295.86147  22321656.535    22321656.140    22321663.966
       237.000         189.000
 01 12  3 16 42 30.0000000  0  8G 1G20G 4G27G25G22G 3G13
  -3154057.54249  -2451129.07747  20879432.127    20879431.135    20879438.691
       242.000         207.000
   1391737.38549   1082308.75047  21370688.569    21370687.130    21370695.278
       244.000         206.000
   -978833.24049   -756639.19645  24952576.911    24952576.192    24952588.521
       217.000         153.000
  -5547334.48249  -4306793.48046  23791742.140    23791741.198    23791752.342
       227.000         179.000
   2950950.40449   2290739.84145  25072359.304    25072357.727    25072372.980
       215.000         157.000
    266997.65249    209820.24247  21310457.299    21310455.720    21310464.348
       243.000         205.000
  -5643764.69249  -4384534.16245  24856061.270    24856060.679    24856078.577
       208.000         146.000
  -5547691.62449  -4292819.62047  22302968.596    22302968.241    22302976.112
       239.000         190.000
 01 12  3 16 43  0.0000000  0  8G 1G20G 4G27G25G22G 3G13
  -3204948.70549  -2490784.56247  20869747.891    20869746.911    20869754.467
       241.000         207.000
   1430331.12349   1112381.67547  21378032.810    21378031.382    21378039.547
       244.000         205.000
   -984112.35249   -760752.98145  24951572.478    24951571.805    24951584.124
       216.000         151.000
  -5643339.07349  -4381602.25446  23773472.895    23773472.054    23773483.298
       225.000         179.000
   3002560.50649   2330955.12045  25082180.661    25082179.004    25082194.450
       219.000         157.000
    288228.33649    226363.50347  21314497.351    21314495.837    21314504.504
       242.000         205.000
  -5745258.70249  -4463620.34945  24836747.506    24836746.967    24836764.815
       205.000         145.000
  -5645807.87249  -4369273.84247  22284297.692    22284297.327    22284305.180
       239.000         189.000
 01 12  3 16 43 30.0000000  0  8G 1G20G 4G27G25G22G 3G13
  -3255611.38649  -2530262.01647  20860107.139    20860106.167    20860113.730
       242.000         208.000
   1469376.82949   1142806.78547  21385463.073    21385461.653    21385469.794
       243.000         205.000
   -988983.53649   -764548.87745  24950645.761    24950644.970    24950657.393
       216.000         150.000
  -5739206.40049  -4456304.08846  23755229.859    23755229.081    23755240.361
       228.000         179.000
   3054116.56349   2371128.30445  25091991.875    25091990.130    25092005.556
       214.000         153.000
    310012.45749    243338.00847  21318642.801    21318641.281    21318649.979
       243.000         205.000
  -5846691.44049  -4542658.78445  24817445.478    24817444.986    24817462.760
       205.000         144.000
  -5743826.01249  -4445651.60347  22265645.421    22265645.089    22265653.000
       238.000         190.000
 01 12  3 16 44  0.0000000  0  8G 1G20G 4G27G25G22G 3G13
  -3306059.21649  -2569572.04447  20850507.271    20850506.298    20850513.884
       242.000         207.000
   1508857.19149   1173570.58447  21392976.094    21392974.638    21392982.751
       244.000         205.000
   -993463.35649   -768039.82945  24949793.537    24949792.684    24949805.170
       214.000         150.000
  -5834951.64849  -4530910.81646  23737010.199    23737009.387    23737020.604
       227.000         181.000
   3105603.09649   2411247.32045  25101789.584    25101787.996    25101803.394
       210.000         152.000
    332333.17049    260730.63947  21322890.387    21322888.867    21322897.544
       243.000         205.000
  -5948075.19749  -4621659.00845  24798152.805    24798152.183    24798169.975
       207.000         146.000
  -5841759.72649  -4521963.60647  22247009.243    22247008.922    22247016.782
       238.000         189.000
 01 12  3 16 44 30.0000000  0  8G 1G20G 4G27G25G22G 3G13
  -3356271.48349  -2608698.52247  20840952.193    20840951.239    20840958.850
       242.000         207.000
   1548789.32549   1204686.41347  21400575.048    21400573.584    21400581.681
       244.000         205.000
   -997534.46149   -771212.29845  24949019.056    24949018.206    24949030.648
       214.000         150.000
  -5930555.52949  -4605407.38246  23718817.495    23718816.641    23718827.796
       228.000         181.000
   3157038.57849   2451326.56045  25111577.665    25111576.123    25111591.623
       214.000         156.000
    355207.57749    278554.72247  21327243.375    21327241.830    21327250.489
       243.000         204.000
  -6049387.13149  -4700603.25745  24778873.863    24778873.183    24778890.859
       206.000         147.000
  -5939588.59349  -4598193.90247  22228393.004    22228392.705    22228400.562
       239.000         188.000
 01 12  3 16 45  0.0000000  0  8G 1G20G 4G27G25G22G 3G13
  -3406244.02949  -2647638.20747  20831442.810    20831441.832    20831449.436
       242.000         208.000
   1589174.52249   1236155.27847  21408260.138    21408258.727    21408266.847
       244.000         205.000
  -1001195.55149   -774065.29545  24948322.528    24948321.627    24948334.095
       213.000         149.000
  -6026014.96849  -4679791.37446  23700652.129    23700651.306    23700662.513
       228.000         182.000
   3208425.79049   2491368.13645  25121356.558    25121355.024    25121370.645
       217.000         151.000
    378636.64149    296811.01647  21331701.816    21331700.320    21331708.969
       242.000         204.000
  -6150621.17849  -4779486.77845  24759609.475    24759608.901    24759626.597
       205.000         147.000
  -6037307.95549  -4674338.86547  22209797.604    22209797.312    22209805.188
       239.000         191.000
 01 12  3 16 45 30.0000000  0  8G 1G20G 4G27G25G22G 3G13
  -3455986.26549  -2686398.43547  20821977.230    20821976.265    20821983.839
       242.000         207.000
   1629999.59049   1267966.89247  21416028.944    21416027.572    21416035.718
       244.000         204.000
  -1004459.14649   -776608.53945  24947701.610    24947700.676    24947713.256
       215.000         150.000
  -6121340.77749  -4754071.24746  23682512.218    23682511.410    23682522.634
       227.000         180.000
   3259753.64949   2531363.54645  25131124.318    25131122.705    25131138.314
       207.000         149.000
    402607.45349    315489.45247  21336263.389    21336261.895    21336270.541
       242.000         204.000
  -6251785.37549  -4858315.82345  24740358.469    24740357.923    24740375.602
       208.000         149.000
  -6134927.36849  -4750405.96547  22191221.216    22191220.939    22191228.786
       238.000         190.000
 01 12  3 16 46  0.0000000  0  8G 1G20G 4G27G25G22G 3G13
  -3505519.94149  -2724996.15047  20812551.367    20812550.370    20812557.938
       242.000         207.000
   1671239.66349   1300101.89447  21423876.750    21423875.396    21423883.563
       244.000         204.000
  -1007349.82749   -778861.21245  24947151.706    24947150.741    24947163.350
       217.000         154.000
  -6216555.74849  -4828264.73246  23664393.447    23664392.629    23664403.851
       228.000         181.000
   3310998.80449   2571294.46545  25140876.206    25140874.611    25140890.322
       209.000         149.000
    427095.16949    334570.67647  21340923.386    21340921.847    21340930.507
       242.000         204.000
  -6352899.58749  -4937105.89645  24721117.101    24721116.492    24721134.125
       210.000         150.000
  -6232468.39949  -4826411.98647  22172659.827    22172659.513    22172667.379
       238.000         191.000
 01 12  3 16 46 30.0000000  0  8G 1G20G 4G27G25G22G 3G13
  -3554815.56749  -2763408.37147  20803170.743    20803169.773    20803177.336
       242.000         207.000
   1712920.74349   1332580.52947  21431808.481    21431807.125    21431815.339
       243.000         204.000
  -1009841.48449   -780802.95945  24946677.706    24946676.724    24946689.408
       216.000         154.000
  -6311631.96949  -4902350.13246  23646301.199    23646300.310    23646311.347
       228.000         180.000
   3362188.78249   2611182.39645  25150617.574    25150616.040    25150631.840
       209.000         156.000
    452125.60049    354074.80347  21345686.638    21345685.081    21345693.754
       242.000         204.000
  -6453932.41349  -5015832.52645  24701891.061    24701890.536    24701908.138
       210.000         150.000
  -6329901.50349  -4902333.91547  22154118.917    22154118.608    22154126.437
       239.000         191.000
 01 12  3 16 47  0.0000000  0  8G 1G20G 4G27G25G22G 3G13
  -3603866.30849  -2801629.77347  20793836.768    20793835.763    20793843.334
       241.000         207.000
   1755046.11349   1365405.35947  21439824.696    21439823.402    21439831.681
       243.000         204.000
  -1011930.24149   -782430.74545  24946280.484    24946279.428    24946292.155
       217.000         156.000
  -6406563.86849  -4976323.04546  23628236.318    23628235.439    23628246.399
       230.000         182.000
   3413328.92449   2651031.43545  25160349.460    25160347.981    25160363.897
       208.000         152.000
    477702.18049    374004.50447  21350553.828    21350552.242    21350560.913
       242.000         204.000
  -6554875.40649  -5094489.13545  24682682.198    24682681.625    24682699.154
       211.000         151.000
  -6427219.90149  -4978166.46047  22135599.807    22135599.536    22135607.369
       239.000         191.000
 01 12  3 16 47 30.0000000  0  8G 1G20G 4G27G25G22G 3G13
  -3652714.89149  -2839693.64547  20784541.195    20784540.221    20784547.793
       241.000         206.000
   1797569.52649   1398540.35147  21447916.738    21447915.420    21447923.763
       243.000         204.000
  -1013662.05249   -783780.38745  24945951.090    24945950.071    24945962.817
       216.000         155.000
  -6501395.56249  -5050217.85146  23610190.387    23610189.553    23610200.569
       228.000         181.000
   3464374.57049   2690806.90845  25170063.252    25170061.961    25170077.811
       205.000         143.000
    503778.62649    394323.72147  21355516.076    21355514.509    21355523.180
       241.000         203.000
  -6655769.84649  -5173107.89645  24663482.555    24663481.985    24663499.403
       211.000         153.000
  -6524466.42549  -5053943.00947  22117094.462    22117094.172    22117102.017
       239.000         192.000
 01 12  3 16 48  0.0000000  0  8G 1G20G 4G27G25G22G 3G13
  -3701306.08549  -2877556.96247  20775294.607    20775293.655    20775301.208
       241.000         207.000
   1840542.80149   1432025.88747  21456094.393    21456093.065    21456101.435
       243.000         204.000
  -1014984.51649   -784811.05945  24945699.512    24945698.543    24945711.363
       215.000         153.000
  -6596073.07549  -5123992.50646  23592173.789    23592173.007    23592184.139
       227.000         182.000
   3515379.32049   2730550.46445  25179769.388    25179768.077    25179784.042
       214.000         157.000
    530406.82749    415072.87847  21360583.305    21360581.767    21360590.450
       241.000         204.000
  -6756558.63649  -5251644.30745  24644302.881    24644302.423    24644319.711
       210.000         153.000
  -6621585.43149  -5129620.20147  22098613.366    22098613.062    22098620.888
       239.000         193.000
 01 12  3 16 48 30.0000000  0  8G 1G20G 4G27G25G22G 3G13
  -3749639.11749  -2915219.10847  20766097.219    20766096.236    20766103.781
       241.000         206.000
   1883963.20649   1465859.84047  21464357.132    21464355.787    21464364.180
       243.000         204.000
  -1015900.53749   -785525.03045  24945525.315    24945524.328    24945537.220
       212.000         150.000
  -6690596.94949  -5197647.44646  23574186.427    23574185.706    23574196.935
       231.000         183.000
   3566342.40449   2770261.57445  25189467.764    25189466.329    25189482.394
       211.000         155.000
    557583.92449    436249.75647  21365754.992    21365753.451    21365762.217
       241.000         204.000
  -6857239.24149  -5330096.41745  24625143.754    24625143.374    24625160.729
       208.000         154.000
  -6718576.13649  -5205197.40147  22080156.769    22080156.398    22080164.226
       239.000         193.000
 01 12  3 16 49  0.0000000  0  8G 1G20G 4G27G25G22G 3G13
  -3797743.64949  -2952703.19847  20756943.283    20756942.298    20756949.834
       241.000         206.000
   1927797.61049   1500016.38847  21472698.599    21472697.284    21472705.710
       243.000         203.000
  -1016442.59749   -785947.61345  24945422.145    24945421.270    24945434.286
       211.000         148.000
  -6784998.37949  -5271206.98146  23556222.515    23556221.761    23556232.964
       230.000         182.000
   3617232.14349   2809915.55245  25199151.944    25199150.586    25199166.840
       208.000         151.000
    585276.84749    457828.57947  21371024.829    21371023.320    21371032.147
       241.000         204.000
  -6957839.95849  -5408486.30245  24605999.895    24605999.559    24606016.896
       210.000         154.000
  -6815468.21449  -5280697.75247  22061718.865    22061718.475    22061726.283
       240.000         194.000
 01 12  3 16 49 30.0000000  0  8G 1G20G 4G27G25G22G 3G13
  -3845616.47249  -2990006.73947  20747833.470    20747832.442    20747839.985
       241.000         207.000
   1972045.72949   1534495.30947  21481118.830    21481117.512    21481125.982
       244.000         204.000
  -1016610.72249   -786078.80245  24945390.245    24945389.391    24945402.564
       212.000         149.000
  -6879275.21849  -5344669.42246  23538282.336    23538281.511    23538292.711
       229.000         181.000
   3668050.56249   2849513.91245  25208822.726    25208821.221    25208837.670
       212.000         153.000
    613485.22149    479809.05047  21376392.748    21376391.266    21376400.143
       241.000         204.000
  -7058355.35649  -5486809.70545  24586872.350    24586871.945    24586889.329
       211.000         152.000
  -6912258.14049  -5356118.49747  22043300.396    22043299.985    22043307.788
       239.000         194.000
 01 12  3 16 50  0.0000000  0  8G 1G20G 4G27G25G22G 3G13
  -3893217.54149  -3027098.52447  20738775.306    20738774.316    20738781.868
       241.000         206.000
   2016744.06749   1569325.05447  21489624.773    21489623.422    21489631.942
       243.000         203.000
  -1016368.09749   -785889.94345  24945436.561    24945435.723    24945448.832
       213.000         145.000
  -6973388.78649  -5418004.62046  23520373.078    23520372.259    23520383.450
       228.000         179.000
   3718835.72749   2889086.37645  25218486.966    25218485.569    25218502.089
       213.000         145.000
    642245.74649    502219.77547  21381865.772    21381864.304    21381873.184
       242.000         203.000
  -7158743.54549  -5565034.00645  24567768.805    24567768.501    24567785.969
       211.000         152.000
  -7008905.74149  -5431428.32347  22024908.929    22024908.567    22024916.399
       239.000         194.000
 01 12  3 16 50 30.0000000  0  8G 1G20G 4G27G25G22G 3G13
  -3940585.94849  -3064009.01347  20729761.433    20729760.447    20729768.020
       241.000         207.000
   2061849.58349   1604472.08047  21498208.220    21498206.816    21498215.357
       243.000         203.000
  -1015757.17649   -785414.07845  24945552.963    24945552.110    24945565.246
       215.000         147.000
  -7067379.71449  -5491244.25746  23502487.179    23502486.338    23502497.488
       231.000         180.000
   3769546.57149   2928600.94845  25228137.320    25228135.799    25228152.422
       208.000         144.000
    671515.39049    525027.21347  21387435.651    21387434.203    21387443.113
       241.000         203.000
  -7259042.35549  -5643188.70445  24548682.335    24548682.055    24548699.541
       211.000         150.000
  -7105450.17849  -5506657.75947  22006537.091    22006536.763    22006544.661
       239.000         194.000
 01 12  3 16 51  0.0000000  0  8G 1G20G 4G27G25G22G 3G13
  -3987697.19349  -3100719.12047  20720796.524    20720795.536    20720803.088
       242.000         206.000
   2107383.62949   1639953.01347  21506873.190    21506871.747    21506880.326
       243.000         203.000
  -1014756.74649   -784634.69345  24945743.502    24945742.672    24945755.807
       217.000         149.000
  -7161224.69549  -5564370.18146  23484629.147    23484628.265    23484639.327
       232.000         183.000
   3820206.17249   2968075.56445  25237777.813    25237776.266    25237792.976
       211.000         144.000
    701315.23449    548247.77747  21393106.446    21393104.980    21393113.916
       241.000         203.000
  -7359225.45549  -5721253.29345  24529617.863    24529617.628    24529635.140
       210.000         149.000
  -7201866.87249  -5581787.66447  21988189.620    21988189.299    21988197.193
       239.000         195.000
 01 12  3 16 51 30.0000000  0  8G 1G20G 4G27G25G22G 3G13
  -4034557.31349  -3137233.53747  20711879.430    20711878.413    20711885.934
       242.000         207.000
   2153336.63749   1675760.41947  21515617.867    21515616.415    21515625.015
       243.000         203.000
  -1013375.75949   -783558.78145  24946006.456    24946005.622    24946018.770
       217.000         149.000
  -7254931.10349  -5637388.12246  23466797.521    23466796.583    23466807.634
       232.000         185.000
   3870806.76849   3007504.21945  25247407.093    25247405.591    25247422.330
       210.000         144.000
    731635.65349    571873.98947  21398876.298    21398874.830    21398883.802
       241.000         203.000
  -7459297.03549  -5799231.05145  24510574.686    24510574.434    24510591.896
       212.000         150.000
  -7298161.64149  -5656822.54847  21969865.343    21969865.029    21969872.948
       239.000         195.000
 01 12  3 16 52  0.0000000  0  8G 1G20G 4G27G25G22G 3G13
  -4081159.03549  -3173546.60247  20703011.400    20703010.438    20703017.952
       241.000         206.000
   2199711.91649   1711896.85847  21524442.928    21524441.453    21524450.074
       243.000         204.000
  -1011610.40149   -782183.36845  24946342.535    24946341.738    24946354.876
       214.000         151.000
  -7348493.01449  -5710293.45246  23448993.364    23448992.357    23449003.447
       228.000         182.000
   3921354.13849   3046891.40445  25257026.220    25257024.720    25257041.514
       203.000         133.000
    762480.24049    595908.63647  21404745.890    21404744.436    21404753.425
       241.000         203.000
  -7559248.07249  -5877114.91545  24491554.420    24491554.257    24491571.589
       213.000         151.000
  -7394327.07649  -5731756.65347  21951565.648    21951565.361    21951573.309
       240.000         195.000
 01 12  3 16 52 30.0000000  0  8G 1G20G 4G27G25G22G 3G13
  -4127504.46949  -3209659.96947  20694192.193    20694191.234    20694198.749
       242.000         206.000
   2246503.84549   1748357.95747  21533347.258    21533345.768    21533354.433
       242.000         203.000
  -1009466.30649   -780512.84445  24946750.755    24946749.929    24946763.095
       213.000         151.000
  -7441914.17449  -5783089.10546  23431215.672    23431214.811    23431225.957
       228.000         179.000
   3971844.37649   3086234.06045  25266634.301    25266632.938    25266649.818
       216.000         142.000
    793843.24549    620347.23447  21410714.157    21410712.690    21410721.694
       241.000         203.000
  -7659079.25549  -5954905.43045  24472557.111    24472556.898    24472574.165
       217.000         153.000
  -7490365.22849  -5806591.57247  21933290.222    21933289.924    21933297.871
       240.000         196.000
 01 12  3 16 53  0.0000000  0  8G 1G20G 4G27G25G22G 3G13
  -4173576.36549  -3245560.18547  20685424.990    20685424.063    20685431.606
       241.000         207.000
   2293726.03749   1785154.32447  21542333.413    21542331.947    21542340.654
       242.000         203.000
  -1006929.40249   -778536.24245  24947233.627    24947232.822    24947246.021
       211.000         149.000
  -7535178.61949  -5855762.66446  23413467.892    23413467.137    23413478.138
       230.000         179.000
   4022293.08749   3125544.35245  25276234.830    25276233.369    25276250.348
       211.000         140.000
    825738.11349    645200.27347  21416783.625    21416782.145    21416791.172
       241.000         203.000
  -7758771.56449  -6032587.77245  24453586.350    24453586.019    24453603.193
       217.000         155.000
  -7586258.63149  -5881313.70347  21915042.369    21915042.059    21915049.990
       240.000         197.000
 01 12  3 16 53 30.0000000  0  8G 1G20G 4G27G25G22G 3G13
  -4219393.06149  -3281261.54247  20676706.429    20676705.464    20676713.036
       241.000         206.000
   2341356.68849   1822268.97347  21551397.355    21551395.869    21551404.604
       243.000         203.000
  -1004021.26549   -776270.38245  24947787.188    24947786.323    24947799.592
       212.000         148.000
  -7628305.98049  -5928329.42446  23395746.419    23395745.621    23395756.397
       230.000         181.000
   4072680.30949   3164806.76145  25285823.583    25285822.137    25285838.978
       213.000         141.000
    858143.07349    670450.78447  21422950.167    21422948.668    21422957.726
       241.000         203.000
  -7858341.51749  -6110174.83045  24434638.834    24434638.496    24434655.498
       214.000         152.000
  -7682025.46549  -5955937.22047  21896818.576    21896818.253    21896826.199
       240.000         196.000
 01 12  3 16 54  0.0000000  0  8G 1G20G 4G27G25G22G 3G13
  -4264963.77649  -3316771.23247  20668034.604    20668033.661    20668041.259
       241.000         206.000
   2389382.79649   1859691.77147  21560536.524    21560535.035    21560543.831
       243.000         203.000
  -1000754.42349   -773725.00945  24948409.005    24948408.124    24948421.428
       212.000         148.000
  -7721306.79849  -6000797.54846  23378048.877    23378048.117    23378058.958
       228.000         183.000
   4122995.38749   3204012.89945  25295398.623    25295397.046    25295413.960
       216.000         144.000
    891045.02049    696088.55247  21429211.235    21429209.785    21429218.867
       241.000         203.000
  -7957796.49649  -6187672.30045  24415713.154    24415712.759    24415729.704
       215.000         149.000
  -7777674.71449  -6030469.10747  21878617.163    21878616.829    21878624.784
       240.000         197.000
 01 12  3 16 54 30.0000000  0  8G 1G20G 4G27G25G22G 3G13
  -4310265.07649  -3352070.98347  20659414.071    20659413.136    20659420.746
       241.000         206.000
   2437824.15349   1897438.13347  21569754.717    21569753.241    21569762.095
       243.000         203.000
   -997108.92349   -770884.55045  24949102.857    24949102.000    24949115.288
       216.000         148.000
  -7814159.09749  -6073149.92546  23360379.525    23360378.830    23360389.824
       230.000         184.000
   4173259.86749   3243179.62845  25304964.036    25304962.479    25304979.425
       219.000         151.000
    924463.75149    722129.00747  21435570.697    21435569.242    21435578.376
       241.000         203.000
  -8057111.20049  -6265060.48045  24396814.308    24396813.736    24396830.621
       214.000         149.000
  -7873183.01249  -6104891.16447  21860442.497    21860442.207    21860450.197
       240.000         197.000
 01 12  3 16 55  0.0000000  0  8G 1G20G 4G27G25G22G 3G13
  -4355313.11849  -3387173.38747  20650841.685    20650840.784    20650848.402
       240.000         206.000
   2486660.72149   1935492.45147  21579048.117    21579046.640    21579055.553
       242.000         203.000
   -993104.19849   -767764.15345  24949865.076    24949864.302    24949877.489
       216.000         147.000
  -7906880.29049  -6145400.15346  23342735.292    23342734.564    23342745.597
       232.000         184.000
   4223456.40149   3282293.37545  25314516.390    25314514.823    25314532.011
       215.000         149.000
    958379.48449    748556.73047  21442024.675    21442023.273    21442032.428
       240.000         203.000
  -8156299.95549  -6342350.54745  24377939.355    24377938.669    24377955.504
       214.000         146.000
  -7968566.20549  -6179215.73947  21842291.726    21842291.405    21842299.429
       240.000         197.000
 01 12  3 16 55 30.0000000  0  8G 1G20G 4G27G25G22G 3G13
  -4400092.71749  -3422066.61247  20642320.396    20642319.527    20642327.152
       240.000         206.000
   2535904.12449   1973863.78747  21588418.942    21588417.475    21588426.408
       242.000         203.000
   -988728.41549   -764354.59245  24950697.942    24950697.157    24950710.342
       216.000         147.000
  -7999456.73549  -6217537.62546  23325118.562    23325117.833    23325128.756
       231.000         179.000
   4273597.92849   3321364.32245  25324058.320    25324056.758    25324073.983
       215.000         148.000
    992803.50349    775380.52047  21448575.438    21448574.033    21448583.207
       241.000         202.000
  -8255346.28649  -6419529.60445  24359091.451    24359090.796    24359107.483
       215.000         146.000
  -8063808.69449  -6253430.67047  21824167.688    21824167.365    21824175.381
       241.000         197.000
 01 12  3 16 56  0.0000000  0  8G 1G20G 4G27G25G22G 3G13
  -4444619.91849  -3456763.17047  20633847.153    20633846.294    20633853.925
       240.000         205.000
   2585534.67349   2012536.78947  21597863.415    21597861.974    21597870.964
       241.000         203.000
   -984001.23249   -760671.25745  24951597.590    24951596.846    24951610.062
       215.000         148.000
  -8091905.93849  -6289575.95546  23307526.036    23307525.299    23307536.039
       232.000         181.000
   4323666.88149   3360378.65245  25333586.450    25333584.853    25333602.275
       214.000         152.000
   1027716.07249    802584.98947  21455219.222    21455217.769    21455226.916
       241.000         201.000
  -8354264.21449  -6496608.59545  24340268.013    24340267.304    24340283.906
       215.000         148.000
  -8158926.58249  -6327548.51447  21806067.368    21806067.038    21806075.050
       241.000         197.000
 01 12  3 16 56 30.0000000  0  8G 1G20G 4G27G25G22G 3G13
  -4488895.79749  -3491263.88647  20625421.705    20625420.881    20625428.545
       241.000         206.000
   2635547.64249   2051507.77347  21607380.689    21607379.242    21607388.287
       241.000         202.000
   -978926.64149   -756717.22545  24952563.356    24952562.701    24952575.916
       210.000         147.000
  -8184230.22949  -6361516.93946  23289957.253    23289956.548    23289967.209
       230.000         183.000
   4373660.70949   3399334.50045  25343100.250    25343098.668    25343116.264
       218.000         155.000
   1063112.57049    830166.54347  21461955.104    21461953.590    21461962.681
       241.000         200.000
  -8453052.96049  -6573586.88545  24321469.322    24321468.456    24321484.976
       215.000         148.000
  -8253920.81949  -6401570.00547  21787990.552    21787990.254    21787998.256
       241.000         197.000
 01 12  3 16 57  0.0000000  0  8G 1G20G 4G27G25G22G 3G13
  -4532900.11549  -3525553.00047  20617048.033    20617047.169    20617054.855
       241.000         207.000
   2685959.39949   2090789.50147  21616973.821    21616972.397    21616981.497
       240.000         202.000
   -973488.14749   -752479.61045  24953598.404    24953597.746    24953611.048
       206.000         145.000
  -8276410.96049  -6433346.03446  23272415.714    23272415.073    23272425.843
       231.000         186.000
   4423598.42449   3438246.61845  25352603.470    25352601.817    25352619.599
       213.000         154.000
   1099009.23949    858137.83947  21468786.145    21468784.582    21468793.645
       240.000         200.000
  -8551690.59249  -6650447.41345  24302699.329    24302698.324    24302714.778
       214.000         151.000
  -8348770.94849  -6475479.20847  21769941.160    21769940.865    21769948.882
       241.000         197.000
 01 12  3 16 57 30.0000000  0  8G 1G20G 4G27G25G22G 3G13
  -4576624.81449  -3559624.22747  20608727.591    20608726.682    20608734.378
       241.000         207.000
   2736774.37049   2130385.42247  21626643.742    21626642.282    21626651.422
       241.000         202.000
   -967681.13549   -747954.92845  24954703.633    24954702.824    24954716.311
       206.000         144.000
  -8368441.20349  -6505057.87846  23254902.955    23254902.267    23254913.158
       230.000         186.000
   4473486.53049   3477120.08145  25362097.210    25362095.587    25362113.364
       213.000         151.000
   1135410.53349    886502.33847  21475713.148    21475711.588    21475720.670
       239.000         199.000
  -8650167.38849  -6727182.57745  24283959.717    24283958.820    24283975.335
       213.000         149.000
  -8443468.36649  -6549269.41347  21751920.838    21751920.529    21751928.561
       241.000         197.000
 01 12  3 16 58  0.0000000  0  9G 1G20G 4G27G25G22G 3G31G13
  -4620087.46049  -3593491.26147  20600456.948    20600456.054    20600463.758
       241.000         206.000
   2787971.37449   2170279.03147  21636386.319    21636384.877    21636394.035
       241.000         202.000
   -961526.51549   -743159.33845  24955874.964    24955874.119    24955887.718
       210.000         146.000
  -8460339.99149  -6576667.28346  23237415.204    23237414.497    23237425.444
       231.000         186.000
   4523305.75449   3515939.88145  25371577.927    25371576.198    25371594.006
       215.000         149.000
   1172294.93249    915243.27947  21482732.087    21482730.540    21482739.623
       240.000         199.000
  -8748498.89249  -6803804.48045  24265247.872    24265247.021    24265263.487
       214.000         149.000
   -261086.49253                  25229158.130
       207.000          90.000
  -8538030.43549  -6622954.14447  21733926.277    21733925.982    21733934.002
       240.000         197.000
 01 12  3 16 58 30.0000000  0  9G 1G20G 4G27G25G22G 3G31G13
  -4663275.76649  -3627144.52747  20592238.553    20592237.636    20592245.328
       240.000         206.000
   2839558.58849   2210476.69647  21646203.133    21646201.706    21646210.892
       241.000         202.000
   -955015.74249   -738086.19545  24957114.120    24957113.251    24957126.795
       212.000         145.000
  -8552096.52749  -6648165.86346  23219954.564    23219953.843    23219964.692
       234.000         186.000
   4573066.52149   3554714.12145  25381047.433    25381045.716    25381063.669
       208.000         148.000
   1209670.94849    944367.29147  21489844.610    21489843.066    21489852.135
       240.000         200.000
  -8846671.34449  -6880302.42945  24246566.248    24246565.384    24246581.962
       213.000         149.000
    -72677.12043                  25206815.672
       196.000          74.000
  -8632445.03249  -6696523.96647  21715959.751    21715959.486    21715967.526
       241.000         197.000
 01 12  3 16 59  0.0000000  0  9G 1G20G 4G27G25G22G 3G31G13
  -4706179.73049  -3660576.22647  20584074.196    20584073.304    20584081.017
       241.000         206.000
   2891542.15149   2250983.19747  21656095.403    21656093.965    21656103.155
       242.000         201.000
   -948142.08849   -732730.24445  24958422.228    24958421.406    24958435.077
       212.000         142.000
  -8643702.23549  -6719546.92146  23202522.676    23202521.857    23202532.611
       233.000         185.000
   4622777.49049   3593449.52745  25390507.394    25390505.672    25390523.778
       206.000         139.000
   1247544.58949    973879.05347  21497051.846    21497050.283    21497059.380
       240.000         200.000
  -8944672.97049  -6956667.21045  24227917.083    24227916.227    24227932.875
       214.000         150.000
   -164272.07443                  25184446.800
       195.000          88.000
  -8726701.65049  -6769970.69547  21698023.386    21698023.055    21698031.101
       241.000         197.000
 01 12  3 16 59 30.0000000  0  8G 1G20G 4G27G22G 3G31G13
  -4748797.64149  -3693785.02947  20575964.285    20575963.400    20575971.132
       240.000         206.000
   2943920.30249   2291797.17247  21666062.830    21666061.331    21666070.529
       241.000         201.000
   -940907.31849   -727092.93145  24959799.093    24959798.297    24959812.040
       208.000         136.000
  -8735156.70649  -6790810.12446  23185119.313    23185118.602    23185129.370
       229.000         185.000
   1285914.02549   1003777.14347  21504353.458    21504351.866    21504360.994
       241.000         200.000
  -9042500.14949  -7032896.02945  24209301.069    24209300.325    24209316.956
       213.000         151.000
   -255972.46643                  25162052.033
       198.000          88.000
  -8820798.26349  -6843292.74047  21680117.406    21680117.077    21680125.137
       241.000         197.000
 01 12  3 17  0  0.0000000  0  8G 1G20G 4G27G22G 3G31G13
  -4791140.57249  -3726779.56247  20567906.739    20567905.831    20567913.566
       241.000         206.000
   2996678.21349   2332907.05847  21676102.516    21676100.966    21676110.167
       241.000         200.000
   -933325.71149   -721185.33545  24961241.929    24961241.243    24961255.020
       206.000         138.000
  -8826472.32649  -6861965.12146  23167742.492    23167741.792    23167752.646
       231.000         187.000
   1324764.43849   1034050.01247  21511746.602    21511744.974    21511754.141
       240.000         200.000
  -9140162.24749  -7108996.17945  24190716.498    24190715.853    24190732.517
       214.000         152.000
    -63754.80943                  25139630.059
       199.000          74.000
  -8914745.79849  -6916498.61947  21662239.808    21662239.453    21662247.496
       241.000         197.000
 01 12  3 17  0 30.0000000  0  8G 1G20G 4G27G22G 3G31G13
  -4833203.41049  -3759555.84747  20559902.473    20559901.577    20559909.312
       240.000         206.000
   3049817.02949   2374313.75347  21686214.667    21686213.080    21686222.300
       241.000         200.000
   -925396.05249   -715006.58745  24962751.027    24962750.322    24962764.249
       207.000         143.000
  -8917645.51549  -6933009.12946  23150392.848    23150392.127    23150403.085
       232.000         187.000
   1364096.82449   1064698.44347  21519231.418    21519229.805    21519239.009
       241.000         201.000
  -9237652.45249  -7184962.35745  24172164.591    24172164.054    24172180.732
       213.000         153.000
   -155676.40444                  25117181.467
       198.000         117.000
  -9008538.92249  -6989584.17747  21644391.490    21644391.206    21644399.270
       241.000         197.000
 01 12  3 17  1  0.0000000  0  8G 1G20G 4G27G22G 3G31G13
  -4875000.07949  -3792124.72447  20551948.864    20551947.973    20551955.693
       240.000         206.000
   3103318.96849   2416003.40047  21696395.861    21696394.285    21696403.535
       241.000         200.000
   -917135.64649   -708570.08245  24964323.019    24964322.332    24964336.317
       209.000         149.000
  -9008691.74349  -7003954.21946  23133067.369    23133066.604    23133077.580
       231.000         185.000
   1403893.36849   1095708.56147  21526804.608    21526802.972    21526812.225
       240.000         202.000
  -9334983.30449  -7260804.33845  24153642.997    24153642.484    24153659.226
       214.000         152.000
   -247716.26443                  25094704.124
       202.000          84.000
  -9102191.10249  -7062559.90247  21626570.049    21626569.797    21626577.832
       241.000         197.000
 01 12  3 17  1 30.0000000  0  8G 1G20G 4G27G22G 3G31G13
  -4916501.89149  -3824463.84647  20544051.437    20544050.481    20544058.165
       241.000         206.000
   3157208.86049   2457995.34247  21706650.863    21706649.309    21706658.597
       240.000         200.000
   -908519.51849   -701856.38945  24965962.736    24965962.038    24965976.128
       213.000         151.000
  -9099583.79649  -7074779.19246  23115771.126    23115770.376    23115781.326
       231.000         183.000
   1444178.88849   1127099.68247  21534470.841    21534469.188    21534478.519
       240.000         202.000
  -9432124.53649  -7336498.54945  24135157.430    24135156.992    24135173.758
       211.000         150.000
    -54765.62543                  25072203.669
       204.000          74.000
  -9195673.80149  -7135403.57347  21608780.949    21608780.655    21608788.657
       241.000         197.000
 01 12  3 17  2  0.0000000  0  8G 1G20G 4G27G22G 3G31G13
  -4957715.69249  -3856578.54147  20536208.730    20536207.793    20536215.463
       241.000         206.000
   3211475.98649   2500281.23547  21716977.590    21716976.112    21716985.444
       240.000         199.000
   -899557.75149   -694873.37745  24967668.185    24967667.524    24967681.741
       215.000         152.000
  -9190329.79649  -7145490.35346  23098502.575    23098501.906    23098512.835
       229.000         185.000
   1484942.59549   1158863.42347  21542228.004    21542226.381    21542235.806
       240.000         202.000
  -9529080.74449  -7412048.58845  24116707.135    24116706.707    24116723.466
       213.000         153.000
   -146998.13443                  25049679.331
       197.000          91.000
  -9288993.52549  -7208120.24047  21591022.814    21591022.508    21591030.493
       242.000         197.000
 01 12  3 17  2 30.0000000  0  8G 1G20G 4G27G22G 3G31G13
  -4998645.70949  -3888472.11147  20528420.113    20528419.135    20528426.778
       242.000         206.000
   3266112.55149   2542855.00047  21727374.672    21727373.219    21727382.582
       241.000         199.000
   -890258.27549   -687627.19545  24969437.930    24969437.289    24969451.570
       213.000         152.000
  -9280935.29949  -7216092.02247  23081260.882    23081260.241    23081271.217
       233.000         188.000
   1526176.68349   1190993.68847  21550074.702    21550073.081    21550082.598
       239.000         201.000
  -9625854.31649  -7487456.32345  24098291.586    24098291.184    24098307.958
       212.000         153.000
   -239331.88343                  25027130.315
       206.000          85.000
  -9382153.64049  -7280712.54047  21573295.067    21573294.759    21573302.714
       243.000         197.000
 01 12  3 17  3  0.0000000  0  8G 1G20G 4G27G22G 3G31G13
  -5039280.89449  -3920135.94147  20520687.578    20520686.588    20520694.198
       241.000         206.000
   3321125.87649   2585722.34247  21737843.504    21737842.048    21737851.410
       241.000         199.000
   -880613.55449   -680111.99145  24971273.415    24971272.743    24971287.116
       214.000         151.000
  -9371390.87249  -7286576.87547  23064047.937    23064047.168    23064058.151
       234.000         189.000
   1567888.05849   1223495.87147  21558012.247    21558010.626    21558020.187
       240.000         201.000
  -9722432.69149  -7562711.97845  24079913.095    24079912.781    24079929.640
       212.000         155.000
    -45696.57143                  25004559.317
       204.000          74.000
  -9475142.56049  -7353171.44847  21555599.882    21555599.557    21555607.486
       243.000         196.000
 01 12  3 17  3 30.0000000  0  8G 1G20G 4G27G22G 3G31G13
  -5079639.75549  -3951584.45847  20513007.590    20513006.599    20513014.225
       241.000         206.000
   3376493.25849   2628865.57547  21748379.718    21748378.251    21748387.619
       240.000         198.000
   -870645.79649   -672345.07445  24973170.422    24973169.682    24973184.099
       213.000         151.000
  -9461716.40249  -7356960.40046  23046859.561    23046858.786    23046869.743
       232.000         186.000
   1610054.29049   1256352.49647  21566036.382    21566034.738    21566044.362
       239.000         201.000
  -9818832.79449  -7637828.75245  24061568.603    24061568.334    24061585.213
       213.000         155.000
   -138225.51944                  24981962.582
       200.000         123.000
  -9567979.34949  -7425511.81147  21537933.576    21537933.287    21537941.221
       242.000         197.000
 01 12  3 17  4  0.0000000  0  8G 1G20G 4G27G22G 3G31G13
  -5119690.85149  -3982793.15347  20505386.157    20505385.182    20505392.814
       241.000         207.000
   3432242.20549   2672306.13147  21758988.492    21758987.031    21758996.432
       240.000         197.000
   -860327.14149   -664304.72545  24975134.096    24975133.421    24975147.899
       214.000         150.000
  -9551881.91149  -7427219.23046  23029701.588    23029700.822    23029711.762
       232.000         186.000
   1652702.81749   1289584.93847  21574152.256    21574150.612    21574160.304
       239.000         201.000
  -9915021.52049  -7712780.84045  24043264.441    24043264.143    24043281.016
       214.000         157.000
  -1776118.40449   -230833.66345  24959346.569    24959344.582    24959367.042
       203.000         134.000
  -9660632.11349  -7497708.77147  21520302.345    21520302.073    21520309.982
       242.000         197.000
 01 12  3 17  4 30.0000000  0  8G 1G20G 4G27G22G 3G31G13
  -5159452.52849  -4013776.33647  20497819.837    20497818.831    20497826.476
       241.000         207.000
   3488350.64549   2716026.80547  21769665.690    21769664.224    21769673.645
       239.000         196.000
   -849679.40349   -656007.95445  24977160.478    24977159.750    24977174.271
       212.000         148.000
  -9641906.96349  -7497368.63346  23012570.391    23012569.605    23012580.486
       232.000         186.000
   1695811.54949   1323175.97847  21582355.693    21582354.057    21582363.812
       239.000         200.000
 -10011015.32449  -7787581.07745  24024997.328    24024996.992    24025013.850
       214.000         158.000
  -1895083.02149   -323533.36445  24936708.443    24936708.617    24936727.458
       201.000         136.000
  -9753118.57849  -7569776.16247  21502702.816    21502702.502    21502710.400
       243.000         198.000
 01 12  3 17  5  0.0000000  0  8G 1G20G 4G27G22G 3G31G13
  -5198922.20349  -4044531.97947  20490309.038    20490308.051    20490315.696
       241.000         207.000
   3544817.17349   2760026.51447  21780411.013    21780409.568    21780418.996
       239.000         195.000
   -838703.69549   -647455.61345  24979249.255    24979248.478    24979263.072
       212.000         147.000
  -9731790.50749  -7567407.75646  22995466.095    22995465.366    22995476.174
       233.000         187.000
   1739379.01249   1357124.48547  21590646.405    21590644.788    21590654.595
       237.000         200.000
 -10106809.89749  -7862226.10545  24006768.165    24006767.771    24006784.558
       217.000         158.000
  -2014161.32159   -416321.62255  24914048.657    24914046.826    24914068.178
       201.000         133.000
  -9845436.11549  -7641711.90947  21485135.480    21485135.084    21485142.983
       242.000         198.000
 01 12  3 17  5 30.0000000  0  8G 1G20G 4G27G22G 3G31G13
  -5238085.01049  -4075048.50747  20482856.639    20482855.647    20482863.327
       241.000         207.000
   3601652.75149   2804313.79547  21791226.587    21791225.151    21791234.585
       239.000         195.000
   -827388.59349   -638638.80345  24981402.485    24981401.778    24981416.433
       212.000         149.000
  -9821519.14249  -7637326.17647  22978391.387    22978390.583    22978401.389
       233.000         188.000
   1783416.04249   1391438.89847  21599026.470    21599024.867    21599034.721
       238.000         200.000
 -10202388.88849  -7936703.19645  23988580.054    23988579.613    23988596.369
       215.000         160.000
  -2133336.81249   -509185.57244  24891370.270    24891368.049    24891388.884
       204.000         131.000
  -9937569.47749  -7713504.14147  21467603.041    21467602.686    21467610.599
       242.000         198.000
 01 12  3 17  6  0.0000000  0  8G 1G20G 4G27G22G 3G31G13
  -5276974.27549  -4105351.89147  20475456.288    20475455.317    20475463.022
       241.000         207.000
   3658820.28249   2848859.73847  21802105.352    21802103.919    21802113.346
       239.000         194.000
   -815771.22049   -629586.45945  24983613.275    24983612.622    24983627.318
       211.000         145.000
  -9911127.56549  -7707150.91647  22961339.359    22961338.640    22961349.530
       233.000         190.000
   1827885.64549   1426090.38547  21607488.881    21607487.282    21607497.183
       238.000         199.000
 -10297783.66849  -8011036.76645  23970426.940    23970426.516    23970443.228
       214.000         157.000
  -2252640.94349   -602149.54645  24868667.431    24868665.807    24868686.568
       207.000         137.000
 -10029551.49449  -7785178.44047  21450099.422    21450099.090    21450107.006
       242.000         198.000
 01 12  3 17  6 30.0000000  0  8G 1G20G 4G27G22G 3G31G13
  -5315554.27149  -4135414.28347  20468114.828    20468113.837    20468121.556
       241.000         207.000
   3716351.53049   2893689.09547  21813053.290    21813051.890    21813061.327
       238.000         194.000
   -803819.46749   -620273.56945  24985887.749    24985887.054    24985901.863
       213.000         147.000
 -10000581.53049  -7776855.30447  22944316.947    22944316.129    22944327.097
       234.000         190.000
   1872819.36749   1461103.53347  21616039.622    21616038.001    21616047.989
       238.000         199.000
 -10392956.66749  -8085197.57345  23952316.103    23952315.610    23952332.299
       213.000         159.000
  -2372036.80749   -695185.02645  24845947.222    24845945.757    24845966.366
       204.000         135.000
 -10121346.11049  -7856706.72147  21432631.476    21432631.144    21432639.102
       242.000         197.000
 01 12  3 17  6 59.9990000  0  8G 1G20G 4G27G22G 3G31G13
  -5353814.47749  -4165227.48647  20460834.209    20460833.213    20460840.970
       241.000         207.000
   3774249.95749   2938804.57247  21824071.115    21824069.723    21824079.200
       238.000         193.000
   -791528.05349   -610696.00545  24988226.899    24988226.154    24988240.951
       215.000         148.000
 -10089870.02349  -7846430.75447  22927325.954    22927325.133    22927336.075
       235.000         190.000
   1918221.12849   1496481.39847  21624679.414    21624677.781    21624687.833
       237.000         198.000
 -10487893.80449  -8159174.60645  23934250.074    23934249.587    23934266.253
       212.000         156.000
  -2491509.70149   -788280.44645  24823212.098    24823210.804    24823231.245
       203.000         133.000
 -10212940.51149  -7928078.99347  21415201.623    21415201.290    21415209.285
       241.000         197.000
 01 12  3 17  7 29.9990000  0  8G 1G20G 4G27G22G 3G31G13
  -5391783.99849  -4194814.18647  20453608.864    20453607.912    20453615.704
       241.000         208.000
   3832489.09749   2984185.53247  21835153.761    21835152.393    21835161.880
       238.000         193.000
   -778926.16249   -600876.49545  24990625.131    24990624.355    24990639.085
       217.000         152.000
 -10179027.05749  -7915903.77847  22910359.885    22910359.148    22910369.996
       234.000         189.000
   1964063.55249   1532202.63047  21633402.958    21633401.394    21633411.530
       237.000         198.000
 -10582626.04349  -8232992.00245  23916222.935    23916222.518    23916239.182
       212.000         157.000
  -2611092.33049   -881461.32145  24800456.124    24800454.987    24800475.295
       202.000         132.000
 -10304366.93449  -7999320.37247  21397803.726    21397803.418    21397811.429
       241.000         197.000
 01 12  3 17  7 59.9990000  0  8G 1G20G 4G27G22G 3G31G13
  -5429445.05149  -4224160.52647  20446442.250    20446441.297    20446449.152
       241.000         208.000
   3891079.17349   3029839.94347  21846303.271    21846301.849    21846311.346
       239.000         193.000
   -766001.67549   -590805.61745  24993084.797    24993083.970    24993098.637
       220.000         155.000
 -10268034.90749  -7985260.56547  22893422.292    22893421.482    22893432.371
       232.000         189.000
   2010357.11949   1568275.40947  21642212.396    21642210.875    21642221.063
       237.000         197.000
 -10677132.19949  -8306633.25545  23898238.975    23898238.500    23898255.167
       211.000         156.000
  -2730763.10349   -974710.90545  24777683.396    24777682.292    24777702.557
       210.000         140.000
 -10395605.71949  -8070415.54247  21380441.586    21380441.244    21380449.259
       241.000         197.000
 01 12  3 17  8 29.9990000  0  8G 1G20G 4G27G22G 3G31G13
  -5466801.15649  -4253269.23547  20439333.686    20439332.718    20439340.628
       241.000         207.000
   3950012.91549   3075762.15247  21857518.175    21857516.705    21857526.201
       239.000         193.000
   -752761.90249   -580489.06945  24995604.428    24995603.615    24995618.176
       219.000         155.000
 -10356898.48049  -8054504.89447  22876511.970    22876511.246    22876522.271
       234.000         190.000
   2057094.44249   1604693.97547  21651106.222    21651104.781    21651115.032
       236.000         197.000
 -10771414.17549  -8380099.82045  23880297.650    23880297.168    23880313.816
       214.000         157.000
  -2850523.89449  -1068030.45945  24754893.514    24754892.490    24754912.852
       209.000         139.000
 -10486659.87349  -8141366.84047  21363114.485    21363114.203    21363122.211
       241.000         197.000
 01 12  3 17  8 59.9990000  0  8G 1G20G 4G27G22G 3G31G13
  -5503849.11449  -4282137.83547  20432283.741    20432282.772    20432290.714
       241.000         207.000
   4009289.65549   3121951.62347  21868798.307    21868796.847    21868806.328
       238.000         193.000
   -739207.00049   -569926.97045  24998184.014    24998183.137    24998197.733
       218.000         155.000
 -10445615.84749  -8123635.32147  22859629.780    22859628.939    22859639.971
       236.000         191.000
   2104274.90849   1641457.83547  21660084.452    21660083.018    21660093.333
       237.000         197.000
 -10865466.84149  -8453387.69945  23862400.025    23862399.593    23862416.166
       215.000         158.000
  -2970369.95949  -1161416.54145  24732087.193    24732086.357    24732106.745
       206.000         137.000
 -10577525.85549  -8212171.51547  21345823.289    21345823.001    21345830.992
       241.000         197.000
 01 12  3 17  9 29.9990000  0  9G 1G20G 4G27G22G 3G31G 8G13
  -5540579.57749  -4310759.04047  20425294.229    20425293.237    20425301.223
       241.000         207.000
   4068914.55749   3168412.39147  21880144.698    21880143.221    21880152.751
       239.000         194.000
   -725331.61049   -559115.13445  25000824.518    25000823.648    25000838.284
       217.000         155.000
 -10534179.19949  -8192645.73547  22842776.860    22842775.932    22842786.920
       235.000         189.000
   2151903.76549   1678571.09647  21669147.989    21669146.579    21669156.932
       236.000         196.000
 -10959279.04949  -8526488.18245  23844548.242    23844547.748    23844564.259
       216.000         159.000
  -3090290.48649  -1254860.71745  24709266.862    24709266.088    24709286.385
       207.000         134.000
   -267918.55259   -186797.17955  24945110.877    24945108.137    24945125.020
       216.000         154.000
 -10668194.17749  -8282822.17247  21328569.709    21328569.399    21328577.369
       241.000         197.000
 01 12  3 17  9 59.9990000  0  9G 1G20G 4G27G22G 3G31G 8G13
  -5576995.01749  -4339134.75947  20418364.634    20418363.661    20418371.653
       241.000         207.000
   4128881.24249   3215139.48047  21891556.178    21891554.656    21891564.251
       239.000         194.000
   -711141.65449   -548058.20045  25003524.840    25003524.051    25003538.658
       214.000         150.000
 -10622592.29649  -8261539.06547  22825952.417    22825951.500    22825962.416
       236.000         188.000
   2199974.62549   1716028.77047  21678295.703    21678294.263    21678304.658
       237.000         197.000
 -11052851.56849  -8599401.86745  23826742.193    23826741.552    23826758.013
       216.000         160.000
  -3210286.13049  -1348363.29245  24686432.141    24686431.407    24686451.829
       205.000         140.000
   -384099.82159   -277328.00955  24923002.167    24923001.529    24923017.969
       208.000         149.000
 -10758666.74649  -8353320.28647  21311353.328    21311353.041    21311361.003
       242.000         198.000
 01 12  3 17 10 29.9990000  0  9G 1G20G 4G27G22G 3G31G 8G13
  -5613100.10749  -4367268.65347  20411494.101    20411493.130    20411501.145
       241.000         207.000
   4189181.38949   3262126.41147  21903031.036    21903029.557    21903039.201
       239.000         194.000
   -696645.43549   -536762.61645  25006283.463    25006282.766    25006297.357
       214.000         151.000
 -10710861.22149  -8330320.04847  22809155.397    22809154.487    22809165.349
       235.000         190.000
   2248478.73349   1753824.04347  21687525.851    21687524.390    21687534.806
       236.000         196.000
 -11146187.27849  -8672130.98445  23808981.170    23808980.427    23808996.812
       217.000         160.000
  -3330360.02149  -1441926.93845  24663582.470    24663581.899    24663602.229
       207.000         140.000
   -500191.59849   -367789.07445  24900910.568    24900909.657    24900926.911
       212.000         147.000
 -10848947.19449  -8423668.70147  21294173.586    21294173.243    21294181.226
       242.000         199.000
 01 12  3 17 10 59.9990000  0  9G 1G20G 4G27G22G 3G31G 8G13
  -5648881.18049  -4395150.06247  20404685.217    20404684.261    20404692.313
       241.000         208.000
   4249824.75049   3309380.78547  21914571.224    21914569.772    21914579.438
       238.000         194.000
   -681833.28249   -525220.83345  25009102.287    25009101.559    25009116.197
       213.000         149.000
 -10798973.64349  -8398979.07047  22792388.126    22792387.268    22792398.174
       237.000         192.000
   2297425.81449   1791964.47047  21696840.272    21696838.825    21696849.272
       236.000         196.000
 -11239270.89149  -8744663.60245  23791268.038    23791267.252    23791283.581
       217.000         158.000
  -3450496.89749  -1535539.65645  24640720.975    24640720.348    24640740.600
       209.000         138.000
   -616180.98149   -458170.41245  24878838.611    24878837.799    24878854.864
       217.000         157.000
 -10939021.59049  -8493856.55747  21277033.024    21277032.680    21277040.639
       241.000         199.000
 01 12  3 17 11 29.9990000  0  9G 1G20G 4G27G22G 3G31G 8G13
  -5684355.15049  -4422792.16947  20397934.804    20397933.837    20397941.929
       240.000         208.000
   4310790.24749   3356886.17447  21926172.739    21926171.275    21926181.003
       238.000         193.000
   -666725.55349   -513448.73345  25011977.346    25011976.572    25011991.291
       213.000         149.000
 -10886947.83849  -8467530.37747  22775647.138    22775646.379    22775657.273
       235.000         191.000
   2346794.79249   1830433.63447  21706235.011    21706233.532    21706244.027
       236.000         196.000
 -11332117.61049  -8817011.59045  23773599.865    23773599.063    23773615.410
       217.000         157.000
  -3570712.00949  -1629213.33545  24617844.454    24617843.887    24617864.118
       209.000         140.000
   -732085.96449   -548485.94445  24856782.578    24856781.749    24856798.683
       215.000         150.000
 -11028906.80949  -8563896.99647  21259928.376    21259928.093    21259936.077
       241.000         200.000
 01 12  3 17 11 59.9990000  0  9G 1G20G 4G27G22G 3G31G 8G13
  -5719529.68449  -4450200.94647  20391241.309    20391240.379    20391248.509
       241.000         208.000
   4372066.03449   3404633.34747  21937833.294    21937831.804    21937841.609
       238.000         193.000
   -651333.71349   -501455.27645  25014906.432    25014905.678    25014920.461
       213.000         150.000
 -10974793.02249  -8535981.16647  22758930.819    22758929.973    22758940.846
       235.000         190.000
   2396574.04249   1869222.49047  21715707.942    21715706.339    21715716.850
       237.000         196.000
 -11424733.42449  -8889179.60445  23755975.605    23755974.837    23755991.168
       216.000         157.000
  -3691011.46149  -1722952.78345  24594951.947    24594951.414    24594971.610
       208.000         141.000
   -847915.30549   -638742.62645  24834740.848    24834739.968    24834756.925
       206.000         139.000
 -11118609.95449  -8633795.56247  21242858.476    21242858.179    21242866.158
       242.000         200.000
 01 12  3 17 12 29.9990000  0  9G 1G20G 4G27G22G 3G31G 8G13
  -5754385.55049  -4477361.40647  20384608.510    20384607.571    20384615.736
       241.000         209.000
   4433667.67149   3452634.42047  21949555.822    21949554.336    21949564.249
       237.000         193.000
   -635642.27949   -489228.34245  25017892.536    25017891.743    25017906.612
       214.000         149.000
 -11062491.48349  -8604317.61647  22742242.286    22742241.495    22742252.311
       234.000         190.000
   2446778.61349   1908342.75647  21725261.685    21725260.081    21725270.627
       236.000         195.000
 -11517097.24049  -8961151.23245  23738399.374    23738398.554    23738414.867
       218.000         156.000
  -3811374.57049  -1816741.88545  24572047.367    24572046.805    24572066.853
       208.000         139.000
   -963650.20349   -728925.65045  24812717.228    24812716.344    24812733.287
       216.000         156.000
 -11208111.20549  -8703536.79747  21225826.981    21225826.665    21225834.690
       242.000         201.000
 01 12  3 17 12 59.9990000  0  9G 1G20G 4G27G22G 3G31G 8G13
  -5788944.39749  -4504290.42747  20378032.278    20378031.285    20378039.483
       241.000         209.000
   4495569.47349   3500869.38547  21961335.488    21961334.012    21961344.020
       238.000         193.000
   -619676.43649   -476787.58745  25020930.862    25020930.083    25020944.959
       213.000         148.000
 -11150066.19649  -8672557.62947  22725577.356    22725576.561    22725587.380
       236.000         192.000
   2497383.03149   1947774.58747  21734891.517    21734889.908    21734900.473
       236.000         195.000
 -11609229.11449  -9032942.12745  23720867.269    23720866.389    23720882.633
       218.000         156.000
  -3931821.24849  -1910596.13745  24549126.662    24549126.213    24549146.177
       202.000         136.000
  -1079313.49249   -819052.90545  24790707.252    24790706.344    24790723.345
       208.000         157.000
 -11297431.94349  -8773137.37647  21208829.822    21208829.516    21208837.568
       243.000         201.000
 01 12  3 17 13 29.9990000  0  9G 1G20G 4G27G22G 3G31G 8G13
  -5823201.63349  -4530984.41747  20371513.380    20371512.399    20371520.637
       241.000         209.000
   4557772.06149   3549338.73547  21973172.437    21973170.918    21973180.999
       237.000         193.000
   -603435.63649   -464132.58445  25024021.449    25024020.725    25024035.640
       210.000         148.000
 -11237514.10949  -8740698.83547  22708936.536    22708935.769    22708946.611
       235.000         192.000
   2548387.86349   1987518.43147  21744597.565    21744595.935    21744606.504
       236.000         195.000
 -11701122.70949  -9104547.34245  23703380.417    23703379.595    23703395.751
       218.000         156.000
  -4052345.04449  -2004510.48445  24526191.427    24526191.042    24526210.977
       210.000         141.000
  -1194901.58849   -909121.47545  24768711.402    24768710.563    24768727.709
       207.000         147.000
 -11386567.13549  -8842593.37247  21191868.065    21191867.681    21191875.747
       243.000         202.000
 01 12  3 17 13 59.9990000  0  9G 1G20G 4G27G22G 3G31G 8G13
  -5857156.28449  -4557442.62547  20365052.063    20365051.086    20365059.357
       241.000         208.000
   4620272.17549   3598039.91347  21985065.918    21985064.447    21985074.601
       237.000         193.000
   -586922.56149   -451265.41545  25027163.857    25027163.147    25027178.130
       208.000         145.000
 -11324835.71149  -8808741.60347  22692319.720    22692318.984    22692329.872
       235.000         192.000
   2599789.89249   2027571.76947  21754379.203    21754377.552    21754388.120
       236.000         195.000
 -11792775.37849  -9175964.79745  23685939.444    23685938.622    23685954.657
       219.000         157.000
  -4172943.49549  -2098483.02445  24503242.162    24503241.775    24503261.549
       209.000         141.000
  -1310414.30049   -999131.46945  24746730.078    24746729.192    24746746.299
       214.000         147.000
 -11475515.13249  -8911903.50347  21174941.798    21174941.454    21174949.533
       242.000         202.000
 01 12  3 17 14 29.9990000  0  9G 1G20G 4G27G22G 3G31G 8G13
  -5890804.14849  -4583661.77647  20358649.104    20358648.145    20358656.455
       240.000         208.000
   4683070.11349   3646973.17447  21997016.091    21997014.628    21997024.887
       235.000         192.000
   -570136.65049   -438185.66945  25030358.144    25030357.536    25030372.565
       209.000         146.000
 -11412028.19449  -8876683.77547  22675727.558    22675726.803    22675737.671
       234.000         192.000
   2651589.24349   2067934.69547  21764236.454    21764234.770    21764245.365
       236.000         194.000
 -11884181.23549  -9247189.91245  23668545.303    23668544.607    23668560.586
       219.000         160.000
  -4293610.68549  -2192509.18745  24480279.806    24480279.396    24480298.959
       209.000         143.000
  -1425848.28449  -1089080.28245  24724763.922    24724762.937    24724779.738
       217.000         146.000
 -11564271.31449  -8981064.15647  21158052.022    21158051.701    21158059.824
       242.000         202.000
 01 12  3 17 14 59.9990000  0  9G 1G20G 4G27G22G 3G31G 8G13
  -5924131.85149  -4609631.44647  20352307.046    20352306.113    20352314.457
       240.000         208.000
   4746175.48149   3696145.98447  22009024.766    22009023.308    22009033.664
       236.000         193.000
   -553068.28949   -424885.81445  25033606.260    25033605.694    25033620.830
       210.000         146.000
 -11499079.35549  -8944515.82047  22659162.281    22659161.532    22659172.384
       234.000         193.000
   2703795.42249   2108614.63547  21774171.113    21774169.402    21774180.030
       235.000         194.000
 -11975324.99149  -9318210.77445  23651201.123    23651200.425    23651216.457
       218.000         162.000
  -4414331.30649  -2286577.05345  24457307.248    24457306.798    24457326.158
       209.000         146.000
  -1541191.06449  -1178957.82745  24702814.980    24702813.960    24702830.834
       207.000         154.000
 -11652821.70849  -9050064.46347  21141201.451    21141201.124    21141209.244
       242.000         202.000
 01 12  3 17 15 29.9990000  0  9G 1G20G 4G27G22G 3G31G 8G13
  -5957141.54649  -4635353.32247  20346025.488    20346024.585    20346032.950
       240.000         207.000
   4809582.05849   3745553.50147  22021090.801    22021089.307    22021099.763
       236.000         192.000
   -535723.49249   -411370.57345  25036907.059    25036906.467    25036921.691
       210.000         147.000
 -11585992.96649  -9012240.69647  22642623.110    22642622.399    22642633.265
       235.000         193.000
   2756402.22949   2149606.74147  21784181.960    21784180.272    21784190.926
       235.000         193.000
 -12066207.41249  -9389028.00046  23633906.696    23633906.003    23633922.020
       219.000         163.000
  -4535105.88649  -2380686.88345  24434324.416    24434323.957    24434343.276
       208.000         144.000
  -1656445.64449  -1268766.62746  24680882.701    24680881.715    24680898.747
       217.000         163.000
 -11741167.95649  -9118905.70147  21124389.694    21124389.388    21124397.488
       242.000         201.000
 01 12  3 17 15 59.9990000  0  9G 1G20G 4G27G22G 3G31G 8G13
  -5989830.55849  -4660825.31447  20339805.009    20339804.089    20339812.499
       240.000         208.000
   4873288.53749   3795194.71047  22033213.886    22033212.386    22033222.928
       236.000         192.000
   -518103.29749   -397640.71545  25040260.189    25040259.580    25040274.859
       210.000         147.000
 -11672767.78349  -9079857.41147  22626110.407    22626109.676    22626120.575
       235.000         193.000
   2809408.16049   2190909.85447  21794268.801    21794267.104    21794277.777
       235.000         193.000
 -12156823.93549  -9459638.03545  23616662.839    23616662.159    23616678.175
       218.000         161.000
  -4655930.01349  -2474835.41345  24411332.027    24411331.655    24411350.913
       211.000         143.000
  -1771610.30549  -1358505.44845  24658967.720    24658966.708    24658983.706
       217.000         159.000
 -11829307.14849  -9187585.58747  21107617.408    21107617.058    21107625.124
       242.000         202.000
 01 12  3 17 16 29.9990000  0  9G 1G20G 4G27G22G 3G31G 8G13
  -6022193.72049  -4686043.39547  20333646.478    20333645.603    20333654.045
       240.000         208.000
   4937296.10849   3845070.54147  22045394.220    22045392.753    22045403.378
       236.000         191.000
   -500206.02949   -383694.96745  25043666.034    25043665.416    25043680.869
       210.000         148.000
 -11759399.90049  -9147362.92947  22609624.875    22609624.108    22609635.051
       235.000         192.000
   2862814.42949   2232524.92047  21804431.858    21804430.118    21804440.815
       234.000         192.000
 -12247167.55549  -9530035.41845  23599470.736    23599470.162    23599486.257
       216.000         160.000
  -4776796.68049  -2569017.07845  24388331.776    24388331.293    24388350.435
       211.000         147.000
  -1886680.70949  -1448170.90644  24637070.386    24637069.461    24637086.447
       203.000         127.000
 -11917233.11949  -9256099.32247  21090885.631    21090885.316    21090893.350
       243.000         202.000
 01 12  3 17 16 59.9990000  0  9G 1G20G 4G27G22G 3G31G 8G13
  -6054225.21349  -4711003.03147  20327551.114    20327550.230    20327558.679
       240.000         207.000
   5001606.41949   3895182.27147  22057632.217    22057630.730    22057641.470
       236.000         191.000
   -482029.75249   -369531.83145  25047124.949    25047124.396    25047139.889
       212.000         149.000
 -11845884.85549  -9214753.80647  22593167.361    22593166.561    22593177.427
       236.000         191.000
   2916622.82649   2274453.33547  21814671.339    21814669.643    21814680.395
       234.000         193.000
 -12337230.89449  -9600214.39845  23582332.046    23582331.539    23582347.656
       218.000         162.000
  -4897698.15649  -2663225.93645  24365324.833    24365324.378    24365343.377
       206.000         151.000
  -2001651.72149  -1537758.78045  24615192.216    24615191.213    24615208.218
       216.000         157.000
 -12004939.62749  -9324442.04747  21074195.631    21074195.320    21074203.363
       242.000         202.000
 01 12  3 17 17 29.9990000  0  9G 1G20G 4G27G22G 3G31G 8G13
  -6085929.75149  -4735707.89547  20321517.980    20321517.083    20321525.548
       240.000         207.000
   5066210.86249   3945523.19147  22069926.211    22069924.701    22069935.522
       235.000         190.000
   -463583.24449   -355158.09145  25050635.327    25050634.732    25050650.307
       210.000         146.000
 -11932228.84249  -9282034.82247  22576736.631    22576735.816    22576746.651
       236.000         192.000
   2970824.59149   2316688.25847  21824985.705    21824984.032    21824994.843
       235.000         193.000
 -12427016.91649  -9670177.29845  23565246.114    23565245.672    23565261.811
       217.000         159.000
  -5018637.43249  -2757464.24445  24342310.784    24342310.358    24342329.277
       206.000         146.000
  -2116529.14749  -1627273.75845  24593332.128    24593330.866    24593347.889
       214.000         158.000
 -12092430.86049  -9392617.03047  21057546.572    21057546.287    21057554.310
       242.000         202.000
 01 12  3 17 17 59.9990000  0  9G 1G20G 4G27G22G 3G31G 8G13
  -6117311.76049  -4760161.43747  20315546.199    20315545.312    20315553.798
       240.000         208.000
   5131101.28249   3996086.95647  22082274.571    22082273.097    22082283.966
       235.000         190.000
   -444874.28549   -340579.87445  25054195.710    25054195.084    25054210.668
       213.000         148.000
 -12018437.58749  -9349210.45247  22560331.697    22560330.842    22560341.721
       236.000         194.000
   3025411.53749   2359223.31747  21835373.407    21835371.717    21835382.615
       235.000         193.000
 -12516528.22549  -9739926.13645  23548212.387    23548212.058    23548228.197
       218.000         159.000
  -5139617.21749  -2851734.18045  24319288.971    24319288.472    24319307.360
       209.000         148.000
  -2231318.20749  -1716719.78445  24571488.602    24571487.323    24571504.482
       222.000         160.000
 -12179710.53649  -9460627.16347  21040937.818    21040937.522    21040945.527
       243.000         202.000
 01 12  3 17 18 29.9990000  0  9G 1G20G 4G27G22G 3G31G 8G13
  -6148362.66649  -4784356.97147  20309637.468    20309636.538    20309645.062
       240.000         208.000
   5196282.08149   4046876.97747  22094678.191    22094676.735    22094687.682
       235.000         189.000
   -425898.13349   -325793.44645  25057806.895    25057806.263    25057821.895
       211.000         149.000
 -12104503.96149  -9416275.14447  22543953.882    22543952.984    22543963.882
       236.000         194.000
   3080387.95649   2402061.87247  21845835.251    21845833.511    21845844.456
       233.000         192.000
 -12605754.52549  -9809452.89845  23531233.023    23531232.700    23531248.771
       219.000         160.000
  -5260627.20049  -2946027.62045  24296261.489    24296260.888    24296279.868
       209.000         153.000
  -2346011.21349  -1806091.11945  24549663.387    24549662.157    24549679.215
       214.000         153.000
 -12266769.66349  -9528465.45247  21024371.050    21024370.744    21024378.736
       244.000         203.000
 01 12  3 17 18 59.9990000  0  9G 1G20G 4G27G22G 3G31G 8G13
  -6179081.41549  -4808293.68847  20303791.892    20303790.982    20303799.536
       240.000         208.000
   5261750.35049   4097890.99647  22107136.544    22107135.066    22107146.092
       235.000         189.000
   -406657.56049   -310800.97645  25061468.444    25061467.760    25061483.402
       214.000         152.000
 -12190428.37049  -9483229.21947  22527602.965    22527602.103    22527612.980
       235.000         192.000
   3135750.77449   2445201.52547  21856370.659    21856368.869    21856379.860
       234.000         191.000
 -12694693.11649  -9878755.47145  23514308.407    23514308.116    23514324.128
       219.000         160.000
  -5381664.55849  -3040342.43545  24273228.792    24273228.178    24273247.147
       209.000         152.000
  -2460608.18249  -1895387.45145  24527856.017    24527855.114    24527872.064
       215.000         140.000
 -12353606.67749  -9596130.66447  21007846.548    21007846.226    21007854.192
       243.000         203.000
 01 12  3 17 19 29.9990000  0  9G 1G20G 4G27G22G 3G31G 8G13
  -6209468.38949  -4831971.87547  20298009.475    20298008.560    20298017.127
       240.000         208.000
   5327501.78049   4149125.67647  22119648.767    22119647.286    22119658.389
       234.000         189.000
   -387157.00949   -295605.94045  25065179.408    25065178.696    25065194.407
       212.000         150.000
 -12276212.61949  -9550074.07547  22511278.682    22511277.852    22511288.751
       234.000         193.000
   3191495.73749   2488638.95647  21866978.722    21866976.962    21866987.973
       234.000         191.000
 -12783342.72049  -9947832.85245  23497438.816    23497438.539    23497454.437
       218.000         161.000
  -5502727.84949  -3134677.50645  24250191.242    24250190.503    24250209.480
       212.000         154.000
  -2575109.97749  -1984609.86445  24506067.345    24506066.361    24506083.090
       224.000         161.000
 -12440221.26149  -9663622.55047  20991364.335    20991364.032    20991371.956
       243.000         203.000
 01 12  3 17 19 59.9990000  0 10G 1G20G 2G 4G27G22G 3G31G 8G13
  -6239518.29249  -4855387.41747  20292291.255    20292290.290    20292298.845
       241.000         208.000
   5393537.43949   4200581.80947  22132215.133    22132213.608    22132224.752
       235.000         189.000
   -248278.05155                  24799136.511                    24799157.687
       208.000         147.000
   -367394.66049   -280206.90145  25068940.170    25068939.515    25068955.251
       213.000         155.000
 -12361852.63349  -9616806.52947  22494981.772    22494981.075    22494992.048
       235.000         194.000
   3247623.87749   2532374.96347  21877659.723    21877657.944    21877669.008
       235.000         191.000
 -12871696.57649 -10016679.79945  23480625.482    23480625.187    23480641.012
       218.000         161.000
  -5623809.85149  -3229027.23645  24227150.062    24227149.283    24227168.237
       209.000         149.000
  -2689512.86249  -2073754.98845  24484297.305    24484296.302    24484313.117
       207.000         156.000
 -12526607.63249  -9730936.61247  20974925.590    20974925.274    20974933.169
       243.000         203.000
 01 12  3 17 20 29.9990000  0 10G 1G20G 2G 4G27G22G 3G31G 8G13
  -6269224.40749  -4878535.07347  20286638.390    20286637.450    20286645.958
       240.000         207.000
   5459860.23149   4252261.69547  22144836.142    22144834.584    22144845.766
       235.000         189.000
   -477342.56249   -349049.48345  24774526.546    24774523.698    24774546.941
       208.000         144.000
   -347367.69049   -264601.64245  25072751.332    25072750.693    25072766.441
       213.000         155.000
 -12447342.99949  -9683422.39347  22478713.521    22478712.805    22478723.750
       234.000         192.000
   3304138.11249   2576411.81647  21888414.207    21888412.421    21888423.511
       235.000         191.000
 -12959746.05549 -10085289.57545  23463870.110    23463869.783    23463885.523
       219.000         161.000
  -5744901.66049  -3323384.59745  24204106.908    24204106.233    24204125.188
       210.000         149.000
  -2803810.54449  -2162817.99045  24462547.106    24462546.090    24462563.266
       217.000         158.000
 -12612758.33449  -9798067.02147  20958531.672    20958531.356    20958539.245
       243.000         203.000
 01 12  3 17 20 59.9990000  0 10G 1G20G 2G 4G27G22G 3G31G 8G13
  -6298595.69049  -4901421.82547  20281049.249    20281048.292    20281056.818
       240.000         207.000
   5526457.19849   4304155.22247  22157509.326    22157507.721    22157518.932
       235.000         188.000
   -606584.06059   -449756.63755  24749932.308    24749930.150    24749953.782
       210.000         144.000
   -327088.59549   -248799.95145  25076610.525    25076609.853    25076625.621
       216.000         159.000
 -12532693.98349  -9749929.64047  22462471.714    22462471.001    22462481.898
       233.000         191.000
   3361025.40449   2620739.38147  21899239.709    21899237.904    21899249.013
       234.000         192.000
 -13047498.25649 -10153667.72445  23447171.175    23447170.917    23447186.636
       218.000         162.000
  -5866010.47249  -3417755.19345  24181060.769    24181059.913    24181078.938
       214.000         149.000
                  -2251806.89545  24440815.411
       225.000         144.000
 -12698681.74649  -9865020.32747  20942181.003    20942180.686    20942188.547
       243.000         203.000
 01 12  3 17 21 29.9990000  0 10G 1G20G 2G 4G27G22G 3G31G 8G13
  -6327623.65349  -4924041.05647  20275525.476    20275524.487    20275533.003
       241.000         207.000
   5593332.83049   4356265.88447  22170235.494    22170233.895    22170245.112
       234.000         188.000
   -735734.00949   -550392.36145  24725355.783    24725353.952    24725376.424
       206.000         145.000
   -306552.84449   -232798.25845  25080518.522    25080517.801    25080533.655
       215.000         159.000
 -12617898.52549  -9816322.77047  22446257.802    22446257.105    22446268.003
       235.000         194.000
   3418290.20349   2665361.10947  21910137.061    21910135.229    21910146.371
       235.000         192.000
 -13134943.08249 -10221806.36646  23430530.849    23430530.611    23430546.289
       219.000         163.000
  -5987126.00649  -3512131.05845  24158013.361    24158012.398    24158031.431
       213.000         153.000
  -3032111.81349  -2340715.41945  24419103.105    24419101.964    24419118.786
       214.000         156.000
 -12784368.67649  -9931789.36247  20925875.384    20925875.026    20925882.869
       243.000         203.000
 01 12  3 17 21 59.9990000  0 10G 1G20G 2G 4G27G22G 3G31G 8G13
  -6356329.37349  -4946409.19347  20270063.011    20270062.019    20270070.502
       241.000         208.000
   5660461.85849   4408574.00046  22183009.959    22183008.309    22183019.538
       234.000         187.000
   -864812.72949   -650972.58345  24700792.814    24700790.854    24700813.469
       217.000         155.000
   -285785.34949   -216615.99345  25084470.660    25084469.917    25084485.808
       215.000         159.000
 -12702979.43949  -9882619.56647  22430067.492    22430066.743    22430077.633
       234.000         192.000
   3475907.05849   2710257.15847  21921101.382    21921099.540    21921110.686
       235.000         192.000
 -13222100.28049 -10289720.90046  23413945.245    23413945.014    23413960.646
       220.000         164.000
  -6108267.57749  -3606527.26045  24134960.956    24134959.946    24134978.875
       213.000         152.000
  -3146130.31549  -2429560.94445  24397406.138    24397404.969    24397422.047
       217.000         161.000
 -12869839.72349  -9998390.17947  20909610.779    20909610.432    20909618.261
       243.000         202.000
 01 12  3 17 22 29.9990000  0  9G 1G20G 2G27G22G 3G31G 8G13
  -6384711.78849  -4968525.40547  20264662.035    20264661.065    20264669.570
       241.000         208.000
   5727841.31049   4461077.23946  22195831.999    22195830.396    22195841.613
       235.000         187.000
   -993818.64349   -751496.14945  24676243.365    24676241.570    24676264.295
       209.000         138.000
 -12787936.87349  -9948820.14747  22413900.523    22413899.839    22413910.698
       236.000         193.000
   3533873.42149   2755425.55047  21932132.135    21932130.324    21932141.532
       234.000         193.000
 -13308966.86649 -10357408.99346  23397415.070    23397414.713    23397430.273
       223.000         164.000
  -6229432.16749  -3700941.34345  24111904.356    24111903.229    24111922.105
       218.000         155.000
  -3260067.59149  -2518343.19845  24375724.561    24375723.407    24375740.724
       210.000         156.000
 -12955092.96049 -10064821.27247  20893387.609    20893387.278    20893395.120
       243.000         203.000
 01 12  3 17 22 59.9990000  0  9G 1G20G 2G27G22G 3G31G 8G13
  -6412761.97649  -4990382.74047  20259324.288    20259323.321    20259331.853
       240.000         208.000
   5795476.29949   4513779.60546  22208702.621    22208701.077    22208712.318
       234.000         186.000
  -1122741.78849   -851955.11045  24651709.798    24651708.069    24651731.147
       210.000         151.000
 -12872763.15349 -10014918.52847  22397758.717    22397757.970    22397768.827
       237.000         196.000
   3592194.00949   2800869.96247  21943230.379    21943228.535    21943239.830
       233.000         191.000
 -13395532.10649 -10424862.30346  23380942.177    23380941.783    23380957.245
       221.000         164.000
  -6350608.83649  -3795364.81145  24088845.346    24088844.143    24088862.976
       218.000         152.000
  -3373915.63449  -2607056.00845  24354060.065    24354058.898    24354076.209
       225.000         154.000
 -13040118.94249 -10131075.28347  20877207.692    20877207.371    20877215.230
       242.000         202.000
 01 12  3 17 23 29.9990000  0  9G 1G20G 2G27G22G 3G31G 8G13
  -6440475.48649  -5011977.73647  20254050.609    20254049.646    20254058.202
       241.000         208.000
   5863367.12949   4566681.32446  22221621.936    22221620.431    22221631.713
       234.000         187.000
  -1251577.14248   -952345.91145  24627192.899    24627191.442    24627214.568
       190.000         147.000
 -12957455.35249 -10080912.42247  22381642.272    22381641.555    22381652.494
       234.000         193.000
   3650869.13149   2846590.63347  21954396.012    21954394.191    21954405.534
       234.000         191.000
 -13481790.02449 -10492076.16546  23364527.668    23364527.333    23364542.739
       222.000         163.000
  -6471791.12149  -3889792.65645  24065785.251    24065784.049    24065802.727
       214.000         150.000
  -3487670.86649  -2695696.50745  24332413.351    24332412.100    24332429.283
       210.000         146.000
 -13124912.68049 -10197148.32447  20861071.932    20861071.642    20861079.511
       242.000         202.000
 01 12  3 17 23 59.9990000  0  9G 1G20G 2G27G22G 3G31G 8G13
  -6467846.82049  -5033306.09947  20248842.015    20248841.088    20248849.671
       241.000         207.000
   5931515.62549   4619783.82146  22234590.260    22234588.802    22234600.149
       233.000         186.000
  -1380318.02149  -1052662.97745  24602693.945                    24602692.593
       203.000         138.000
 -13042008.80849 -10146798.22347  22365552.259    22365551.554    22365562.437
       237.000         194.000
   3709900.68649   2892589.04047  21965629.460    21965627.681    21965639.114
       234.000         190.000
 -13567733.29549 -10559044.85445  23348173.051    23348172.746    23348188.105
       220.000         162.000
  -6592971.46849  -3984218.83945  24042725.422    24042724.223    24042742.972
       216.000         152.000
  -3601328.68149  -2784260.85445  24310784.623    24310783.570    24310801.003
       219.000         157.000
 -13209467.63049 -10263035.29347  20844981.636    20844981.356    20844989.232
       243.000         202.000
 01 12  3 17 24 29.9990000  0  9G 1G20G 2G27G22G 3G31G 8G13
  -6494870.09149  -5054363.24647  20243699.721    20243698.759    20243707.357
       241.000         208.000
   5999923.74849   4673088.62246  22247608.056    22247606.596    22247618.010
       234.000         186.000
  -1508958.28049  -1152901.48845  24578214.148    24578213.007    24578236.071
       203.000         151.000
 -13126419.18649 -10212572.55447  22349489.615    22349488.855    22349499.612
       234.000         194.000
   3769290.23149   2938866.40047  21976931.047    21976929.279    21976940.787
       232.000         190.000
 -13653354.41649 -10625762.52845  23331879.731    23331879.478    23331894.800
       219.000         162.000
  -6714142.13449  -4078637.47645  24019667.538    24019666.205    24019684.944
       217.000         151.000
  -3714883.80049  -2872745.33146  24289176.030    24289174.895    24289192.240
       222.000         166.000
 -13293777.45049 -10328731.24847  20828938.005    20828937.710    20828945.590
       242.000         202.000
 01 12  3 17 24 59.9990000  0  9G 1G20G 2G27G22G 3G31G 8G13
  -6521539.12249  -5075144.36147  20238624.816    20238623.851    20238632.421
       241.000         207.000
   6068593.46349   4726597.26046  22260675.716    22260674.180    22260685.638
       234.000         185.000
  -1637490.73449  -1253056.13545  24553754.695    24553753.848    24553777.003
       214.000         153.000
 -13210681.76449 -10278231.67447  22333454.827    22333454.114    22333465.032
       234.000         195.000
   3829040.01749   2985424.47047  21988301.152    21988299.419    21988311.025
       234.000         190.000
 -13738645.47449 -10692223.01546  23315649.264    23315649.022    23315664.259
       220.000         163.000
  -6835294.88649  -4173042.04545  23996612.813    23996611.621    23996630.459
       211.000         151.000
  -3828331.32549  -2961145.82445  24267587.706    24267586.576    24267604.062
       214.000         155.000
 -13377835.30449 -10394230.87147  20812942.368    20812942.040    20812949.885
       242.000         201.000
 01 12  3 17 25 29.9990000  0  9G 1G20G 2G27G22G 3G31G 8G13
  -6547871.51149  -5095663.16247  20233613.944    20233613.010    20233621.573
       241.000         207.000
   6137503.14049   4780292.87946  22273788.959    22273787.412    22273798.921
       233.000         184.000
  -1765932.13849  -1353140.00845  24529312.643    24529312.001    24529335.118
       209.000         149.000
 -13294815.46649 -10343790.40047  22317444.880    22317444.037    22317454.959
       237.000         196.000
   3889128.51849   3032246.48647  21999735.753    21999734.023    21999745.687
       234.000         190.000
 -13823622.39149 -10758438.73746  23299478.611    23299478.334    23299493.466
       220.000         165.000
  -6956445.41249  -4267444.83245  23973558.559    23973557.438    23973576.217
       213.000         153.000
  -3941689.57649  -3049476.87845  24246016.192    24246015.207    24246032.485
       218.000         151.000
 -13461657.88649 -10459547.15947  20796991.441    20796991.128    20796998.950
       242.000         202.000
 01 12  3 17 25 59.9990000  0  9G 1G20G 2G27G22G 3G31G 8G13
  -6573860.32449  -5115914.24247  20228668.495    20228667.555    20228676.098
       241.000         207.000
   6206655.97649   4834177.97346  22286948.500    22286946.929    22286958.486
       232.000         185.000
  -1894275.00149  -1453146.86945  24504889.122    24504888.767    24504911.982
       211.000         151.000
 -13378814.70849 -10409244.36747  22301460.435    22301459.548    22301470.362
       236.000         193.000
   3949558.57649   3079334.63747  22011235.319    22011233.628    22011245.420
       233.000         190.000
 -13908276.76349 -10824403.12846  23283369.406    23283369.072    23283384.149
       220.000         167.000
  -7077584.87349  -4361838.89545  23950506.234    23950505.271    23950524.157
       212.000         151.000
  -4054952.35049  -3137733.40446  24224463.105    24224462.048    24224479.344
       218.000         165.000
 -13545237.62249 -10524674.21747  20781086.757    20781086.436    20781094.229
       243.000         202.000
 01 12  3 17 26 29.9990000  0  9G 1G20G 2G27G22G 3G31G 8G13
  -6599488.76149  -5135884.50347  20223791.608    20223790.660    20223799.175
       241.000         207.000
   6276064.56949   4888262.35546  22300156.703    22300155.130    22300166.737
       231.000         184.000
  -2022501.66949  -1553063.35945  24480488.140    24480487.802    24480511.029
       217.000         146.000
 -13462663.90749 -10474581.40847  22285504.371    22285503.529    22285514.319
       236.000         194.000
   4010343.00349   3126698.94147  22022802.413    22022800.681    22022812.511
       233.000         188.000
 -13992590.08449 -10890101.76346  23267325.097    23267324.714    23267339.711
       221.000         167.000
  -7198694.34249  -4456209.56945  23927459.731    23927458.866    23927477.689
       210.000         148.000
  -4168103.86549  -3225903.14445  24202930.840    24202929.899    24202947.453
       209.000         150.000
 -13628557.04549 -10589598.42847  20765231.585    20765231.285    20765239.043
       242.000         202.000
 01 12  3 17 26 59.9990000  0  9G 1G20G 2G27G22G 3G31G 8G13
  -6624754.05649  -5155571.79947  20218983.813    20218982.871    20218991.384
       241.000         207.000
   6345727.82649   4942545.17746  22313413.400    22313411.787    22313423.421
       233.000         184.000
  -2150608.68749  -1652886.63445  24456109.930    24456109.573    24456132.547
       214.000         151.000
 -13546361.61249 -10539800.40047  22269577.305    22269576.409    22269587.215
       236.000         195.000
   4071480.44749   3174338.31647  22034436.619    22034434.880    22034446.766
       233.000         188.000
 -14076557.62749 -10955530.99946  23251346.642    23251346.168    23251361.146
       220.000         168.000
  -7319769.11349  -4550553.14645  23904419.816    23904418.948    23904437.809
       213.000         153.000
  -4281142.15849  -3313984.83445  24181420.298    24181419.389    24181436.792
       215.000         151.000
 -13711612.73149 -10654317.12947  20749426.628    20749426.316    20749434.049
       243.000         202.000
 01 12  3 17 27 29.9990000  0  9G 1G20G 2G27G22G 3G31G 8G13
  -6649655.40849  -5174975.50447  20214245.251    20214244.333    20214252.830
       241.000         206.000
   6415642.45649   4997023.87246  22326717.912    22326716.285    22326727.942
       233.000         183.000
  -2278594.59449  -1752615.52345  24431754.693    24431754.350    24431777.209
       216.000         152.000
 -13629908.25549 -10604901.68847  22253678.825    22253677.996    22253688.778
       235.000         192.000
   4132967.84649   3222250.38146  22046137.423    22046135.666    22046147.644
       232.000         187.000
 -14160177.09249 -11020689.01246  23235434.324    23235433.856    23235448.809
       219.000         167.000
  -7440806.45649  -4644867.58445  23881386.886    23881386.185    23881405.117
       207.000         151.000
  -4394067.37349  -3401978.32845  24159931.226    24159930.378    24159947.735
       218.000         160.000
 -13794403.05649 -10718829.04747  20733672.137    20733671.830    20733679.522
       243.000         202.000
 01 12  3 17 27 59.9990000  0  9G 1G20G 2G27G22G 3G31G 8G13
  -6674216.57149  -5194114.11947  20209571.484    20209570.551    20209579.022
       242.000         207.000
   6485780.98349   5051677.03746  22340065.023    22340063.403    22340075.091
       230.000         182.000
  -2406482.14149  -1852267.81245  24407418.227    24407417.916    24407440.611
       216.000         152.000
 -13713328.70949 -10669904.63647  22237804.383    22237803.588    22237814.384
       237.000         195.000
   4194777.58949   3270413.65446  22057899.627    22057897.820    22057909.836
       232.000         186.000
 -14243470.37549 -11085592.88246  23219584.104    23219583.600    23219598.570
       221.000         167.000
  -7561827.61549  -4739169.37845  23858357.087    23858356.412    23858375.301
       213.000         151.000
  -4506903.94649  -3489902.73045  24138459.026    24138458.215    24138475.619
       214.000         158.000
 -13876950.99449 -10783152.09547  20717963.753    20717963.476    20717971.125
       243.000         202.000
 01 12  3 17 28 29.9990000  0  9G 1G20G 2G27G22G 3G31G 8G13
  -6698412.95449  -5212968.49047  20204967.173    20204966.200    20204974.622
       241.000         207.000
   6556163.82549   5106520.56946  22353458.622    22353456.979    22353468.708
       232.000         182.000
  -2534246.16249  -1951823.85245  24383105.186    24383104.935    24383127.433
       218.000         144.000
 -13796599.90049 -10734791.26747  22221958.503    22221957.659    22221968.459
       237.000         196.000
   4256930.24149   3318844.12246  22069727.053    22069725.232    22069737.275
       233.000         187.000
 -14326411.27249 -11150222.18346  23203800.854    23203800.429    23203815.328
       222.000         166.000
  -7682806.35749  -4833438.14545  23835335.222    23835334.750    23835353.522
       211.000         151.000
  -4619628.25249  -3577739.76645  24117008.376    24117007.429    24117024.654
       218.000         158.000
 -13959231.25049 -10847266.55347  20702306.318    20702306.062    20702313.687
       242.000         202.000
 01 12  3 17 28 59.9990000  0  9G 1G20G 2G27G22G 3G31G 8G13
  -6722253.81849  -5231545.84047  20200430.458    20200429.476    20200437.903
       241.000         207.000
   6626777.82449   5161544.22946  22366896.146    22366894.547    22366906.313
       231.000         182.000
  -2661895.06549  -2051290.24845  24358814.195    24358813.927    24358836.269
       216.000         156.000
 -13879732.24049 -10799569.69747  22206138.894    22206138.044    22206148.904
       235.000         194.000
   4319412.46549   3367531.39847  22081617.267    22081615.382    22081627.463
       232.000         188.000
 -14409007.38749 -11214582.82446  23188083.263    23188082.866    23188097.720
       221.000         168.000
  -7803749.43549  -4927679.13045  23812320.353    23812319.848    23812338.482
       215.000         154.000
  -4732250.34349  -3665497.05045  24095576.816    24095576.022    24095593.300
       218.000         161.000
 -14041252.05649 -10911178.84947  20686698.280    20686698.009    20686705.630
       242.000         203.000
 01 12  3 17 29 29.9990000  0  9G 1G20G 2G27G22G 3G31G 8G13
  -6745732.55749  -5249841.00647  20195962.656    20195961.677    20195970.087
       241.000         207.000
   6697625.73049   5216750.15946  22380378.253    22380376.634    22380388.428
       230.000         180.000
  -2789421.56549  -2150661.22045  24334546.494    24334546.156    24334568.445
       216.000         152.000
 -13962720.56749 -10864235.92647  22190346.735    22190345.906    22190356.707
       237.000         196.000
   4382227.05149   3416477.66146  22093570.683    22093568.769    22093580.912
       233.000         187.000
 -14491250.85049 -11278668.70246  23172432.930    23172432.432    23172447.243
       221.000         169.000
  -7924648.67149  -5021885.90945  23789313.560    23789313.264    23789331.976
       209.000         149.000
  -4844764.52149  -3753170.29245  24074165.964    24074165.191    24074182.422
       219.000         160.000
 -14123006.20749 -10974883.35647  20671140.928    20671140.690    20671148.359
       242.000         203.000
 01 12  3 17 29 59.9990000  0  9G 1G20G 2G27G22G 3G31G 8G13
  -6768872.24249  -5267871.98247  20191559.361    20191558.402    20191566.804
       242.000         207.000
   6768680.27449   5272117.09146  22393899.693    22393898.029    22393909.882
       230.000         180.000
  -2916847.85349  -2249954.23045  24310297.752    24310297.496    24310319.492
       216.000         150.000
 -14045589.26749 -10928808.91947  22174577.335    22174576.503    22174587.358
       236.000         197.000
   4445346.79449   3465661.69947  22105582.155    22105580.216    22105592.411
       232.000         188.000
 -14573163.01049 -11342496.42546  23156845.546    23156845.016    23156859.823
       222.000         168.000
  -8045524.80749  -5116074.76145  23766311.471    23766311.111    23766329.806
       212.000         152.000
  -4957194.69149  -3840778.09645  24052771.266    24052770.419    24052787.533
       219.000         162.000
 -14204516.15849 -11038397.58547  20655630.136    20655629.870    20655637.544
       242.000         204.000
 01 12  3 17 30 29.9990000  0  9G 1G20G 2G27G22G 3G31G 8G13
  -6791662.48649  -5285630.66447  20187222.529    20187221.611    20187230.010
       241.000         208.000
   6839948.13849   5327650.25646  22407461.707    22407460.018    22407471.964
       231.000         180.000
  -3044162.64249  -2349160.25145  24286070.399    24286070.067    24286091.950
       216.000         155.000
 -14128329.19749 -10993281.56547  22158832.439    22158831.600    22158842.536
       236.000         196.000
   4508778.16449   3515088.58046  22117652.874    22117650.976    22117663.178
       231.000         186.000
 -14654731.66849 -11406056.49346  23141323.605    23141323.010    23141337.791
       222.000         169.000
  -8166365.34649  -5210235.88445  23743315.912    23743315.673    23743334.287
       209.000         147.000
  -5069531.29549  -3928312.98445  24031394.349    24031393.413    24031410.563
       219.000         162.000
 -14285770.75849 -11101712.83447  20640167.894    20640167.612    20640175.332
       242.000         204.000
 01 12  3 17 30 59.9990000  0  9G 1G20G 2G27G22G 3G31G 8G13
  -6814083.31849  -5303101.48847  20182956.009    20182955.109    20182963.540
       242.000         208.000
   6911445.24549   5383362.05146  22421067.303    22421065.638    22421077.622
       231.000         180.000
  -3171345.43149  -2448263.38545  24261867.953    24261867.615    24261889.464
       212.000         148.000
 -14210921.58349 -11057639.24347  22143115.609    22143114.797    22143125.721
       237.000         195.000
   4572537.26849   3564770.82247  22129785.990    22129784.061    22129796.364
       232.000         188.000
 -14735935.65849 -11469332.42046  23125871.005    23125870.402    23125885.166
       224.000         169.000
  -8287148.28749  -5304352.12645  23720331.471    23720331.207    23720349.763
       210.000         149.000
  -5181755.44049  -4015760.31845  24010038.656    24010037.753    24010054.821
       215.000         154.000
 -14366749.07249 -11164812.80547  20624758.240    20624757.957    20624765.685
       243.000         204.000
 01 12  3 17 31 29.9990000  0  9G 1G20G 2G27G22G 3G31G 8G13
  -6836147.67949  -5320294.54047  20178757.372    20178756.442    20178764.900
       241.000         208.000
   6983154.88849   5439239.44946  22434713.309    22434711.697    22434723.727
       232.000         180.000
  -3298407.94949  -2547272.87245  24237688.678    24237688.333    24237709.927
       214.000         150.000
 -14293380.50349 -11121892.92147  22127424.221    22127423.385    22127434.237
       237.000         195.000
   4636607.25949   3614695.30246  22141978.205    22141976.299    22141988.691
       231.000         187.000
 -14816785.80649 -11532332.62646  23110485.867    23110485.165    23110499.890
       223.000         169.000
  -8407884.57049  -5398432.03945  23697355.906    23697355.659    23697374.131
       212.000         148.000
  -5293880.47849  -4103130.38345  23988701.837    23988700.969    23988718.017
       220.000         160.000
 -14447463.08749 -11227706.83147  20609398.893    20609398.605    20609406.313
       243.000         205.000
 01 12  3 17 31 59.9990000  0  9G 1G20G 2G27G22G 3G31G 8G13
  -6857857.06149  -5337210.98647  20174626.197    20174625.307    20174633.806
       241.000         208.000
   7055071.25649   5495277.95446  22448398.646    22448397.100    22448409.176
       231.000         181.000
  -3425351.42049  -2646189.61445  24213531.499    24213531.359    24213552.739
       211.000         147.000
 -14375708.84649 -11186044.83247  22111757.626    22111756.817    22111767.640
       237.000         196.000
   4700982.49249   3664857.64246  22154228.578    22154226.645    22154239.078
       231.000         186.000
 -14897282.05149 -11595057.04046  23095167.989    23095167.284    23095182.001
       223.000         169.000
  -8528573.29249  -5492474.88945  23674389.445    23674389.105    23674407.532
       213.000         153.000
  -5405908.98649  -4190425.21445  23967383.426    23967382.607    23967399.733
       220.000         160.000
 -14527913.75549 -11290395.64947  20594089.671    20594089.357    20594097.059
       243.000         205.000
 01 12  3 17 32 29.9980000  0  9G 1G20G 2G27G22G 3G31G 8G13
  -6879211.51149  -5353850.86047  20170562.637    20170561.721    20170570.245
       242.000         208.000
   7127187.52949   5551472.20846  22462122.071    22462120.556    22462132.679
       231.000         180.000
  -3552170.96749  -2745009.70845  24189398.375    24189398.173    24189419.663
       214.000         155.000
 -14457905.60949 -11250094.22847  22096116.126    22096115.307    22096126.079
       238.000         195.000
   4765656.33149   3715252.64546  22166535.605    22166533.767    22166546.274
       230.000         184.000
 -14977420.52349 -11657502.66346  23079918.133    23079917.395    23079932.151
       225.000         168.000
  -8649209.08649  -5586476.51645  23651432.988    23651432.654    23651450.950
       214.000         150.000
  -5517838.56149  -4277643.03445  23946083.763    23946083.008    23946100.021
       217.000         149.000
 -14608097.90249 -11352876.79147  20578831.130    20578830.819    20578838.507
       243.000         205.000
 01 12  3 17 32 59.9980000  0  9G 1G20G 2G27G22G 3G31G 8G13
  -6900216.30749  -5370218.26947  20166565.584    20166564.676    20166573.209
       241.000         208.000
   7199500.92049   5607820.07046  22475883.093    22475881.518    22475893.687
       231.000         181.000
  -3678878.50249  -2843742.67845  24165286.464    24165286.277    24165307.594
       208.000         141.000
 -14539981.33149 -11314049.29947  22080497.578    22080496.791    22080507.512
       237.000         196.000
   4830625.41549   3765877.70346  22178898.910    22178897.089    22178909.620
       231.000         185.000
 -15057208.92349 -11719675.48446  23064734.901    23064734.165    23064748.940
       223.000         166.000
  -8769801.36249  -5680444.22945  23628484.891    23628484.500    23628502.700
       213.000         153.000
  -5629681.40149  -4364793.23845  23924800.665    23924799.927    23924816.957
       219.000         158.000
 -14688024.03849 -11415156.89247  20563621.697    20563621.386    20563629.049
       243.000         205.000
 01 12  3 17 33 29.9980000  0  9G 1G20G 2G27G22G 3G31G 8G13
  -6920874.46349  -5386315.57447  20162634.485    20162633.587    20162642.164
       242.000         208.000
   7272001.13249   5664313.51246  22489679.518    22489678.016    22489690.247
       229.000         180.000
  -3805472.68049  -2942387.20345  24141196.005    24141195.874    24141217.274
       213.000         155.000
 -14621938.53849 -11377912.01047  22064901.635    22064900.849    22064911.558
       238.000         197.000
   4895879.90149   3816725.12446  22191316.536    22191314.723    22191327.306
       231.000         184.000
 -15136647.03649 -11781575.30046  23049618.385    23049617.565    23049632.393
       223.000         167.000
  -8890347.63549  -5774376.09745  23605545.461    23605545.112    23605563.171
       212.000         152.000
  -5741438.30349  -4451876.48045  23903533.998    23903533.287    23903550.281
       219.000         155.000
 -14767692.43349 -11477236.15647  20548461.261    20548460.987    20548468.668
       242.000         205.000
 01 12  3 17 33 59.9980000  0  9G 1G20G 2G27G22G 3G31G 8G13
  -6941150.67349  -5402115.25547  20158776.102    20158775.192    20158783.786
       242.000         208.000
   7344719.71849   5720977.10846  22503517.422    22503516.057    22503528.357
       228.000         180.000
  -3931917.56049  -3040915.45445  24117133.913    24117133.966    24117155.229
       212.000         148.000
 -14703743.09049 -11441655.76047  22049334.780    22049333.948    22049344.664
       238.000         197.000
   4961451.06049   3867819.30146  22203794.412    22203792.622    22203805.255
       229.000         184.000
 -15215697.79549 -11843173.26146  23034575.606    23034574.718    23034589.594
       224.000         169.000
  -9010810.44549  -5868242.89245  23582621.808    23582621.535    23582639.539
       213.000         154.000
  -5853074.82949  -4538865.90045  23882290.083    23882289.411    23882306.296
       221.000         155.000
 -14847066.95849 -11539086.43347  20533356.737    20533356.486    20533364.212
       242.000         205.000
 01 12  3 17 34 29.9980000  0  9G 1G20G 2G27G22G 3G31G 8G13
  -6961064.57649  -5417632.61347  20154986.665    20154985.749    20154994.355
       241.000         208.000
   7417633.23449   5777792.58546  22517392.530    22517391.165    22517403.541
       229.000         178.000
  -4058231.61749  -3139341.73545  24093096.981    24093097.006    24093118.169
       210.000         152.000
 -14785415.82549 -11505296.79647  22033792.907    22033792.116    22033802.845
       238.000         197.000
   5027315.76849   3919142.20846  22216328.149    22216326.375    22216339.065
       230.000         183.000
 -15294378.83149 -11904483.06446  23019603.141    23019602.248    23019617.161
       226.000         171.000
  -9131207.15049  -5962058.20245  23559710.706    23559710.508    23559728.438
       215.000         155.000
  -5964611.25249  -4625777.33945  23861065.404    23861064.687    23861081.528
       215.000         159.000
 -14926166.16349 -11600722.17147  20518304.697    20518304.406    20518312.155
       242.000         205.000
 01 12  3 17 34 59.9980000  0  9G 1G20G 2G27G22G 3G31G 8G13
  -6980608.66849  -5432861.81147  20151267.556    20151266.665    20151275.291
       241.000         208.000
   7490745.35849   5834762.83846  22531305.501    22531304.091    22531316.550
       228.000         179.000
  -4184406.51549  -3237659.55645  24069086.436    24069086.406    24069107.571
       210.000         149.000
 -14866950.22249 -11568830.03247  22018277.353    22018276.618    22018287.336
       238.000         198.000
   5093477.51649   3970696.58546  22228918.521    22228916.687    22228929.325
       230.000         183.000
 -15372681.00449 -11965497.59246  23004702.634    23004701.832    23004716.850
       224.000         171.000
  -9251528.05449  -6055814.45145  23536814.261    23536813.941    23536831.806
       217.000         159.000
  -6076040.75949  -4712605.39245  23839861.037    23839860.284    23839877.114
       220.000         160.000
 -15004981.70149 -11662136.86647  20503306.576    20503306.290    20503314.056
       242.000         205.000
 01 12  3 17 35 29.9980000  0  9G 1G20G 2G27G22G 3G31G 8G13
  -6999787.10249  -5447806.08347  20147618.058    20147617.159    20147625.798
       242.000         208.000
   7564047.84549   5891881.41546  22545254.662    22545253.250    22545265.797
       228.000         178.000
  -4310445.73249  -3335871.65945  24045101.850    24045101.832    24045122.674
       212.000         156.000
 -14948351.65049 -11632259.64447  22002787.072    22002786.402    22002797.175
       237.000         197.000
   5159928.09649   4022475.99746  22241563.798    22241561.949    22241574.615
       230.000         183.000
 -15450607.06449 -12026219.01246  22989873.758    22989872.987    22989888.048
       224.000         172.000
  -9371775.24449  -6149513.22445  23513931.756    23513931.471    23513949.256
       214.000         160.000
  -6187368.59849  -4799354.24645  23818675.964    23818675.245    23818692.010
       216.000         155.000
 -15083516.98149 -11723333.18447  20488361.744    20488361.491    20488369.277
       242.000         205.000
 01 12  3 17 35 59.9980000  0  9G 1G20G 2G27G22G 3G31G 8G13
  -7018595.95049  -5462462.36347  20144038.863    20144037.986    20144046.649
       241.000         208.000
   7637540.96349   5949148.54946  22559240.104    22559238.705    22559251.319
       226.000         178.000
  -4436344.59149  -3433974.30645  24021143.828    24021143.858    24021164.631
       215.000         150.000
 -15029617.43949 -11695583.58247  21987322.690    21987322.016    21987332.775
       239.000         198.000
   5226667.75149   4074480.66346  22254264.115    22254262.250    22254274.868
       229.000         181.000
 -15528151.52049 -12086643.03146  22975117.348    22975116.712    22975131.856
       223.000         170.000
  -9491942.43149  -6243149.63445  23491064.375    23491064.160    23491081.871
       219.000         161.000
  -6298591.43049  -4886021.23245  23797510.883    23797510.179    23797526.916
       219.000         162.000
 -15161767.17949 -11784307.36147  20473471.150    20473470.949    20473478.760
       242.000         205.000
 01 12  3 17 36 29.9980000  0  9G 1G20G 2G27G22G 3G31G 8G13
  -7037041.34149  -5476835.42747  20140528.852    20140527.971    20140536.650
       241.000         208.000
   7711214.51649   6006556.26146  22573259.905    22573258.490    22573271.200
       227.000         177.000
  -4562108.06449  -3531971.46145  23997211.704    23997211.605    23997232.342
       217.000         152.000
 -15110754.69849 -11758807.36247  21971882.799    21971882.087    21971892.788
       238.000         197.000
   5293686.36849   4126702.68246  22267017.448    22267015.628    22267028.244
       230.000         180.000
 -15605318.97849 -12146773.26146  22960432.721    22960432.157    22960447.339
       223.000         170.000
  -9612033.22549  -6336726.52945  23468211.754    23468211.453    23468229.041
       218.000         162.000
  -6409716.15749  -4972611.77345  23776364.357    23776363.751    23776380.506
       216.000         159.000
 -15239737.24049 -11845063.24547  20458633.894    20458633.703    20458641.548
       241.000         205.000
 01 12  3 17 36 59.9980000  0  9G 1G20G 2G27G22G 3G31G 8G13
  -7055109.11649  -5490914.24747  20137090.669    20137089.813    20137098.509
       241.000         207.000
   7785079.08049   6064112.82246  22587316.075    22587314.631    22587327.395
       227.000         177.000
  -4687721.42649  -3629851.56145  23973307.977    23973307.902    23973328.648
       211.000         156.000
 -15191750.41749 -11821920.84047  21956469.722    21956469.039    21956479.820
       238.000         198.000
   5360994.51049   4179150.33046  22279825.938    22279824.142    22279836.755
       230.000         182.000
 -15682093.54649 -12206597.31946  22945822.832    22945822.312    22945837.558
       224.000         170.000
  -9732031.21249  -6430231.08246  23445376.627    23445376.369    23445393.934
       219.000         164.000
  -6520729.42349  -5059115.45645  23755239.092    23755238.535    23755255.249
       214.000         155.000
 -15317412.19949 -11905589.18847  20443852.862    20443852.644    20443860.464
       242.000         205.000
 01 12  3 17 37 29.9980000  0  9G 1G20G 2G27G22G 3G31G 8G13
  -7072809.04249  -5504706.43347  20133722.495    20133721.621    20133730.350
       241.000         207.000
   7859120.84849   6121807.45646  22601405.932    22601404.502    22601417.265
       229.000         176.000
  -4813193.69349  -3727621.68645  23949431.193    23949431.027    23949451.879
       218.000         157.000
 -15272615.55449 -11884932.58047  21941081.502    21941080.881    21941091.646
       238.000         197.000
   5428578.58349   4231812.97346  22292686.911    22292685.131    22292697.739
       230.000         181.000
 -15758483.46949 -12266121.65546  22931286.214    22931285.721    22931300.946
       224.000         169.000
  -9851944.01149  -6523669.29946  23422557.827    23422557.516    23422575.011
       217.000         163.000
  -6631641.54349  -5145540.33846  23734133.145    23734132.558    23734149.298
       220.000         164.000
 -15394800.86749 -11965892.03447  20429126.282    20429126.081    20429133.880
       242.000         205.000
 01 12  3 17 37 59.9980000  0  9G 1G20G 2G27G22G 3G31G 8G13
  -7090137.11549  -5518208.86247  20130425.087    20130424.201    20130432.966
       241.000         207.000
   7933340.09149   6179640.40146  22615529.640    22615528.177    22615540.893
       228.000         175.000
  -4938519.73249  -3825277.82645  23925582.064    23925581.974    23925602.835
       213.000         156.000
 -15353347.16149 -11947840.28147  21925718.740    21925718.113    21925728.874
       238.000         198.000
   5496438.74449   4284690.75146  22305600.452    22305598.680    22305611.312
       228.000         179.000
 -15834483.14449 -12325341.89446  22916823.821    22916823.331    22916838.548
       223.000         167.000
  -9971765.22049  -6617036.13546  23399756.338    23399756.074    23399773.451
       218.000         164.000
  -6742449.64049  -5231884.14346  23713047.040    23713046.371    23713063.144
       222.000         163.000
 -15471898.28349 -12025967.93547  20414455.166    20414454.912    20414462.708
       241.000         205.000
 01 12  3 17 38 29.9980000  0  9G 1G20G 2G27G22G 3G31G 8G13
  -7107086.98949  -5531416.59147  20127199.638    20127198.773    20127207.527
       240.000         207.000
   8007739.19949   6237613.50046  22629687.685    22629686.077    22629698.781
       226.000         175.000
  -5063692.68349  -3922814.65645  23901762.056    23901762.044    23901782.882
       214.000         156.000
 -15433939.96849 -12010639.80847  21910382.411    21910381.788    21910392.582
       239.000         200.000
   5564577.58549   4337785.66746  22318566.957    22318565.236    22318577.937
       230.000         180.000
 -15910084.77649 -12384251.98046  22902437.041    22902436.678    22902451.831
       222.000         168.000
 -10091486.19449  -6710324.86946  23376973.988    23376973.728    23376991.033
       219.000         164.000
  -6853148.03649  -5318142.53045  23691981.799    23691981.081    23691997.844
       218.000         161.000
 -15548697.27949 -12085811.29847  20399840.780    20399840.553    20399848.343
       242.000         205.000
 01 12  3 17 38 59.9980000  0  9G 1G20G 2G27G22G 3G31G 8G13
  -7123677.32549  -5544344.16247  20124042.608    20124041.751    20124050.508
       240.000         207.000
   8082295.76449   6295709.27446  22643875.612    22643873.926    22643886.639
       230.000         175.000
  -5188730.19449  -4020245.90245  23877967.965    23877967.912    23877988.735
       219.000         159.000
 -15514413.78049 -12073346.62747  21895068.829    21895068.154    21895078.893
       239.000         199.000
   5632972.55849   4391080.17846  22331582.293    22331580.598    22331593.267
       229.000         179.000
 -15985305.15449 -12442865.00646  22888122.881    22888122.554    22888137.687
       223.000         168.000
 -10211123.14049  -6803548.15346  23354207.633    23354207.364    23354224.592
       216.000         164.000
  -6963755.99949  -5404330.42245  23670933.837    23670933.025    23670949.750
       219.000         159.000
 -15625215.30249 -12145435.72647  20385279.899    20385279.654    20385287.427
       241.000         205.000
 01 12  3 17 39 29.9980000  0  9G 1G20G 2G27G22G 3G31G 8G13
  -7139892.10749  -5556979.09647  20120957.115    20120956.212    20120964.969
       242.000         207.000
   8157021.89349   6353937.19346  22658095.754    22658094.042    22658106.831
       226.000         174.000
  -5313615.68349  -4117558.72445  23854202.856    23854202.681    23854223.423
       213.000         160.000
 -15594753.90749 -12135949.27847  21879780.550    21879779.881    21879790.576
       239.000         199.000
   5701635.85049   4444583.75746  22344648.716    22344646.987    22344659.676
       229.000         178.000
 -16060127.08349 -12501167.57246  22873884.580    22873884.229    22873899.346
       224.000         169.000
 -10330657.94749  -6896691.84046  23331460.621    23331460.391    23331477.556
       219.000         165.000
  -7074258.50049  -5490436.21045  23649905.863    23649905.031    23649921.615
       219.000         159.000
 -15701435.63449 -12204828.17847  20370775.663    20370775.426    20370783.195
       242.000         205.000
 01 12  3 17 39 59.9980000  0  9G 1G20G 2G27G22G 3G31G 8G13
  -7155734.13449  -5569323.57547  20117942.532    20117941.589    20117950.366
       241.000         207.000
   8231911.02449   6412292.09246  22672346.841    22672345.149    22672358.034
       228.000         174.000
  -5438350.91549  -4214754.39145  23830466.226    23830466.043    23830486.787
       221.000         161.000
 -15674964.07449 -12198450.67347  21864517.078    21864516.391    21864527.023
       240.000         200.000
   5770561.08649   4498291.44446  22357765.050    22357763.254    22357775.933
       229.000         179.000
 -16134551.68849 -12559160.57446  22859721.892    22859721.509    22859736.550
       224.000         168.000
 -10450091.07849  -6989756.35846  23308732.938    23308732.793    23308749.833
       219.000         163.000
  -7184658.78049  -5576462.36445  23628897.331    23628896.455    23628912.929
       218.000         157.000
 -15777360.08249 -12263990.07147  20356327.745    20356327.493    20356335.233
       242.000         205.000
 01 12  3 17 40 29.9980000  0  9G 1G20G 2G27G22G 3G31G 8G13
  -7171183.58349  -5581362.15047  20115002.598    20115001.691    20115010.479
       240.000         207.000
   8306979.18049   6470786.51646  22686632.125    22686630.357    22686643.314
       227.000         174.000
  -5562915.24449  -4311816.95845  23806761.969    23806761.890    23806782.541
       218.000         159.000
 -15755025.74449 -12260836.35547  21849281.809    21849281.130    21849291.771
       239.000         199.000
   5839764.23349   4552215.67946  22370934.219    22370932.391    22370945.110
       228.000         177.000
 -16208557.50649 -12616827.26646  22845638.958    22845638.544    22845653.484
       225.000         169.000
 -10569400.41449  -7082724.42446  23286028.964    23286028.754    23286045.734
       218.000         164.000
  -7294938.02149  -5662394.15145  23607911.757    23607910.939    23607927.314
       216.000         154.000
 -15852967.78649 -12322905.14747  20341940.122    20341939.843    20341947.553
       242.000         205.000
 01 12  3 17 40 59.9980000  0  9G 1G20G 2G27G22G 3G31G 8G13
  -7186252.54549  -5593104.24247  20112135.075    20112134.178    20112142.997
       240.000         206.000
   8382210.54249   6529408.10746  22700948.319    22700946.623    22700959.635
       224.000         173.000
  -5687320.06149  -4408755.21845  23783088.228    23783088.138    23783108.682
       218.000         159.000
 -15834951.99949 -12323116.53747  21834072.335    21834071.650    21834082.248
       239.000         199.000
   5909229.45549   4606344.11946  22384153.254    22384151.403    22384164.140
       227.000         180.000
 -16282155.16849 -12674175.94946  22831633.605    22831633.239    22831648.076
       224.000         169.000
 -10688595.41049  -7175603.41945  23263346.665    23263346.508    23263363.371
       218.000         162.000
  -7405108.98449  -5748241.60945  23586946.825    23586946.039    23586962.258
       217.000         158.000
 -15928269.93349 -12381582.12447  20327610.620    20327610.325    20327618.021
       242.000         205.000
 01 12  3 17 41 29.9980000  0  9G 1G20G 2G27G22G 3G31G 8G13
  -7200952.30749  -5604558.64947  20109337.798    20109336.935    20109345.750
       241.000         206.000
   8457590.00649   6588145.08946  22715292.820    22715291.052    22715304.126
       227.000         174.000
  -5811575.68149  -4505577.23546  23759442.845    23759442.730    23759463.188
       220.000         165.000
 -15914755.15749 -12385300.80047  21818886.333    21818885.607    21818896.160
       240.000         200.000
   5978941.77249   4660665.10246  22397419.293    22397417.453    22397430.226
       226.000         179.000
 -16355354.49549 -12731214.26946  22817704.087    22817703.727    22817718.463
       224.000         170.000
 -10807684.86549  -7268400.20245  23240684.529    23240684.347    23240701.111
       216.000         161.000
  -7515183.45949  -5834013.86145  23566000.256    23565999.473    23566015.718
       220.000         157.000
 -16003276.58349 -12440028.84047  20313337.317    20313337.038    20313344.698
       242.000         205.000
 01 12  3 17 41 59.9980000  0  9G 1G20G 2G27G22G 3G31G 8G13
  -7215275.73149  -5615719.80847  20106612.120    20106611.286    20106620.138
       240.000         206.000
   8533120.92649   6647000.06846  22729666.066    22729664.302    22729677.431
       228.000         172.000
  -5935674.21149  -4602276.87145  23735827.410    23735827.258    23735847.567
       222.000         162.000
 -15994429.07349 -12447384.34947  21803724.864    21803724.130    21803734.667
       240.000         199.000
   6048904.76449   4715181.38446  22410733.006    22410731.180    22410744.041
       226.000         177.000
 -16428146.66249 -12787935.35146  22803852.036    22803851.689    22803866.389
       225.000         172.000
 -10926659.40249  -7361107.45945  23218044.273    23218044.040    23218060.702
       216.000         160.000
  -7625155.03049  -5919705.93545  23545073.255    23545072.525    23545088.786
       218.000         162.000
 -16077979.62949 -12498238.98147  20299121.802    20299121.503    20299129.160
       241.000         205.000
 01 12  3 17 42 29.9980000  0  9G 1G20G 2G27G22G 3G31G 8G13
  -7229211.42949  -5626578.84347  20103960.273    20103959.424    20103968.287
       240.000         206.000
   8608811.25749   6705979.27646  22744069.738    22744067.870    22744081.115
       224.000         174.000
  -6059603.20449  -4698844.41946  23712244.094    23712244.021    23712264.184
       223.000         164.000
 -16073963.22449 -12509359.00247  21788590.010    21788589.261    21788599.721
       239.000         198.000
   6119126.09949   4769898.99146  22424095.927    22424094.083    22424107.000
       227.000         178.000
 -16500518.60949 -12844329.02946  22790080.062    22790079.680    22790094.337
       226.000         174.000
 -11045504.82749  -7453714.13145  23195428.563    23195428.265    23195444.800
       216.000         159.000
  -7735012.81649  -6005309.29846  23524167.827    23524167.213    23524183.555
       224.000         165.000
 -16152366.37349 -12556202.65147  20284966.473    20284966.169    20284973.813
       241.000         205.000
 01 12  3 17 42 59.9980000  0  9G 1G20G 2G27G22G 3G31G 8G13
  -7242757.09249  -5637133.95747  20101382.590    20101381.780    20101390.665
       240.000         206.000
   8684659.43649   6765081.47246  22758503.411    22758501.503    22758514.845
       226.000         173.000
  -6183359.36749  -4795277.33246  23688693.776    23688693.730    23688713.717
       220.000         163.000
 -16153356.22749 -12571223.66147  21773481.956    21773481.240    21773491.670
       238.000         199.000
   6189604.52649   4824816.94146  22437507.845    22437505.915    22437518.873
       228.000         177.000
 -16572466.61649 -12900392.39946  22776388.722    22776388.362    22776402.981
       225.000         174.000
 -11164216.16349  -7546216.34645  23172838.435    23172838.119    23172854.459
       215.000         157.000
  -7844755.23549  -6090822.76645  23503284.585    23503283.871    23503300.244
       224.000         162.000
 -16226433.57849 -12613917.33447  20270871.948    20270871.645    20270879.274
       242.000         205.000
 01 12  3 17 43 29.9980000  0  9G 1G20G 2G27G22G 3G31G 8G13
  -7255917.76249  -5647389.07947  20098878.227    20098877.397    20098886.317
       239.000         206.000
   8760656.66749   6824299.81746  22772965.447    22772963.509    22772976.994
       226.000         174.000
  -6306947.10749  -4891579.04446  23665175.538    23665175.416    23665195.287
       220.000         163.000
 -16232614.30049 -12632983.18447  21758399.650    21758398.927    21758409.297
       239.000         199.000
   6260331.18749   4879928.31346  22450966.867    22450964.961    22450977.979
       226.000         175.000
 -16643993.99349 -12956128.02046  22762777.423    22762777.060    22762791.638
       224.000         172.000
 -11282796.11249  -7638616.15245  23150273.272    23150272.913    23150289.191
       217.000         159.000
  -7954388.22549  -6176250.95146  23482422.186    23482421.373    23482437.735
       223.000         164.000
 -16300185.50849 -12671386.34347  20256837.401    20256837.124    20256844.734
       242.000         205.000
 01 12  3 17 43 59.9980000  0  9G 1G20G 2G27G22G 3G31G 8G13
  -7268670.41449  -5657326.26747  20096451.530    20096450.653    20096459.618
       240.000         206.000
   8836822.22749   6883649.31546  22787459.412    22787457.560    22787471.126
       226.000         173.000
  -6430342.64849  -4987730.96346  23641693.875    23641693.744    23641713.528
       216.000         165.000
 -16311715.48449 -12694620.45847  21743347.207    21743346.464    21743356.779
       240.000         199.000
   6331325.52149   4935248.27746  22464476.961    22464474.982    22464488.045
       228.000         175.000
 -16715076.12549 -13011516.72046  22749250.876    22749250.497    22749264.994
       224.000         171.000
 -11401219.35349  -7730893.88245  23127738.018    23127737.582    23127753.770
       217.000         159.000
  -8063889.19749  -6261576.22545  23461584.879    23461584.005    23461600.307
       223.000         161.000
 -16373598.07349 -12728590.91647  20242867.433    20242867.171    20242874.757
       242.000         205.000
 01 12  3 17 44 29.9980000  0  9G 1G20G 2G27G22G 3G31G 8G13
  -7281024.02149  -5666952.51547  20094100.783    20094099.883    20094108.865
       240.000         207.000
   8913143.29149   6943119.98646  22801982.919    22801981.191    22801994.855
       227.000         172.000
  -6553553.86849  -5083739.29445  23618247.099    23618247.053    23618266.772
       217.000         162.000
 -16390669.68849 -12756143.20247  21728322.717    21728321.958    21728332.282
       240.000         199.000
   6402574.91049   4990766.97246  22478035.529    22478033.527    22478046.599
       227.000         175.000
 -16785720.69449 -13066564.47246  22735807.647    22735807.228    22735821.620
       224.000         171.000
 -11519492.31849  -7823054.50745  23105231.304    23105230.824    23105246.930
       216.000         160.000
  -8173267.96549  -6346806.26145  23440770.814    23440769.886    23440786.129
       225.000         162.000
 -16446678.84149 -12785536.95047  20228960.611    20228960.351    20228967.931
       241.000         206.000
 01 12  3 17 44 59.9980000  0  9G 1G20G 2G27G22G 3G31G 8G13
  -7292988.91849  -5676275.87347  20091823.968    20091823.074    20091832.091
       240.000         207.000
   8989606.00249   7002701.02046  22816533.422    22816531.727    22816545.522
       226.000         172.000
  -6676590.45649  -5179611.56646  23594833.686    23594833.620    23594853.219
       222.000         163.000
 -16469488.26949 -12817560.26147  21713324.099    21713323.288    21713333.593
       239.000         199.000
   6474065.26249   5046473.43946  22491639.885    22491637.878    22491651.041
       227.000         175.000
 -16855936.55249 -13121278.17046  22722446.018    22722445.527    22722459.907
       224.000         173.000
 -11637622.85349  -7915104.13445  23082751.674    23082751.167    23082767.263
       218.000         159.000
  -8282535.52949  -6431949.62445  23419977.803    23419976.902    23419993.064
       221.000         159.000
 -16519437.32449 -12842231.84747  20215115.110    20215114.845    20215122.431
       241.000         205.000
 01 12  3 17 45 29.9980000  0  9G 1G20G 2G27G22G 3G31G 8G13
  -7304547.38949  -5685282.53547  20089624.530    20089623.612    20089632.647
       240.000         207.000
   9066224.43849   7062403.40146  22831113.579    22831111.945    22831125.815
       226.000         171.000
  -6799433.78349  -5275333.26245  23571457.114    23571456.975    23571476.427
       220.000         162.000
 -16548154.40749 -12878858.53547  21698354.349    21698353.590    21698363.886
       239.000         199.000
   6545810.87849   5102378.82846  22505292.842    22505290.828    22505304.065
       228.000         175.000
 -16925704.18549 -13175642.61546  22709169.674    22709169.109    22709183.515
       224.000         173.000
 -11755590.69149  -8007026.97745  23060303.030    23060302.521    23060318.605
       218.000         161.000
  -8391674.90449  -6516993.05545  23399209.022    23399208.215    23399224.314
       222.000         160.000
 -16591854.90449 -12898661.11147  20201334.464    20201334.214    20201341.816
       240.000         205.000
 01 12  3 17 45 59.9980000  0  9G 1G20G 2G27G22G 3G31G 8G13
  -7315706.95949  -5693978.36347  20087500.951    20087500.051    20087509.129
       240.000         207.000
   9142987.28349   7122218.30046  22845721.301    22845719.643    22845733.569
       227.000         170.000
  -6922090.18549  -5370909.31146  23548115.992    23548115.914    23548135.175
       219.000         165.000
 -16626676.55849 -12940044.59747  21683412.035    21683411.293    21683421.643
       239.000         199.000
   6617800.67449   5158474.48746  22518992.262    22518990.280    22519003.587
       228.000         176.000
 -16995029.79849 -13229662.61446  22695977.408    22695976.815    22695991.278
       224.000         174.000
 -11873400.83649  -8098826.94945  23037884.388    23037883.822    23037899.916
       217.000         161.000
  -8500693.94549  -6601942.71145  23378463.147    23378462.465    23378478.524
       223.000         158.000
 -16663937.56249 -12954829.39947  20187617.594    20187617.332    20187624.916
       240.000         206.000
 01 12  3 17 46 29.9980000  0  9G 1G20G 2G27G22G 3G31G 8G13
  -7326469.76849  -5702365.02847  20085452.936    20085451.999    20085461.118
       242.000         207.000
   9219888.93249   7182141.37046  22860355.437    22860353.738    22860367.691
       225.000         170.000
  -7044561.03749  -5466340.79945  23524810.247    23524810.178    23524829.273
       219.000         162.000
 -16705057.77749 -13001120.84247  21668496.563    21668495.822    21668506.173
       239.000         199.000
   6690028.95749   5214755.98246  22532737.052    22532735.060    22532748.446
       228.000         174.000
 -17063913.72749 -13283338.44246  22682869.224    22682868.613    22682883.136
       224.000         175.000
 -11991052.89649  -8190503.72645  23015495.663    23015495.215    23015511.270
       217.000         161.000
  -8609595.50449  -6686800.76545  23357739.614    23357739.021    23357755.183
       220.000         162.000
 -16735686.44249 -13010737.59647  20173964.237    20173963.972    20173971.569
       241.000         206.000
 01 12  3 17 46 59.9980000  0  9G 1G20G 2G27G22G 3G31G 8G13
  -7336826.45049  -5710435.22647  20083482.195    20083481.240    20083490.365
       242.000         207.000
   9296934.82149   7242176.81646  22875017.025    22875015.291    22875029.272
       226.000         168.000
  -7166836.20949  -5561619.78046  23501541.766    23501541.648    23501560.721
       221.000         164.000
 -16783289.79449 -13062080.82747  21653609.447    21653608.730    21653619.058
       238.000         199.000
   6762501.37349   5271227.70146  22546528.264    22546526.304    22546539.835
       226.000         175.000
 -17132345.27749 -13336661.77646  22669847.169    22669846.506    22669861.058
       226.000         175.000
 -12108535.06949  -8282048.12145  22993139.386    22993138.913    22993154.960
       219.000         162.000
  -8718371.06049  -6771560.70245  23337040.183    23337039.563    23337055.665
       219.000         161.000
 -16807091.25049 -13066377.69247  20160376.380    20160376.085    20160383.702
       240.000         206.000
 01 12  3 17 47 29.9980000  0  9G 1G20G 2G27G22G 3G31G 8G13
  -7346781.22649  -5718192.24847  20081587.919    20081586.959    20081596.107
       242.000         208.000
   9374117.28849   7302318.67346  22889704.653    22889702.826    22889716.865
       223.000         166.000
  -7288919.17249  -5656749.03146  23478309.866    23478309.742    23478328.724
       220.000         165.000
 -16861377.75849 -13122928.55447  21638749.728    21638749.058    21638759.450
       239.000         200.000
   6835210.00049   5327883.47846  22560364.514    22560362.503    22560376.189
       227.000         175.000
 -17200327.42049 -13389634.91046  22656910.582    22656909.900    22656924.454
       226.000         174.000
 -12225848.76849  -8373461.24345  22970815.168    22970814.700    22970830.755
       219.000         160.000
  -8827025.36649  -6856226.14045  23316363.742    23316363.177    23316379.278
       218.000         160.000
 -16878155.17049 -13121752.16047  20146853.326    20146853.060    20146860.685
       240.000         206.000
 01 12  3 17 47 59.9980000  0  9G 1G20G 2G27G22G 3G31G 8G13
  -7356342.58849  -5725642.71547  20079768.482    20079767.546    20079776.720
       242.000         208.000
   9451424.09849   7362557.40646  22904415.891    22904413.999    22904428.168
       226.000         167.000
  -7410817.34649  -5751734.25145  23455113.050    23455112.956    23455131.913
       217.000         162.000
 -16939331.04949 -13183671.35147  21623915.681    21623915.014    21623925.386
       238.000         199.000
   6908143.14049   5384714.21946  22574243.382    22574241.411    22574255.231
       225.000         173.000
 -17267866.99149 -13442263.17046  22644058.245    22644057.549    22644072.059
       225.000         173.000
 -12342999.96949  -8464747.75645  22948521.952    22948521.430    22948537.406
       220.000         161.000
  -8935567.50349  -6940804.19646  23295708.669    23295708.133    23295724.148
       222.000         165.000
 -16948885.35149 -13176866.57247  20133393.774    20133393.531    20133401.172
       240.000         205.000
 01 12  3 17 48 29.9980000  0  9G 1G20G 2G27G22G 3G31G 8G13
  -7365509.05749  -5732785.47047  20078024.253    20078023.281    20078032.452
       243.000         208.000
   9528853.21149   7422891.47146  22919150.478    22919148.478    22919162.739
       225.000         166.000
  -7532528.13249  -5846573.48546  23431952.033    23431951.876    23431970.642
       224.000         164.000
 -17017149.03149 -13244308.70247  21609107.380    21609106.708    21609117.109
       239.000         200.000
   6981298.69249   5441718.23946  22588164.513    22588162.643    22588176.614
       225.000         172.000
 -17334960.89149 -13494544.13746  22631290.686    22631289.996    22631304.508
       226.000         173.000
 -12459984.58049  -8555904.44645  22926260.432    22926259.900    22926275.800
       218.000         159.000
  -9043996.66449  -7025294.23946  23275074.969    23275074.570    23275090.571
       222.000         166.000
 -17019279.09349 -13231718.83147  20119998.259    20119998.044    20120005.671
       240.000         205.000
 01 12  3 17 48 59.9980000  0  9G 1G20G 2G27G22G 3G31G 8G13
  -7374280.96749  -5739620.77647  20076355.068    20076354.094    20076363.276
       242.000         208.000
   9606400.80349   7483317.84146  22933907.417    22933905.480    22933919.848
       218.000         165.000
  -7654051.02749  -5941266.32046  23408826.850    23408826.577    23408845.181
       226.000         167.000
 -17094832.92249 -13304841.56247  21594324.593    21594323.913    21594334.360
       238.000         200.000
   7054672.72549   5498892.50146  22602127.295    22602125.428    22602139.579
       225.000         175.000
 -17401607.95449 -13546476.90346  22618608.109    22618607.467    22618621.962
       224.000         173.000
 -12576800.29049  -8646929.54645  22904031.038    22904030.470    22904046.305
       219.000         160.000
  -9152313.61749  -7109696.88346  23254462.885    23254462.434    23254478.332
       222.000         166.000
 -17089335.77049 -13286308.44247  20106666.888    20106666.673    20106674.341
       239.000         205.000
 01 12  3 17 49 29.9980000  0  9G 1G20G 2G27G22G 3G31G 8G13
  -7382666.78449  -5746155.22547  20074759.331    20074758.384    20074767.579
       242.000         208.000
   9684054.65249   7543826.98946  22948684.659    22948682.743    22948697.110
       223.000         165.000
  -7775393.65949  -6035818.70346  23385735.931    23385735.588    23385753.992
       226.000         163.000
 -17172392.01349 -13365277.18247  21579565.583    21579564.895    21579575.310
       241.000         199.000
   7128253.51049   5556227.87646  22616129.519    22616127.640    22616141.844
       226.000         173.000
 -17467815.31849 -13598067.03346  22606009.178    22606008.595    22606023.092
       226.000         175.000
 -12693452.90549  -8737827.54445  22881832.519    22881832.076    22881847.904
       220.000         161.000
  -9260527.55449  -7194019.20346  23233870.228    23233869.815    23233885.784
       218.000         166.000
 -17159062.63449 -13340641.05347  20093398.292    20093398.068    20093405.749
       239.000         205.000
 01 12  3 17 49 59.9980000  0  9G 1G20G 2G27G22G 3G31G 8G13
  -7390676.24949  -5752396.41247  20073235.312    20073234.289    20073243.511
       242.000         209.000
   9761801.46249   7604408.58646  22963479.612    22963477.648    22963492.110
       222.000         166.000
  -7896564.93849  -6130237.60746  23362677.515    23362677.208    23362695.429
       221.000         166.000
 -17249836.99849 -13425623.87747  21564828.258    21564827.573    21564837.979
       239.000         199.000
   7202027.68849   5613713.91246  22630168.434    22630166.603    22630180.981
       225.000         174.000
 -17533591.29549 -13649321.00746  22593492.453    22593491.851    22593506.326
       226.000         176.000
 -12809949.63749  -8828604.08646  22859663.824    22859663.335    22859679.114
       222.000         163.000
  -9368648.74349  -7278269.32546  23213295.250    23213294.848    23213310.761
       225.000         168.000
 -17228468.19449 -13394723.29847  20080190.830    20080190.594    20080198.315
       240.000         205.000
 01 12  3 17 50 29.9980000  0  9G 1G20G 2G27G22G 3G31G 8G13
  -7398299.77849  -5758336.86947  20071784.598    20071783.633    20071792.894
       243.000         208.000
   9839647.32149   7665067.34346  22978293.382    22978291.470    22978305.972
       223.000         166.000
  -8017554.10349  -6224514.60846  23339653.770    23339653.442    23339671.491
       226.000         169.000
 -17327158.97549 -13485874.74547  21550114.348    21550113.668    21550124.009
       240.000         198.000
   7276001.47249   5671355.49146  22644245.398    22644243.591    22644258.079
       223.000         172.000
 -17598924.55449 -13700230.00346  22581059.986    22581059.346    22581073.817
       225.000         175.000
 -12926277.99049  -8919249.43946  22837527.278    22837526.728    22837542.404
       223.000         165.000
  -9476668.04649  -7362440.05546  23192739.940    23192739.410    23192755.208
       222.000         169.000
 -17297541.56349 -13448546.69447  20067046.573    20067046.367    20067054.081
       241.000         205.000
 01 12  3 17 50 59.9980000  0  9G 1G20G 2G27G22G 3G31G 8G13
  -7405531.51049  -5763972.02847  20070408.508    20070407.532    20070416.831
       243.000         209.000
   9917594.56649   7725805.10946  22993126.543    22993124.598    22993139.158
       224.000         167.000
  -8138354.74149  -6318644.70746  23316665.915    23316665.606    23316683.693
       221.000         167.000
 -17404352.89449 -13546025.82847  21535424.766    21535424.092    21535434.433
       240.000         199.000
   7350177.28249   5729154.48646  22658360.786    22658359.007    22658373.634
       222.000         174.000
 -17663807.85949 -13750788.38746  22568713.088    22568712.472    22568726.907
       226.000         175.000
 -13042429.63949  -9009757.10246  22815424.340    22815423.715    22815439.299
       222.000         165.000
  -9584580.27649  -7446527.35746  23172204.725    23172204.277    23172220.030
       217.000         167.000
 -17366275.86449 -13502105.88747  20053966.883    20053966.652    20053974.375
       241.000         205.000
 01 12  3 17 51 29.9980000  0  9G 1G20G 2G27G22G 3G31G 8G13
  -7412368.62049  -5769299.69047  20069107.511    20069106.536    20069115.846
       243.000         209.000
   9995642.38949   7786621.23046  23007978.882    23007976.860    23007991.495
       223.000         167.000
  -8258962.88449  -6412624.86746  23293714.788    23293714.392    23293732.446
       217.000         167.000
 -17481416.79649 -13606075.59447  21520759.934    21520759.283    21520769.668
       240.000         199.000
   7424554.46549   5787110.39246  22672514.466    22672512.726    22672527.477
       222.000         172.000
 -17728237.01049 -13800992.86546  22556452.667    22556452.026    22556466.413
       226.000         175.000
 -13158399.05049  -9100122.76246  22793355.944    22793355.390    22793370.936
       223.000         165.000
  -9692383.11049  -7530529.43446  23151690.489    23151689.944    23151705.692
       229.000         170.000
 -17434667.18849 -13555397.82947  20040952.473    20040952.229    20040959.904
       241.000         204.000
 01 12  3 17 51 59.9980000  0  9G 1G20G 2G27G22G 3G31G 8G13
  -7418806.81449  -5774316.50247  20067882.441    20067881.444    20067890.779
       243.000         209.000
  10073791.76649   7847516.50346  23022850.460    23022848.487    23022863.165
       224.000         169.000
  -8379373.35549  -6506450.95346  23270801.250    23270800.818    23270818.826
       224.000         170.000
 -17558347.17249 -13666021.33247  21506120.522    21506119.897    21506130.242
       241.000         199.000
   7499134.14949   5845224.09646  22686706.708    22686704.980    22686719.816
       223.000         173.000
 -17792206.27449 -13850838.98246  22544279.849    22544279.137    22544293.426
       227.000         175.000
 -13274179.12049  -9190340.88046  22771323.527    22771323.018    22771338.556
       221.000         165.000
  -9800072.69449  -7614443.33946  23131197.992    23131197.297    23131212.862
       226.000         168.000
 -17502709.64249 -13608417.92547  20028004.401    20028004.171    20028011.818
       241.000         204.000
 01 12  3 17 52 29.9980000  0  9G 1G20G 2G27G22G 3G31G 8G13
  -7424854.05449  -5779028.68447  20066731.669    20066730.722    20066740.112
       243.000         209.000
  10152031.13449   7908481.89046  23037739.266    23037737.223    23037751.964
       224.000         167.000
  -8499593.19649  -6600128.54546  23247923.916    23247923.514    23247941.401
       225.000         167.000
 -17635152.78949 -13725869.84447  21491504.946    21491504.265    21491514.634
       240.000         200.000
   7573904.84749   5903486.62446  22700935.323    22700933.594    22700948.557
       223.000         171.000
 -17855722.44749 -13900332.04846  22532193.104    22532192.368    22532206.605
       225.000         172.000
 -13389775.12749  -9280415.58446  22749326.260    22749325.711    22749341.274
       221.000         165.000
  -9907657.67649  -7698275.69846  23110725.256    23110724.487    23110739.893
       216.000         165.000
 -17570410.30149 -13661171.68347  20015121.433    20015121.161    20015128.776
       240.000         204.000
 01 12  3 17 52 59.9980000  0  9G 1G20G 2G27G22G 3G31G 8G13
  -7430510.20349  -5783436.11847  20065655.417    20065654.435    20065663.870
       243.000         209.000
  10230357.10449   7969514.73546  23052644.569    23052642.436    23052657.270
       223.000         167.000
  -8619621.22549  -6693656.65546  23225083.029    23225082.703    23225100.505
       221.000         168.000
 -17711834.31749 -13785621.67047  21476912.927    21476912.239    21476922.621
       240.000         200.000
   7648863.45449   5961895.60246  22715199.759    22715197.967    22715212.996
       221.000         170.000
 -17918783.58349 -13949470.52346  22520192.860    22520192.154    22520206.405
       225.000         172.000
 -13505184.12649  -9370344.53846  22727364.520    22727363.972    22727379.603
       220.000         165.000
 -10015138.18149  -7782026.63046  23090272.100    23090271.440    23090286.895
       221.000         167.000
 -17637767.87549 -13713658.11547  20002303.697    20002303.438    20002311.011
       241.000         204.000
 01 12  3 17 53 29.9980000  0  9G 1G20G 2G27G22G 3G31G 8G13
  -7435769.39349  -5787534.23947  20064654.653    20064653.670    20064663.151
       243.000         209.000
  10308772.28249   8030617.10046  23067566.752    23067564.617    23067579.545
       222.000         168.000
  -8739450.52749  -6787029.92546  23202280.120    23202279.762    23202297.416
       223.000         168.000
 -17788386.75749 -13845272.91947  21462345.450    21462344.765    21462355.113
       241.000         200.000
   7724012.42049   6020452.90346  22729500.313    22729498.570    22729513.652
       220.000         170.000
 -17981382.59649 -13998248.91946  22508280.504    22508279.921    22508294.159
       224.000         172.000
 -13620397.65549  -9460121.18046  22705439.976    22705439.428    22705455.105
       221.000         167.000
 -10122508.99449  -7865692.14146  23069840.140    23069839.408    23069854.838
       230.000         172.000
 -17704774.85849 -13765871.35947  19989552.737    19989552.429    19989559.993
       241.000         204.000
 01 12  3 17 53 59.9980000  0  9G 1G20G 2G27G22G 3G31G 8G13
  -7440646.51249  -5791334.64247  20063726.544    20063725.606    20063735.147
       243.000         210.000
  10387258.03549   8091774.47146  23082502.254    23082500.239    23082515.174
       223.000         167.000
  -8859095.16949  -6880259.28646  23179512.290    23179511.947    23179529.548
       223.000         170.000
 -17864825.78149 -13904835.77447  21447799.603    21447798.903    21447809.242
       241.000         200.000
   7799333.38349   6079144.24246  22743833.646    22743831.877    22743847.087
       220.000         167.000
 -18043532.87549 -14046677.64546  22496453.705    22496453.073    22496467.335
       225.000         172.000
 -13735427.81649  -9549754.92046  22683550.406    22683549.813    22683565.468
       223.000         168.000
 -10229785.60749  -7949284.28546  23049426.219    23049425.352    23049440.666
       224.000         171.000
 -17771445.29349 -13817822.35647  19976865.757    19976865.475    19976873.034
       240.000         204.000
 01 12  3 17 54 29.9980000  0  9G 1G20G 2G27G22G 3G31G 8G13
  -7445144.69949  -5794839.77747  20062870.625    20062869.676    20062879.238
       243.000         210.000
  10465808.07049   8152981.88746  23097450.100    23097448.105    23097463.127
       223.000         168.000
  -8978557.43249  -6973346.52546  23156779.243    23156778.850    23156796.365
       224.000         169.000
 -17941155.02749 -13964313.10647  21433274.603    21433273.924    21433284.189
       240.000         199.000
   7874820.22349   6137964.81846  22758198.475    22758196.741    22758212.124
       220.000         168.000
 -18105236.18849 -14094758.07446  22484711.924    22484711.299    22484725.515
       226.000         172.000
 -13850274.82649  -9639245.91946  22661695.644    22661695.006    22661710.717
       220.000         169.000
 -10336971.55349  -8032805.74546  23029029.216    23029028.409    23029043.682
       225.000         167.000
 -17837781.05549 -13869512.57347  19964242.513    19964242.204    19964249.781
       240.000         205.000
 01 12  3 17 54 59.9980000  0  9G 1G20G 2G27G22G 3G31G 8G13
  -7449252.74449  -5798040.90647  20062088.891    20062087.981    20062097.553
       243.000         209.000
  10544430.19049   8214245.51146  23112411.591    23112409.658    23112424.789
       219.000         166.000
  -9097824.83449  -7066281.91146  23134083.190    23134082.849    23134100.240
       225.000         167.000
 -18017363.84749 -14023696.58047  21418772.519    21418771.856    21418782.111
       241.000         200.000
   7950480.78449   6196920.76746  22772596.466    22772594.667    22772610.203
       219.000         165.000
 -18166479.81449 -14142480.31546  22473057.626    22473056.983    22473071.154
       226.000         172.000
 -13964924.67549  -9728583.27946  22639878.324    22639877.748    22639893.483
       220.000         169.000
 -10444055.83149  -8116248.02146  23008651.618    23008650.831    23008666.123
       222.000         167.000
 -17903769.44649 -13920932.11747  19951685.355    19951685.056    19951692.635
       240.000         205.000
 01 12  3 17 55 29.9980000  0  9G 1G20G 2G27G22G 3G31G 8G13
  -7452976.67949  -5800942.72847  20061380.282    20061379.393    20061388.960
       243.000         209.000
  10623114.67949   8275557.70646  23127385.119    23127383.101    23127398.345
       222.000         165.000
  -9216902.68449  -7159069.60646  23111423.284    23111422.905    23111440.217
       222.000         171.000
 -18093459.06349 -14082991.53947  21404292.066    21404291.402    21404301.647
       241.000         200.000
   8026305.70649   6256004.80246  22787025.654    22787023.873    22787039.601
       220.000         169.000
 -18227268.42549 -14189847.99346  22461489.893    22461489.245    22461503.405
       226.000         172.000
 -14079380.71049  -9817769.58246  22618097.881    22618097.308    22618113.085
       220.000         169.000
 -10551045.31749  -8199616.38846  22988292.087    22988291.298    22988306.623
       222.000         165.000
 -17969415.36849 -13972084.79847  19939193.346    19939193.056    19939200.649
       240.000         205.000
 01 12  3 17 55 59.9980000  0  9G 1G20G 2G27G22G 3G31G 8G13
  -7456309.48449  -5803539.76747  20060746.135    20060745.233    20060754.796
       243.000         209.000
  10701865.15249   8336921.32746  23142371.123    23142369.121    23142384.370
       222.000         165.000
  -9335782.86349  -7251703.24346  23088800.943    23088800.581    23088817.780
       224.000         171.000
 -18169434.41449 -14142193.09447  21389834.480    21389833.781    21389843.980
       241.000         201.000
   8102298.70249   6315219.80246  22801486.939    22801485.110    22801500.982
       220.000         167.000
 -18287593.66649 -14236854.61146  22450010.312    22450009.692    22450023.811
       227.000         172.000
 -14193633.27449  -9906797.31746  22596356.180    22596355.628    22596371.427
       220.000         169.000
 -10657933.02349  -8282905.51146  22967951.984    22967951.182    22967966.496
       223.000         167.000
 -18034710.38249 -14022964.04347  19926768.115    19926767.844    19926775.439
       241.000         204.000
 01 12  3 17 56 29.9980000  0  9G 1G20G 2G27G22G 3G31G 8G13
  -7459253.36649  -5805833.75447  20060185.989    20060185.070    20060194.633
       243.000         209.000
  10780676.20349   8398332.12145  23157368.608    23157366.659    23157382.020
       219.000         162.000
  -9454466.61149  -7344183.78646  23066216.040    23066215.649    23066232.742
       230.000         169.000
 -18245292.70749 -14201303.42347  21375399.119    21375398.398    21375408.621
       242.000         201.000
   8178454.54649   6374561.70046  22815979.180    22815977.282    22815993.305
       220.000         170.000
 -18347456.42449 -14283500.86146  22438618.779    22438618.165    22438632.202
       227.000         173.000
 -14307681.69449  -9995665.95546  22574653.320    22574652.803    22574668.615
       220.000         170.000
 -10764721.99649  -8366117.66246  22947630.555    22947629.839    22947645.185
       221.000         168.000
 -18099655.58549 -14073570.70747  19914409.487    19914409.207    19914416.761
       240.000         205.000
 01 12  3 17 56 59.9980000  0  9G 1G20G 2G27G22G 3G31G 8G13
  -7461813.00649  -5807828.32747  20059698.946    20059698.030    20059707.569
       243.000         209.000
  10859539.69949   8459783.80145  23172376.065    23172374.183    23172389.554
       219.000         161.000
  -9572957.83449  -7436514.32846  23043667.774    23043667.319    23043684.294
       228.000         172.000
 -18321039.38549 -14260326.78647  21360985.004    21360984.263    21360994.458
       241.000         201.000
   8254765.16149   6434024.19146  22830500.963    22830498.950    22830515.042
       221.000         171.000
 -18406860.03349 -14329789.32846  22427314.677    22427314.045    22427328.020
       228.000         175.000
 -14421527.97249 -10084377.06446  22552988.883    22552988.392    22553004.228
       221.000         169.000
 -10871417.18049  -8449256.76146  22927327.157    22927326.376    22927341.667
       227.000         169.000
 -18164254.43449 -14123907.48147  19902116.757    19902116.468    19902124.032
       240.000         205.000
 01 12  3 17 57 29.9980000  0  9G 1G20G 2G27G22G 3G31G 8G13
  -7463988.05749  -5809523.22547  20059285.067    20059284.178    20059293.703
       243.000         209.000
  10938452.39749   8521273.80745  23187392.803    23187391.017    23187406.514
       218.000         159.000
  -9691255.21149  -7528693.81446  23021156.338    23021155.888    23021172.737
       228.000         171.000
 -18396674.87849 -14319263.50247  21346592.015    21346591.282    21346601.488
       241.000         202.000
   8331227.50749   6493604.93246  22845051.536    22845049.493    22845065.640
       220.000         170.000
 -18465802.73849 -14375718.65246  22416098.199    22416097.583    22416111.553
       227.000         174.000
 -14535168.76049 -10172928.06146  22531363.619    22531363.145    22531378.922
       223.000         170.000
 -10978018.85549  -8532322.97446  22907041.551    22907040.737    22907056.121
       223.000         172.000
 -18228505.15349 -14173972.98347  19889890.272    19889889.978    19889897.534
       240.000         205.000
 01 12  3 17 57 59.9980000  0  9G 1G20G 2G27G22G 3G31G 8G13
  -7465765.19349  -5810908.06047  20058946.934    20058946.042    20058955.557
       243.000         208.000
  11017424.50649   8582810.12845  23202420.958    23202419.167    23202434.716
       217.000         157.000
  -9809344.44049  -7620711.11446  22998684.539    22998684.037    22998700.768
       228.000         171.000
 -18472186.21549 -14378103.46547  21332222.621    21332221.952    21332232.154
       241.000         202.000
   8407851.95649   6553311.94946  22859632.950    22859630.886    22859647.075
       224.000         171.000
 -18524269.65849 -14421277.22346  22404972.197    22404971.642    22404985.589
       227.000         174.000
 -14648587.97349 -10261306.37646  22509780.496    22509780.044    22509795.795
       222.000         170.000
 -11084513.83649  -8615306.03446  22886776.053    22886775.313    22886790.735
       226.000         174.000
 -18292393.14749 -14223755.83847  19877732.798    19877732.498    19877740.071
       240.000         205.000
 01 12  3 17 58 29.9970000  0  9G 1G20G 2G27G22G 3G31G 8G13
  -7467155.51349  -5811991.48547  20058682.384    20058681.507    20058691.023
       243.000         208.000
  11096439.18049   8644379.58945  23217457.224    23217455.409    23217471.056
       218.000         155.000
  -9927231.59849  -7712570.96746  22976251.022    22976250.623    22976267.290
       229.000         172.000
 -18547582.52549 -14436853.79347  21317875.156    21317874.471    21317884.735
       242.000         202.000
   8484621.77349   6613132.21946  22874242.007    22874239.943    22874256.211
       223.000         169.000
 -18582268.42949 -14466471.00846  22393935.327    22393934.796    22393948.746
       227.000         174.000
 -14761790.01249 -10349515.46946  22488238.810    22488238.296    22488253.951
       223.000         171.000
 -11190909.94149  -8698212.09346  22866529.726    22866528.902    22866544.335
       226.000         171.000
 -18355926.10449 -14273262.03547  19865642.892    19865642.597    19865650.175
       240.000         205.000
 01 12  3 17 58 59.9970000  0  9G 1G20G 2G27G22G 3G31G 8G13
  -7468140.20849  -5812758.83647  20058495.017    20058494.137    20058503.667
       243.000         208.000
  11175517.12449   8705998.35645  23232505.546    23232503.691    23232519.354
       219.000         154.000
 -10044904.78249  -7804264.12346  22953858.216    22953857.907    22953874.549
       227.000         174.000
 -18622850.69049 -14495504.26347  21303552.059    21303551.400    21303561.721
       241.000         202.000
   8561557.93449   6673082.11046  22888882.762    22888880.656    22888896.948
       223.000         168.000
 -18639782.94049 -14511287.44246  22382990.622    22382990.116    22383004.136
       226.000         177.000
 -14874760.79749 -10437544.35646  22466740.970    22466740.558    22466756.091
       222.000         171.000
 -11297195.99849  -8781032.31746  22846303.900    22846303.215    22846318.663
       228.000         169.000
 -18419088.04349 -14322479.12647  19853623.575    19853623.278    19853630.856
       240.000         205.000
 01 12  3 17 59 29.9970000  0  9G 1G20G 2G27G22G 3G31G 8G13
  -7468723.91349  -5813213.72647  20058383.954    20058383.105    20058392.634
       242.000         208.000
  11254647.68949   8767658.12045  23247563.903    23247562.008    23247577.773
       218.000         154.000
 -10162363.83549  -7895790.41246  22931506.249    22931505.965    22931522.610
       227.000         174.000
 -18697993.53749 -14554057.08747  21289252.836    21289252.147    21289262.484
       242.000         202.000
   8638649.77149   6733153.29746  22903553.237    22903551.036    22903567.322
       222.000         168.000
 -18696814.75749 -14555727.75646  22372137.875    22372137.328    22372151.383
       227.000         178.000
 -14987498.36349 -10525391.52946  22445287.647    22445287.160    22445302.594
       223.000         171.000
 -11403373.37449  -8863767.94146  22826099.112    22826098.361    22826113.660
       227.000         167.000
 -18481880.17549 -14371408.05347  19841674.622    19841674.339    19841681.925
       240.000         205.000
 01 12  3 17 59 59.9970000  0  9G 1G20G 2G27G22G 3G31G 8G13
  -7468904.43949  -5813354.44947  20058349.613    20058348.768    20058358.338
       243.000         208.000
  11333829.83349   8829358.06645  23262631.922    23262630.128    23262645.927
       217.000         151.000
 -10279605.41349  -7987147.29246  22909195.708    22909195.428    22909212.062
       225.000         174.000
 -18773009.21849 -14612510.81347  21274977.816    21274977.117    21274987.467
       240.000         202.000
   8715896.52249   6793345.16746  22918253.102    22918250.912    22918267.166
       225.000         168.000
 -18753360.13649 -14599789.02046  22361377.716    22361377.076    22361391.171
       226.000         177.000
 -15099997.43949 -10613052.86246  22423879.512    22423879.135    22423894.463
       222.000         170.000
 -11509440.39249  -8946417.50346  22805915.126    22805914.438    22805929.704
       226.000         169.000
 -18544298.89649 -14420046.00647  19829796.687    19829796.459    19829804.023
       239.000         205.000
 01 12  3 18  0 29.9970000  0  9G 1G20G 2G27G22G 3G31G 8G13
  -7468705.54849  -5813199.52847  20058387.514    20058386.654    20058396.258
       243.000         209.000
  11413036.41149   8891077.08645  23277704.743    23277702.903    23277718.714
       215.000         153.000
 -10396652.18449  -8078352.37446  22886922.302    22886921.962    22886938.539
       229.000         177.000
 -18847922.26049 -14670884.55947  21260722.263    21260721.594    21260731.962
       240.000         202.000
   8793271.40349   6853636.87046  22932977.364    22932975.151    22932991.424
       221.000         168.000
 -18809441.69949 -14643488.88546  22350705.711    22350705.090    22350719.158
       227.000         176.000
 -15212278.73949 -10700544.52646  22402512.935    22402512.548    22402527.749
       223.000         171.000
 -11615421.06649  -9028999.77646  22785747.721    22785746.967    22785762.157
       221.000         172.000
 -18606366.86649 -14468410.64647  19817985.525    19817985.309    19817992.866
       239.000         204.000
 01 12  3 18  0 59.9970000  0  9G 1G20G 2G27G22G 3G31G 8G13
  -7468104.98649  -5812731.61447  20058501.863    20058500.994    20058510.602
       243.000         209.000
  11492286.64749   8952830.08145  23292785.824    23292784.034    23292799.903
       216.000         153.000
 -10513481.08249  -8169387.73046  22864690.321    22864689.987    22864706.484
       227.000         175.000
 -18922710.84849 -14729161.33547  21246490.437    21246489.771    21246500.137
       240.000         202.000
   8870793.56549   6914043.35546  22947729.690    22947727.497    22947743.785
       221.000         166.000
 -18865035.73149 -14686808.85746  22340126.492    22340125.848    22340139.840
       228.000         175.000
 -15324317.54049 -10787847.24346  22381192.455    22381192.097    22381207.226
       224.000         172.000
 -11721293.48049  -9111497.62746  22765600.603    22765600.001    22765615.291
       222.000         171.000
 -18668060.43749 -14516483.54847  19806245.625    19806245.412    19806252.955
       239.000         204.000
 01 12  3 18  1 29.9970000  0  9G 1G20G 2G27G22G 3G31G 8G13
  -7467111.89849  -5811957.83547  20058690.894    20058690.009    20058699.638
       243.000         209.000
  11571568.10449   9014607.42945  23307872.878    23307871.040    23307886.995
       217.000         152.000
 -10630100.21349  -8260259.65846  22842498.289    22842497.890    22842514.390
       227.000         177.000
 -18997384.76049 -14787348.73847  21232280.411    21232279.749    21232290.161
       239.000         202.000
   8948450.88049   6974555.10446  22962507.706    22962505.477    22962521.826
       221.000         166.000
 -18920150.01149 -14729755.01146  22329638.611    22329637.934    22329651.819
       226.000         174.000
 -15436119.86249 -10874965.69946  22359916.986    22359916.615    22359931.719
       224.000         172.000
 -11827067.08049  -9193918.50346  22745472.666    22745471.921    22745487.176
       224.000         173.000
 -18729387.32049 -14564270.72247  19794575.498    19794575.280    19794582.829
       239.000         205.000
 01 12  3 18  1 59.9970000  0  9G 1G20G 2G27G22G 3G31G 8G13
  -7465701.28749  -5810858.71447  20058959.430    20058958.499    20058968.132
       243.000         208.000
  11650902.50449   9076426.01945  23322970.003    23322968.171    23322984.202
       218.000         155.000
 -10746483.61749  -8350947.92446  22820351.095    22820350.688    22820367.139
       227.000         176.000
 -19071919.55349 -14845427.75147  21218096.893    21218096.213    21218106.640
       240.000         203.000
   9026265.32449   7035189.24946  22977315.614    22977313.410    22977329.831
       222.000         166.000
 -18974758.29549 -14772306.86146  22319246.842    22319246.263    22319260.094
       225.000         173.000
 -15547657.81749 -10961878.16746  22338691.841    22338691.446    22338706.522
       225.000         173.000
 -11932717.30249  -9276243.19946  22725367.953    22725367.253    22725382.585
       224.000         173.000
 -18790321.07549 -14611751.56347  19782980.211    19782979.975    19782987.516
       238.000         205.000
 01 12  3 18  2 29.9970000  0  9G 1G20G 2G27G22G 3G31G 8G13
  -7463870.76449  -5809432.39547  20059307.805    20059306.870    20059316.504
       243.000         207.000
  11730288.99449   9138285.17045  23338077.240    23338075.280    23338091.303
       219.000         155.000
 -10862627.86849  -8441449.83946  22798249.445    22798249.008    22798265.444
       229.000         178.000
 -19146313.25449 -14903396.82347  21203940.186    21203939.529    21203949.974
       240.000         202.000
   9104236.22649   7095945.38046  22992153.250    22992151.094    22992167.492
       221.000         168.000
 -19028856.99049 -14814461.62146  22308952.114    22308951.540    22308965.414
       225.000         174.000
 -15658926.21049 -11048580.61346  22317518.034    22317517.609    22317532.609
       224.000         175.000
 -12038242.02949  -9358470.13346  22705287.455    22705286.589    22705301.855
       226.000         174.000
 -18850858.17949 -14658923.32847  19771460.403    19771460.163    19771467.693
       237.000         205.000
 01 12  3 18  2 59.9970000  0  9G 1G20G 2G27G22G 3G31G 8G13
  -7461615.00349  -5807674.71347  20059737.093    20059736.170    20059745.769
       243.000         207.000
  11809729.47249   9200186.39645  23353194.559    23353192.652    23353208.752
       220.000         156.000
 -10978526.52749  -8531760.41246  22776194.676    22776194.111    22776210.547
       227.000         178.000
 -19220561.08849 -14961252.24547  21189811.291    21189810.629    21189821.035
       240.000         203.000
   9182365.90749   7156825.17946  23007021.165    23007018.961    23007035.542
       220.000         165.000
 -19082439.65049 -14856214.27446  22298755.494    22298755.003    22298768.993
       225.000         175.000
 -15769916.71149 -11135066.53346  22296397.097    22296396.683    22296411.576
       224.000         174.000
 -12143636.17649  -9440595.24746  22685231.479    22685230.681    22685245.957
       226.000         173.000
 -18910991.96749 -14705780.81647  19760017.309    19760017.089    19760024.589
       237.000         205.000
 01 12  3 18  3 29.9970000  0  9G 1G20G 2G27G22G 3G31G 8G13
  -7458953.11249  -5805600.57047  20060243.614    20060242.732    20060252.327
       242.000         207.000
  11889202.10149   9262112.69445  23368318.037    23368316.093    23368332.333
       217.000         157.000
 -11094197.55949  -8621893.61246  22754183.249    22754182.551    22754198.906
       227.000         178.000
 -19294682.62149 -15019009.25347  21175706.412    21175705.732    21175716.151
       240.000         202.000
   9260632.43849   7217811.62146  23021915.059    23021912.888    23021929.528
       222.000         166.000
 -19135524.05649 -14897578.69746  22288653.801    22288653.323    22288667.326
       227.000         173.000
 -15880645.48949 -11221348.52946  22275326.007    22275325.543    22275340.373
       225.000         173.000
 -12248919.20949  -9522633.79446  22665196.691    22665195.912    22665211.158
       224.000         173.000
 -18970739.98149 -14752337.70447  19748647.661    19748647.430    19748654.919
       237.000         205.000
 01 12  3 18  3 59.9970000  0  9G 1G20G 2G27G22G 3G31G 8G13
  -7455885.81249  -5803210.52347  20060827.353    20060826.455    20060836.043
       243.000         207.000
  11968702.86549   9324060.88545  23383446.936    23383444.914    23383461.307
       218.000         158.000
 -11209640.68249  -8711849.20846  22732215.098    22732214.361    22732230.693
       228.000         179.000
 -19368678.72449 -15076668.53947  21161625.365    21161624.709    21161635.098
       240.000         202.000
   9339032.25349   7278901.95746  23036834.361    23036832.193    23036848.911
       220.000         167.000
 -19188109.41749 -14938554.27446  22278647.060    22278646.618    22278660.560
       226.000         173.000
 -15991110.11649 -11307424.70946  22254305.115    22254304.688    22254319.414
       224.000         174.000
 -12354091.97049  -9604586.43946  22645182.928    22645182.133    22645197.254
       224.000         172.000
 -19030101.53049 -14798593.45247  19737351.589    19737351.312    19737358.788
       237.000         205.000
 01 12  3 18  4 29.9970000  0  9G 1G20G 2G27G22G 3G31G 8G13
  -7452428.94249  -5800516.91247  20061485.193    20061484.327    20061493.889
       244.000         207.000
  12048213.15149   9386016.47945  23398577.606    23398575.545    23398592.110
       219.000         158.000
 -11324870.65549  -8801638.70446  22710287.386    22710286.721    22710302.980
       227.000         178.000
 -19442565.57149 -15134242.69947  21147565.119    21147564.487    21147574.860
       240.000         201.000
   9417546.72149   7340081.64746  23051775.422    23051773.315    23051790.111
       221.000         163.000
 -19240210.27349 -14979152.31446  22268732.504    22268732.065    22268745.911
       226.000         171.000
 -16101323.41449 -11393305.06846  22233332.095    22233331.662    22233346.248
       223.000         173.000
 -12459170.48649  -9686465.59346  22625186.954    22625186.250    22625201.340
       231.000         175.000
 -19089091.11549 -14844559.35447  19726126.227    19726125.977    19726133.435
       237.000         205.000
 01 12  3 18  4 59.9970000  0  9G 1G20G 2G27G22G 3G31G 8G13
  -7448556.19249  -5797499.24547  20062222.240    20062221.340    20062230.876
       244.000         207.000
  12127756.06749   9447997.53245  23413714.554    23413712.399    23413729.021
       217.000         156.000
 -11439860.08849  -8891240.72246  22688405.583    22688404.893    22688421.068
       227.000         178.000
 -19516317.33049 -15191711.60347  21133530.551    21133529.954    21133540.286
       240.000         201.000
   9496199.14249   7401368.85045  23066742.847    23066740.695    23066757.532
       218.000         162.000
 -19291799.22049 -15019351.49546  22258915.374    22258914.961    22258928.751
       227.000         175.000
 -16211256.08149 -11478966.76046  22212412.430    22212412.028    22212426.506
       224.000         173.000
 -12564128.69149  -9768250.98646  22605213.931    22605213.255    22605228.362
       226.000         175.000
 -19147680.92649 -14890213.74547  19714976.957    19714976.696    19714984.181
       236.000         205.000
 01 12  3 18  5 29.9970000  0  9G 1G20G 2G27G22G 3G31G 8G13
  -7444291.16849  -5794175.91047  20063033.901    20063033.004    20063042.541
       244.000         207.000
  12207304.92749   9509983.20545  23428852.641    23428850.413    23428867.149
       216.000         158.000
 -11554631.41649  -8980672.78246  22666565.283    22666564.565    22666580.640
       229.000         179.000
 -19589958.03649 -15249093.98547  21119517.214    21119516.558    21119526.847
       240.000         201.000
   9574963.19949   7462742.97945  23081731.552    23081729.298    23081746.298
       220.000         161.000
 -19342898.37749 -15059169.00846  22249191.583    22249191.126    22249204.855
       227.000         175.000
 -16320928.52649 -11564425.69746  22191542.249    22191541.899    22191556.341
       223.000         173.000
 -12668990.39349  -9849961.24346  22585259.535    22585258.726    22585273.723
       228.000         175.000
 -19205893.11649 -14935573.89147  19703899.541    19703899.283    19703906.789
       236.000         205.000
 01 12  3 18  5 59.9970000  0  9G 1G20G 2G27G22G 3G31G 8G13
  -7439636.59849  -5790549.04047  20063919.711    20063918.796    20063928.337
       244.000         208.000
  12286853.85849   9571968.90045  23443990.560    23443988.385    23444005.253
       217.000         158.000
 -11669186.46749  -9069936.28246  22644766.108    22644765.363    22644781.441
       229.000         178.000
 -19663490.84649 -15306392.30147  21105524.448    21105523.734    21105533.941
       240.000         201.000
   9653833.20249   7524199.72346  23096740.339    23096738.084    23096755.187
       220.000         164.000
 -19393509.09249 -15098605.92246  22239560.670    22239560.173    22239573.944
       227.000         175.000
 -16430340.82149 -11649681.95246  22170721.681    22170721.293    22170735.630
       224.000         173.000
 -12773758.71949  -9931598.69246  22565322.650    22565321.875    22565336.819
       230.000         175.000
 -19263729.09849 -14980640.88847  19692893.758    19692893.466    19692900.987
       236.000         205.000
 01 12  3 18  6 29.9970000  0  9G 1G20G 2G27G22G 3G31G 8G13
  -7434577.78649  -5786607.17447  20064882.437    20064881.512    20064891.078
       244.000         208.000
  12366414.49649   9633963.75445  23459130.674    23459128.617    23459145.585
       213.000         155.000
 -11783509.52349  -9159018.96746  22623011.046    22623010.307    22623026.407
       228.000         179.000
 -19736901.57649 -15363595.49347  21091554.800    21091554.096    21091564.311
       240.000         201.000
   9732820.98849   7585748.30446  23111771.675    23111769.311    23111786.467
       218.000         165.000
 -19443615.67049 -15137650.03146  22230025.748    22230025.209    22230038.994
       228.000         176.000
 -16539475.18149 -11734721.64046  22149954.063    22149953.601    22149967.823
       225.000         174.000
 -12878419.20349 -10013152.09946  22545406.279    22545405.515    22545420.397
       226.000         173.000
 -19321172.65349 -15025402.09847  19681962.552    19681962.301    19681969.841
       235.000         204.000
 01 12  3 18  6 59.9970000  0  9G 1G20G 2G27G22G 3G31G 8G13
  -7429123.58549  -5782357.22047  20065920.393    20065919.463    20065929.063
       243.000         208.000
  12445974.86949   9695958.34445  23474270.790    23474268.760    23474285.850
       217.000         154.000
 -11897608.53049  -9247927.04446  22601298.696    22601297.899    22601313.954
       229.000         180.000
 -19810199.37449 -15420710.69647  21077606.678    21077605.981    21077616.177
       240.000         202.000
   9811914.90749   7647379.54745  23126823.007    23126820.687    23126837.964
       218.000         161.000
 -19493225.89549 -15176307.38346  22220585.275    22220584.701    22220598.462
       229.000         176.000
 -16648337.34049 -11819549.23546  22129238.282    22129237.735    22129251.846
       226.000         174.000
 -12982980.83749 -10094628.54446  22525508.815    22525508.040    22525522.709
       225.000         172.000
 -19378231.50249 -15069863.53747  19671104.604    19671104.351    19671111.904
       235.000         204.000
 01 12  3 18  7 29.9970000  0  9G 1G20G 2G27G22G 3G31G 8G13
  -7423268.50349  -5777794.89547  20067034.677    20067033.700    20067043.325
       243.000         207.000
  12525537.40149   9757954.68245  23489411.608    23489409.377    23489426.521
       213.000         155.000
 -12011476.88049  -9336655.37146  22579630.214    22579629.390    22579645.376
       229.000         177.000
 -19883379.01649 -15477733.83847  21063681.099    21063680.376    21063690.550
       241.000         203.000
   9891117.61649   7709095.53346  23141895.103    23141892.770    23141910.225
       218.000         167.000
 -19542333.15449 -15214572.82846  22211240.527    22211239.930    22211253.593
       228.000         174.000
 -16756918.84349 -11904158.15446  22108575.880    22108575.260    22108589.301
       226.000         174.000
 -13087438.43849 -10176023.90246  22505630.925    22505630.268    22505644.912
       229.000         174.000
 -19434898.59249 -15114019.72347  19660321.212    19660320.956    19660328.529
       235.000         204.000
 01 12  3 18  7 59.9970000  0  9G 1G20G 2G27G22G 3G31G 8G13
  -7417011.20049  -5772919.14947  20068225.475    20068224.472    20068234.102
       243.000         208.000
  12605100.49049   9819951.40745  23504552.351    23504550.070    23504567.345
       216.000         157.000
 -12125112.11249  -9425202.05846  22558005.976    22558005.185    22558021.097
       227.000         177.000
 -19956439.32349 -15534663.98947  21049778.279    21049777.492    21049787.630
       241.000         203.000
   9970427.57749   7770895.15946  23156987.492    23156985.249    23157002.795
       221.000         164.000
 -19590934.62549 -15252444.15346  22201991.941    22201991.363    22202004.939
       227.000         173.000
 -16865215.43949 -11988545.05746  22087967.584    22087967.007    22087981.005
       225.000         174.000
 -13191790.67849 -10257337.13146  22485773.172    22485772.564    22485787.214
       228.000         177.000
 -19491171.19649 -15157868.51247  19649612.892    19649612.643    19649620.221
       235.000         204.000
 01 12  3 18  8 29.9970000  0  9G 1G20G 2G27G22G 3G31G 8G13
  -7410346.65149  -5767726.07747  20069493.716    20069492.740    20069502.419
       243.000         208.000
  12684666.39349   9881950.33545  23519693.584    23519691.347    23519708.707
       215.000         153.000
 -12238508.00449  -9513562.19946  22536427.287    22536426.525    22536442.320
       231.000         178.000
 -20029375.47149 -15591497.39147  21035899.014    21035898.222    21035908.356
       241.000         203.000
  10049847.52449   7832780.46345  23172100.959    23172098.708    23172116.356
       218.000         162.000
 -19639023.89249 -15289916.35746  22192840.878    22192840.238    22192853.779
       227.000         175.000
 -16973218.79249 -12072703.46946  22067415.160    22067414.572    22067428.514
       225.000         174.000
 -13296032.57849 -10338564.43746  22465936.534    22465935.885    22465950.522
       227.000         178.000
 -19547042.65049 -15201404.72547  19638980.903    19638980.650    19638988.240
       236.000         204.000
 01 12  3 18  8 59.9970000  0  9G 1G20G 2G27G22G 3G31G 8G13
  -7403259.54049  -5762203.72847  20070842.345    20070841.413    20070851.130
       243.000         207.000
  12764247.24449   9943960.93945  23534837.702    23534835.457    23534852.837
       213.000         154.000
 -12351648.40749  -9601723.27446  22514897.211    22514896.502    22514912.156
       232.000         179.000
 -20102172.60349 -15648222.46447  21022046.166    21022045.410    21022055.552
       240.000         202.000
  10129389.73149   7894760.99545  23187237.631    23187235.371    23187253.167
       217.000         159.000
 -19686584.75349 -15326976.81946  22183790.417    22183789.724    22183803.249
       230.000         176.000
 -17080910.55049 -12156619.06046  22046922.055    22046921.419    22046935.304
       226.000         173.000
 -13400149.18349 -10419694.08646  22446123.620    22446123.017    22446137.620
       227.000         176.000
 -19602496.16849 -15244615.27147  19628428.483    19628428.225    19628435.778
       235.000         204.000
 01 12  3 18  9 29.9970000  0  9G 1G20G 2G27G22G 3G31G 8G13
  -7395781.49249  -5756376.75747  20072265.410    20072264.470    20072274.233
       243.000         207.000
  12843808.42849  10005956.17945  23549978.042    23549975.785    23549993.280
       214.000         153.000
 -12464563.88949  -9689709.07946  22493409.953    22493409.279    22493424.804
       230.000         178.000
 -20174862.52549 -15704863.99147  21008213.779    21008212.977    21008223.145
       241.000         202.000
  10209019.99349   7956810.21945  23202391.026    23202388.817    23202406.593
       212.000         162.000
 -19733647.59749 -15363649.22646  22174834.666    22174833.973    22174847.558
       228.000         178.000
 -17188319.34849 -12240314.17346  22026482.791    22026482.121    22026495.952
       226.000         175.000
 -13504172.12149 -10500750.75246  22426328.407    22426327.893    22426342.527
       229.000         174.000
 -19657562.15549 -15287523.84747  19617949.796    19617949.539    19617957.077
       235.000         205.000
 01 12  3 18  9 59.9970000  0  9G 1G20G 2G27G22G 3G31G 8G13
  -7387883.17049  -5750222.30147  20073768.450    20073767.504    20073777.312
       243.000         208.000
  12923376.67749  10067956.95945  23565119.721    23565117.468    23565135.026
       211.000         151.000
 -12577224.06449  -9777495.93346  22471971.214    22471970.588    22471986.028
       231.000         180.000
 -20247415.95649 -15761399.15247  20994407.366    20994406.534    20994416.706
       240.000         202.000
  10288765.11749   8018948.87445  23217566.342    23217564.077    23217582.013
       218.000         155.000
 -19780181.82349 -15399909.70746  22165979.525    22165978.831    22165992.477
       228.000         178.000
 -17295412.72649 -12323763.49246  22006103.557    22006102.881    22006116.657
       226.000         174.000
 -13608072.24949 -10581711.77946  22406556.682    22406556.206    22406570.801
       227.000         172.000
 -19712209.49949 -15330106.20647  19607550.819    19607550.518    19607558.050
       236.000         205.000
 01 12  3 18 10 29.9970000  0  9G 1G20G 2G27G22G 3G31G 8G13
  -7379555.37649  -5743733.20147  20075353.194    20075352.279    20075362.124
       243.000         208.000
  13002958.35649  10129968.18745  23580263.984    23580261.718    23580279.375
       212.000         150.000
 -12689618.36149  -9865075.64146  22450582.984    22450582.446    22450597.856
       225.000         178.000
 -20319823.98549 -15817821.00847  20980628.553    20980627.747    20980637.919
       240.000         202.000
  10368631.57949   8081182.07145  23232764.523    23232762.380    23232780.512
       213.000         159.000
 -19826177.01849 -15435750.17546  22157226.971    22157226.265    22157239.932
       229.000         177.000
 -17402178.07949 -12406957.17846  21985786.679    21985786.019    21985799.836
       226.000         176.000
 -13711840.16449 -10662569.80146  22386810.247    22386809.744    22386824.228
       227.000         176.000
 -19766427.70949 -15372354.18447  19597233.522    19597233.158    19597240.685
       236.000         205.000
 01 12  3 18 10 59.9970000  0 10G 1G20G 2G28G27G22G 3G31G 8G13
  -7370805.87549  -5736915.49347  20077018.241    20077017.322    20077027.171
       243.000         207.000
  13082542.70449  10191981.46445  23595408.643    23595406.462    23595424.256
       215.000         152.000
 -12801753.48949  -9952453.36746  22429244.018    22429243.586    22429259.023
       229.000         179.000
   -239061.89355                  24476903.332
       208.000         143.000
 -20392094.52149 -15874135.72747  20966875.893    20966875.128    20966885.331
       241.000         203.000
  10448608.90149   8143501.67845  23247984.010    23247981.910    23248000.010
       220.000         159.000
 -19871640.09449 -15471175.98746  22148575.687    22148574.941    22148588.590
       229.000         177.000
 -17508620.22349 -12489899.01046  21965531.293    21965530.664    21965544.493
       225.000         175.000
 -13815483.95249 -10743331.08346  22367087.405    22367086.848    22367101.324
       229.000         178.000
 -19820223.22649 -15414272.78747  19586996.599    19586996.241    19587003.759
       235.000         205.000
 01 12  3 18 11 29.9970000  0 10G 1G20G 2G28G27G22G 3G31G 8G13
  -7361639.18949  -5729772.71047  20078762.713    20078761.736    20078771.604
       243.000         208.000
  13162122.31749  10253991.09145  23610552.485    23610550.311    23610568.238
       210.000         150.000
 -12913632.91249 -10039631.86946  22407953.822    22407953.403    22407968.813
       229.000         179.000
   -463776.88549   -344696.73644  24451106.048    24451102.429    24451128.670
       206.000         129.000
 -20464232.30249 -15930346.98947  20953148.577    20953147.796    20953158.006
       241.000         203.000
  10528690.21949   8205902.27045  23263223.083    23263221.125    23263239.325
       216.000         156.000
 -19916574.07049 -15506189.52546  22140025.079    22140024.326    22140037.921
       229.000         177.000
 -17614740.67249 -12572590.16646  21945337.204    21945336.527    21945350.413
       226.000         178.000
 -13919008.14649 -10823999.20146  22347387.354    22347386.760    22347401.193
       229.000         177.000
 -19873598.90149 -15455864.24547  19576839.547    19576839.202    19576846.716
       234.000         205.000
 01 12  3 18 11 59.9970000  0 10G 1G20G 2G28G27G22G 3G31G 8G13
  -7352038.13549  -5722291.46247  20080589.705    20080588.790    20080598.733
       242.000         208.000
  13241711.37249  10316008.02545  23625698.039    23625695.947    23625714.024
       213.000         151.000
 -13025238.41649 -10126596.91746  22386715.833    22386715.361    22386730.791
       231.000         181.000
   -599235.59949   -450248.72455  24425329.039    24425328.150    24425351.742
       211.000         146.000
 -20536220.50649 -15986441.69147  20939449.777    20939448.923    20939459.162
       241.000         203.000
  10608889.92549   8268395.11645  23278484.980    23278482.948    23278501.218
       215.000         158.000
 -19960960.90349 -15540776.70446  22131578.567    22131577.838    22131591.359
       229.000         176.000
 -17720519.26349 -12655014.92046  21925208.150    21925207.460    21925221.371
       225.000         177.000
 -14022395.57949 -10904560.77546  22327713.377    22327712.694    22327727.092
       227.000         176.000
 -19926535.97549 -15497113.94047  19566765.994    19566765.640    19566773.128
       234.000         205.000
 01 12  3 18 12 29.9970000  0 10G 1G20G 2G28G27G22G 3G31G 8G13
  -7342013.72549  -5714480.32347  20082497.285    20082496.408    20082506.433
       242.000         208.000
  13321295.97649  10378021.49945  23640842.795    23640840.640    23640858.897
       213.000         146.000
 -13136579.96349 -10213356.31146  22365528.116    22365527.589    22365542.907
       231.000         180.000
   -734597.54859   -555725.17645  24399570.389    24399569.460    24399593.479
       207.000         141.000
 -20608070.29149 -16042428.52347  20925777.191    20925776.365    20925786.641
       240.000         203.000
  10689194.44149   8330969.69645  23293766.759    23293764.691    23293782.979
       218.000         159.000
 -20004810.38149 -15574945.16446  22123234.329    22123233.594    22123247.120
       230.000         177.000
 -17825963.90349 -12737179.43646  21905142.645    21905141.957    21905155.897
       226.000         178.000
 -14125657.50449 -10985024.54446  22308063.164    22308062.472    22308076.908
       229.000         177.000
 -19979044.15649 -15538029.42847  19556773.973    19556773.678    19556781.173
       234.000         205.000
 01 12  3 18 12 59.9970000  0 10G 1G20G 2G28G27G22G 3G31G 8G13
  -7331566.17549  -5706339.46747  20084485.454    20084484.567    20084494.619
       243.000         208.000
  13400873.44549  10440029.40945  23655986.224    23655984.138    23656002.462
       213.000         149.000
 -13247656.59749 -10299909.28346  22344390.758    22344390.229    22344405.435
       231.000         180.000
   -869860.98449   -661124.78845  24373830.254    24373828.727    24373853.368
       207.000         138.000
 -20679781.99349 -16098307.75747  20912130.871    20912130.074    20912140.413
       240.000         203.000
  10769601.13649   8393623.79045  23309067.992    23309065.899    23309084.345
       213.000         156.000
 -20048121.73149 -15608694.29346  22114992.572    22114991.742    22115005.332
       227.000         178.000
 -17931071.60549 -12819081.41246  21885141.321    21885140.584    21885154.499
       226.000         178.000
 -14228794.23549 -11065390.77546  22288436.834    22288436.136    22288450.470
       228.000         177.000
 -20031122.15049 -15578609.70947  19546863.842    19546863.556    19546871.083
       233.000         205.000
 01 12  3 18 13 29.9970000  0 10G 1G20G 2G28G27G22G 3G31G 8G13
  -7320695.21749  -5697868.68547  20086554.235    20086553.308    20086563.402
       243.000         208.000
  13480441.21949  10502029.72445  23671127.877    23671125.725    23671144.104
       214.000         145.000
 -13358466.94649 -10386254.76846  22323304.064    22323303.548    22323318.620
       230.000         181.000
  -1005023.81549   -766445.93545  24348109.294    24348108.121    24348132.350
       215.000         135.000
 -20751355.18249 -16154079.06247  20898510.916    20898510.133    20898520.484
       241.000         201.000
  10850107.85049   8456355.90945  23324388.350    23324386.176    23324404.529
       215.000         159.000
 -20090893.18449 -15642022.72246  22106853.475    22106852.632    22106866.268
       229.000         177.000
 -18035838.61449 -12900717.90846  21865204.774    21865204.019    21865217.894
       226.000         178.000
 -14331804.98449 -11145658.85846  22268834.513    22268833.794    22268848.026
       229.000         174.000
 -20082767.94249 -15618853.20847  19537035.989    19537035.708    19537043.245
       234.000         204.000
 01 12  3 18 13 59.9970000  0 10G 1G20G 2G28G27G22G 3G31G 8G13
  -7309403.32149  -5689069.90047  20088703.156    20088702.167    20088712.282
       242.000         209.000
  13559993.92849  10564018.32645  23686266.644    23686264.527    23686282.900
       213.000         147.000
 -13469012.20249 -10472393.70346  22302267.780    22302267.298    22302282.257
       231.000         182.000
  -1140086.70848   -871689.22045  24322407.171    24322406.246    24322430.576
       194.000         142.000
 -20822792.39249 -16209744.40947  20884916.840    20884916.072    20884926.440
       240.000         201.000
  10930709.63849   8519162.00845  23339726.698    23339724.464    23339743.072
       211.000         150.000
 -20133125.97849 -15674931.40946  22098816.895    22098815.994    22098829.668
       229.000         177.000
 -18140264.26249 -12982088.42146  21845333.133    21845332.405    21845346.236
       227.000         178.000
 -14434692.41349 -11225830.86846  22249255.589    22249254.867    22249268.975
       227.000         173.000
 -20133982.67149 -15658760.80847  19527290.143    19527289.850    19527297.439
       233.000         204.000
 01 12  3 18 14 29.9970000  0 10G 1G20G 2G28G27G22G 3G31G 8G13
  -7297673.78449  -5679930.08747  20090935.381    20090934.323    20090944.440
       242.000         208.000
  13639545.64149  10626006.07845  23701405.302    23701403.143    23701421.675
       214.000         150.000
 -13579274.48249 -10558312.13546  22281285.423    22281284.928    22281299.830
       232.000         182.000
  -1275031.44649   -976839.97445  24296727.726    24296726.867    24296751.320
       212.000         138.000
 -20894077.07249 -16265290.90347  20871351.821    20871351.031    20871361.368
       240.000         201.000
  11011420.75849   8582053.42645  23355085.790    23355083.616    23355102.216
       215.000         158.000
 -20174802.59849 -15707406.71246  22090886.149    22090885.211    22090898.887
       230.000         177.000
 -18244328.79249 -13063177.53846  21825530.162    21825529.479    21825543.294
       227.000         178.000
 -14537439.97649 -11305893.87946  22229703.214    22229702.522    22229716.586
       228.000         175.000
 -20184748.11049 -15698318.31647  19517629.763    19517629.492    19517637.137
       233.000         204.000
 01 12  3 18 14 59.9970000  0 10G 1G20G 2G28G27G22G 3G31G 8G13
  -7285516.54849  -5670457.00147  20093248.926    20093247.853    20093257.966
       242.000         208.000
  13719083.55649  10687983.04545  23716541.197    23716539.048    23716557.816
       215.000         147.000
 -13689262.75349 -10644017.07146  22260355.217    22260354.697    22260369.519
       232.000         184.000
  -1409866.28249  -1081905.46045  24271069.039    24271068.320    24271093.243
       213.000         142.000
 -20965219.22249 -16320726.32847  20857813.910    20857813.127    20857823.427
       239.000         201.000
  11092228.85049   8645020.31145  23370463.303    23370461.163    23370479.908
       209.000         151.000
 -20215931.86149 -15739455.51846  22083059.402    22083058.579    22083072.281
       231.000         177.000
 -18348038.97249 -13143990.56246  21805794.711    21805793.970    21805807.761
       228.000         178.000
 -14640057.50249 -11385855.55646  22210175.837    22210175.038    22210189.108
       232.000         179.000
 -20235072.58349 -15737532.21447  19508053.334    19508053.068    19508060.757
       233.000         204.000
 01 12  3 18 15 29.9970000  0 10G 1G20G 2G28G27G22G 3G31G 8G13
  -7272935.75249  -5660653.87147  20095643.042    20095641.985    20095652.114
       242.000         209.000
  13798600.98949  10749944.07045  23731673.422    23731671.154    23731689.964
       212.000         146.000
 -13798980.13849 -10729510.93946  22239476.562    22239476.008    22239490.757
       233.000         185.000
                  -1186890.14254  24245430.917
       198.000         106.000
 -21036223.01849 -16376053.94647  20844302.314    20844301.552    20844311.834
       240.000         201.000
  11173127.20449   8708057.53645  23385858.211    23385855.928    23385874.716
       216.000         152.000
 -20256516.70849 -15771080.10446  22075336.385    22075335.582    22075349.278
       229.000         177.000
 -18451395.74649 -13224528.20046  21786126.511    21786125.753    21786139.541
       229.000         180.000
 -14742548.97149 -11465719.01246  22190672.426    22190671.560    22190685.605
       229.000         178.000
 -20284958.89149 -15776404.68547  19498560.286    19498560.033    19498567.734
       233.000         204.000
 01 12  3 18 15 59.9970000  0 10G 1G20G 2G28G27G22G 3G31G 8G13
  -7259934.42949  -5650523.05547  20098117.186    20098116.135    20098126.305
       242.000         209.000
  13878092.15049  10811884.54945  23746800.451    23746798.218    23746817.113
       213.000         146.000
 -13908428.41849 -10814795.12946  22218649.146    22218648.575    22218663.215
       235.000         185.000
                  -1291788.51555  24219813.341                    24219837.368
       168.000         161.000
 -21107091.53949 -16431276.15847  20830816.456    20830815.700    20830825.984
       240.000         202.000
  11254110.60349   8771161.07045  23401269.053    23401266.771    23401285.694
       212.000         153.000
 -20296559.25149 -15802282.12746  22067716.615    22067715.790    22067729.419
       230.000         178.000
 -18554398.93649 -13304790.32846  21766525.541    21766524.821    21766538.608
       229.000         181.000
 -14844917.38249 -11545486.56546  22171192.286    22171191.427    22171205.523
       227.000         175.000
 -20334408.57649 -15814936.92747  19489150.396    19489150.102    19489157.790
       234.000         204.000
 01 12  3 18 16 29.9970000  0 10G 1G20G 2G28G27G22G 3G31G 8G13
  -7246525.28149  -5640074.45547  20100668.932    20100667.881    20100678.085
       242.000         208.000
  13957541.31549  10873792.28445  23761919.711    23761917.370    23761936.348
       213.000         145.000
 -14017619.17249 -10899878.66246  22197870.711    22197870.156    22197884.694
       234.000         185.000
  -1813743.72959  -1396612.32255  24194213.309    24194212.984    24194238.101
       207.000         160.000
 -21177837.60549 -16486402.94447  20817353.924    20817353.167    20817363.443
       240.000         202.000
  11335163.84849   8834319.01045  23416693.386    23416691.031    23416710.064
       213.000         153.000
 -20336071.35449 -15833070.81646  22060197.757    22060196.934    22060210.542
       230.000         179.000
 -18657058.19949 -13384784.46446  21746990.100    21746989.344    21747003.121
       229.000         182.000
 -14947175.40849 -11625168.12846  22151733.233    22151732.311    22151746.321
       227.000         173.000
 -20383432.61649 -15853137.49447  19479821.488    19479821.158    19479828.851
       233.000         203.000
 01 12  3 18 16 59.9970000  0 10G 1G20G 2G28G27G22G 3G31G 8G13
  -7232725.81149  -5629321.71047  20103295.002    20103293.898    20103304.129
       242.000         208.000
  14036928.68349  10935651.85245  23777027.082    23777024.679    23777043.797
       211.000         140.000
 -14126568.72249 -10984774.24946  22177138.226    22177137.626    22177152.089
       234.000         186.000
  -1948190.42349  -1501375.27145  24168628.350                    24168628.240
       213.000         147.000
 -21248478.70149 -16541447.94047  20803911.382    20803910.619    20803920.887
       240.000         202.000
  11416267.12549   8897515.96745  23432127.197    23432124.751    23432143.774
       219.000         156.000
 -20375069.34749 -15863458.89546  22052776.730    22052775.909    22052789.544
       230.000         180.000
 -18759387.89349 -13464521.80846  21727517.426    21727516.602    21727530.333
       228.000         182.000
 -15049340.46149 -11704777.24046  22132291.903    22132290.904    22132304.827
       230.000         176.000
 -20432047.17849 -15891018.99147  19470570.464    19470570.134    19470577.832
       233.000         203.000
 01 12  3 18 17 29.9970000  0 10G 1G20G 2G28G27G22G 3G31G 8G13
  -7218518.48149  -5618251.14747  20105998.655    20105997.536    20106007.787
       242.000         208.000
  14116269.23149  10997474.92645  23792125.453    23792123.074    23792142.296
       210.000         148.000
 -14235258.49249 -11069467.43046  22156455.145    22156454.534    22156468.859
       235.000         186.000
  -2082538.51049  -1606061.02445  24143062.187    24143062.215    24143086.500
       214.000         148.000
 -21318997.12349 -16596397.34147  20790492.163    20790491.391    20790501.651
       240.000         203.000
  11497435.62249   8960763.69845  23447573.168    23447570.921    23447590.099
       210.000         150.000
 -20413534.63549 -15893431.89046  22045457.042    22045456.235    22045469.973
       230.000         181.000
 -18861367.20549 -13543986.13746  21708111.332    21708110.539    21708124.231
       229.000         182.000
 -15151394.96649 -11784300.17346  22112871.642    22112870.573    22112884.484
       231.000         179.000
 -20480233.01749 -15928566.41547  19461401.011    19461400.695    19461408.392
       232.000         203.000
 01 12  3 18 17 59.9970000  0 10G 1G20G 2G28G27G22G 3G31G 8G13
  -7203888.42649  -5606851.18947  20108782.700    20108781.614    20108791.878
       241.000         207.000
  14195575.11049  11059270.90045  23807217.237    23807214.874    23807234.395
       210.000         142.000
 -14343672.51749 -11153945.74446  22135824.477    22135823.872    22135838.193
       232.000         186.000
  -2216771.09949  -1710657.12145  24117517.954    24117518.214    24117542.473
       208.000         143.000
 -21389377.91249 -16651239.49847  20777099.081    20777098.352    20777108.649
       240.000         203.000
  11578681.97649   9024072.12145  23463034.163    23463031.988    23463051.173
       213.000         160.000
 -20451451.37149 -15922977.43946  22038241.755    22038240.913    22038254.749
       230.000         180.000
 -18962978.00949 -13623163.33246  21688775.448    21688774.610    21688788.213
       229.000         181.000
 -15253323.95049 -11863725.26846  22093475.124    22093474.092    22093488.061
       230.000         179.000
 -20527973.81549 -15965767.06247  19452316.279    19452315.944    19452323.651
       232.000         203.000
 01 12  3 18 18 29.9970000  0 10G 1G20G 2G28G27G22G 3G31G 8G13
  -7188870.33749  -5595148.86847  20111640.537    20111639.512    20111649.812
       241.000         207.000
  14274809.33549  11121011.02545  23822295.369    23822293.063    23822312.782
       211.000         144.000
 -14451844.00849 -11238235.07746  22115239.943    22115239.371    22115253.680
       234.000         185.000
  -2350921.20049  -1815188.91845  24091989.420    24091989.820    24092013.914
       213.000         139.000
 -21459655.58549 -16706001.31547  20763725.724    20763724.972    20763735.241
       241.000         203.000
  11659969.32949   9087412.51145  23478503.037    23478500.739    23478519.951
       217.000         152.000
 -20488852.96049 -15952121.57746  22031124.432    22031123.649    22031137.494
       230.000         179.000
 -19064251.75849 -13702077.90046  21669503.661    21669502.809    21669516.314
       228.000         180.000
 -15355161.65249 -11943079.21646  22074095.866    22074094.925    22074109.041
       228.000         179.000
 -20575302.63049 -16002646.68047  19443309.860    19443309.576    19443317.321
       231.000         203.000
 01 12  3 18 18 59.9970000  0 10G 1G20G 2G28G27G22G 3G31G 8G13
  -7173452.68049  -5583135.19347  20114574.435    20114573.444    20114583.781
       242.000         206.000
  14353980.87549  11182702.35645  23837361.923    23837359.444    23837379.290
       210.000         141.000
 -14559760.25849 -11322325.52946  22094703.983    22094703.428    22094717.735
       233.000         185.000
  -2484975.36249  -1919645.98645  24066479.060    24066479.694    24066503.619
       208.000         147.000
 -21529818.42049 -16760673.64247  20750374.175    20750373.422    20750383.718
       241.000         203.000
  11741307.14549   9150792.10845  23493981.446    23493979.199    23493998.497
       215.000         154.000
 -20525726.73949 -15980854.44246  22024107.695    22024106.827    22024120.599
       231.000         179.000
 -19165173.46049 -13780718.15246  21650298.862    21650297.987    21650311.420
       229.000         180.000
 -15456896.44349 -12022352.99946  22054736.327    22054735.379    22054749.468
       228.000         177.000
 -20622206.28349 -16039195.00847  19434384.426    19434384.099    19434391.892
       231.000         202.000
 01 12  3 18 19 29.9970000  0 10G 1G20G 2G28G27G22G 3G31G 8G13
  -7157643.18549  -5570816.19547  20117582.957    20117581.957    20117592.296
       242.000         207.000
  14433079.19649  11244336.50745  23852414.582    23852411.896    23852431.966
       211.000         146.000
 -14667427.92249 -11406222.29346  22074215.346    22074214.789    22074229.048
       233.000         185.000
  -2618939.58249  -2024033.02645  24040985.839    24040986.579    24041010.487
       210.000         143.000
 -21599874.30749 -16815262.64347  20737043.034    20737042.241    20737052.494
       241.000         204.000
  11822685.07149   9214203.06945  23509467.631    23509465.289    23509484.612
       211.000         151.000
 -20562079.60349 -16009181.39746  22017190.073    22017189.134    22017202.883
       231.000         180.000
 -19265747.84549 -13859087.77446  21631160.129    21631159.274    21631172.613
       229.000         181.000
 -15558536.19549 -12101552.75946  22035394.891    22035393.923    22035407.816
       228.000         174.000
 -20668691.26949 -16075417.10447  19425538.605    19425538.296    19425546.142
       231.000         202.000
 01 12  3 18 19 59.9970000  0 10G 1G20G 2G28G27G22G 3G31G 8G13
  -7141431.69949  -5558183.95347  20120667.992    20120666.975    20120677.304
       242.000         206.000
  14512112.05849  11305919.67245  23867454.570    23867451.867    23867472.027
       210.000         146.000
 -14774835.72849 -11489916.56346  22053776.147    22053775.598    22053789.857
       233.000         185.000
  -2752802.02749  -2128340.86845  24015512.107    24015512.890    24015536.636
       210.000         142.000
 -21669812.78749 -16869760.16047  20723734.216    20723733.416    20723743.639
       241.000         203.000
  11904111.32249   9277651.59345  23524962.841    23524960.453    23524979.956
       207.000         151.000
 -20597900.55049 -16037093.85946  22010373.604    22010372.659    22010386.411
       230.000         180.000
 -19365961.60549 -13937176.38446  21612090.060    21612089.203    21612102.479
       230.000         182.000
 -15660070.39449 -12180670.23646  22016073.542    22016072.547    22016086.343
       230.000         179.000
 -20714745.72049 -16111303.71647  19416774.736    19416774.450    19416782.314
       231.000         203.000
 01 12  3 18 20 29.9970000  0 10G 1G20G 2G28G27G22G 3G31G 8G13
  -7124804.23049  -5545227.57647  20123832.196    20123831.155    20123841.463
       242.000         206.000
  14591090.86749  11367460.70345  23882484.361    23882481.666    23882501.861
       205.000         136.000
 -14881968.58549 -11573396.59846  22033389.307    22033388.755    22033403.006
       233.000         185.000
  -2886546.76449  -2232556.96144  23990060.675    23990061.676    23990085.053
       199.000         128.000
 -21739619.94949 -16924155.35247  20710450.407    20710449.570    20710459.755
       242.000         204.000
  11985597.51749   9341146.82645  23540469.611    23540467.122    23540486.765
       216.000         147.000
 -20633174.71849 -16064580.25346  22003661.119    22003660.241    22003674.008
       230.000         181.000
 -19465797.69849 -14014970.71746  21593091.933    21593090.989    21593104.256
       230.000         182.000
 -15761485.00049 -12259694.49546  21996774.901    21996773.968    21996787.850
       231.000         185.000
 -20760354.18749 -16146842.81347  19408095.768    19408095.457    19408103.348
       231.000         202.000
 01 12  3 18 20 59.9970000  0 11G 1G20G 2G28G27G10G22G 3G31G 8G13
  -7107764.70049  -5531950.11347  20127074.806    20127073.734    20127084.054
       242.000         206.000
  14670009.41749  11428954.77544  23897502.673    23897499.900    23897520.336
       196.000         121.000
 -14988828.98749 -11656664.31446  22013054.280    22013053.743    22013068.031
       232.000         185.000
  -3020175.45149  -2336682.66645  23964631.811    23964632.550    23964655.725
       215.000         140.000
 -21809299.18849 -16978450.87147  20697190.888    20697190.065    20697200.247
       240.000         203.000
   -175810.16454                  24319085.242
       199.000         110.000
  12067137.85949   9404684.32845  23555986.550    23555984.015    23556003.752
       214.000         153.000
 -20667904.70149 -16091642.61046  21997052.263    21997051.379    21997065.155
       231.000         180.000
 -19565256.27149 -14092470.87646  21574165.528    21574164.627    21574177.887
       231.000         183.000
 -15862783.52749 -12338628.30246  21977498.463    21977497.468    21977511.467
       229.000         182.000
 -20805518.79949 -16182036.04947  19399501.286    19399500.944    19399508.834
       231.000         203.000
 01 12  3 18 21 29.9970000  0 11G 1G20G 2G28G27G10G22G 3G31G 8G13
  -7090299.62249  -5518341.05647  20130398.362    20130397.276    20130407.610
       242.000         205.000
  14748879.07958  11490410.67254  23912511.643                    23912508.622
       183.000         103.000
 -15095402.25349 -11739708.30346  21992773.959    21992773.390    21992787.632
       232.000         186.000
  -3153672.86649  -2440706.18445  23939227.782    23939228.437    23939251.405
       217.000         157.000
 -21878836.75749 -17032636.00347  20683958.282    20683957.486    20683967.700
       241.000         204.000
                                  24298356.126
       206.000
  12148743.79249   9468272.86945  23571516.030    23571513.487    23571533.398
       213.000         152.000
 -20702075.99049 -16118269.61446  21990549.806    21990548.860    21990562.591
       230.000         180.000
 -19664320.50549 -14169663.76246  21555314.137    21555313.278    21555326.511
       230.000         182.000
 -15963952.18049 -12417460.91746  21958246.557    21958245.639    21958259.675
       228.000         176.000
 -20850224.40649 -16216871.62047  19390994.059    19390993.760    19391001.658
       231.000         202.000
 01 12  3 18 21 59.9970000  0 11G 1G20G 2G28G27G10G22G 3G31G 8G13
  -7072432.53249  -5504418.74247  20133798.388    20133797.329    20133807.671
       241.000         205.000
                  11551809.13853  23927506.547
       170.000          88.000
 -15201711.02849 -11822546.18246  21972543.926    21972543.362    21972557.607
       232.000         186.000
  -3287060.90449  -2544644.56545  23913844.372    23913845.136    23913867.594
       213.000         151.000
 -21948256.19949 -17086729.08947  20670748.143    20670747.389    20670757.635
       240.000         203.000
    -84103.58043                  24277694.382
       217.000          76.000
  12230389.65149   9531892.50745  23587053.033    23587050.509    23587070.530
       218.000         153.000
 -20735711.40049 -16144479.03746  21984149.183    21984148.280    21984162.004
       230.000         179.000
 -19763010.88449 -14246565.33546  21536533.936    21536533.117    21536546.263
       232.000         181.000
 -16065014.23949 -12496210.50946  21939014.983    21939014.078    21939028.044
       232.000         177.000
 -20894493.28649 -16251366.88547  19382569.998    19382569.682    19382577.566
       231.000         201.000
 01 12  3 18 22 29.9970000  0 10G 1G 2G28G27G10G22G 3G31G 8G13
  -7054149.84749  -5490172.59347  20137277.473    20137276.461    20137286.819
       242.000         206.000
 -15307740.61149 -11905166.51146  21952367.100    21952366.485    21952380.725
       233.000         187.000
  -3420324.31249  -2648485.69245  23888484.760    23888485.532    23888508.009
       217.000         143.000
 -22017543.85349 -17140719.48947  20657563.109    20657562.362    20657572.622
       240.000         203.000
   -168526.20643                  24257102.924
       209.000          78.000
  12312086.65949   9595552.10245  23602599.956    23602597.388    23602617.467
       208.000         157.000
 -20768796.43349 -16170259.57646  21977853.289    21977852.384    21977866.181
       230.000         180.000
 -19861310.70549 -14323162.57446  21517828.141    21517827.269    21517840.349
       231.000         182.000
 -16165956.19049 -12574866.49646  21919806.331    21919805.432    21919819.344
       233.000         184.000
 -20938310.25049 -16285510.00347  19374231.948    19374231.599    19374239.477
       230.000         201.000
 01 12  3 18 22 59.9970000  0 10G 1G 2G28G27G10G22G 3G31G 8G13
  -7035423.21849  -5475580.51247  20140841.058    20140840.075    20140850.452
       241.000         205.000
 -15413461.20449 -11987546.06147  21932249.014    21932248.402    21932262.642
       235.000         188.000
  -3553432.27349  -2752205.88745  23863155.026    23863155.543    23863177.758
       218.000         145.000
 -22086670.98649 -17194584.81847  20644408.645    20644407.906    20644418.135
       240.000         203.000
   -252636.90944                  24236587.715
       206.000          95.000
  12393861.41449   9659272.12745  23618161.373    23618158.888    23618179.203
       210.000         153.000
 -20801301.72649 -16195588.37846  21971667.780    21971666.866    21971680.723
       230.000         181.000
 -19959188.39349 -14399430.87746  21499202.616    21499201.744    21499214.760
       230.000         181.000
 -16266749.35449 -12653406.52146  21900625.948    21900625.067    21900639.059
       228.000         181.000
 -20981645.38149 -16319277.66447  19365985.486    19365985.207    19365993.101
       229.000         200.000
 01 12  3 18 23 29.9970000  0 10G 1G 2G28G27G10G22G 3G31G 8G13
  -7016262.77549  -5460650.40247  20144487.211    20144486.251    20144496.645
       241.000         205.000
 -15518881.59049 -12069691.68947  21912188.040    21912187.442    21912201.640
       234.000         188.000
  -3686393.43349  -2855811.64045  23837853.002    23837853.474    23837875.495
       212.000         142.000
 -22155647.35449 -17248332.67547  20631282.950    20631282.166    20631292.335
       241.000         203.000
    -77567.57144                  24216146.913
       210.000         114.000
  12475701.57549   9723043.25845  23633735.478    23633732.995    23633753.330
       214.000         152.000
 -20833236.39149 -16220472.54646  21965590.703    21965589.924    21965603.837
       229.000         181.000
 -20056650.64649 -14475375.46146  21480656.103    21480655.253    21480668.256
       229.000         181.000
 -16367403.37249 -12731838.12046  21881471.935    21881471.119    21881485.235
       230.000         180.000
 -21024506.99849 -16352676.35847  19357829.243    19357828.934    19357836.785
       231.000         200.000
 01 12  3 18 23 59.9960000  0 10G 1G 2G28G27G10G22G 3G31G 8G13
  -6996682.19849  -5445392.90747  20148213.390    20148212.388    20148222.770
       242.000         205.000
 -15624010.17749 -12151609.94947  21892182.689    21892182.041    21892196.159
       233.000         189.000
  -3819213.97749  -2959307.92645  23812577.771    23812578.239    23812600.090
       214.000         152.000
 -22224483.43349 -17301971.21747  20618183.909    20618183.107    20618193.250
       241.000         203.000
   -160967.54945                  24195779.934
       218.000         142.000
  12557589.82149   9786851.80645  23649318.488    23649316.157    23649336.623
       211.000         157.000
 -20864611.53749 -16244920.72846  21959620.147    21959619.425    21959633.410
       228.000         180.000
 -20153704.08849 -14551001.47946  21462187.388    21462186.546    21462199.569
       229.000         182.000
 -16467927.62749 -12810168.65546  21862342.866    21862341.973    21862356.066
       233.000         181.000
 -21066905.20649 -16385713.95147  19349761.189    19349760.845    19349768.688
       230.000         200.000
 01 12  3 18 24 29.9960000  0 10G 1G 2G28G27G10G22G 3G31G 8G13
  -6976690.78149  -5429815.27947  20152017.683    20152016.685    20152027.076
       242.000         205.000
 -15728863.49449 -12233313.71047  21872229.680    21872229.010    21872243.117
       233.000         190.000
  -3951911.60649  -3062708.31145  23787325.817    23787326.300    23787348.148
       210.000         145.000
 -22293194.06649 -17355512.01547  20605108.767    20605107.930    20605118.029
       241.000         203.000
  -1012351.33549   -244078.77244  24175483.489    24175485.000    24175500.317
       208.000         116.000
  12639518.63549   9850691.90945  23664909.540    23664907.072    23664927.762
       214.000         153.000
 -20895438.72849 -16268941.93346  21953753.858    21953753.182    21953767.275
       229.000         181.000
 -20250362.41749 -14626319.62046  21443793.791    21443793.013    21443806.077
       230.000         183.000
 -16568339.02149 -12888411.25046  21843235.269    21843234.311    21843248.293
       230.000         181.000
 -21108851.83949 -16418399.67447  19341779.012    19341778.695    19341786.544
       230.000         201.000
 01 12  3 18 24 59.9960000  0 10G 1G 2G28G27G10G22G 3G31G 8G13
  -6956296.39149  -5413923.64647  20155898.663    20155897.670    20155908.094
       241.000         205.000
 -15833444.24649 -12314805.06947  21852328.525    21852327.846    21852341.979
       236.000         191.000
  -4084487.24649  -3166013.87645  23762097.176    23762097.547    23762118.946
       215.000         146.000
 -22361783.89549 -17408958.67547  20592056.573    20592055.762    20592065.819
       241.000         204.000
  -1118640.60049   -326901.73044  24155257.272    24155255.094    24155272.371
       200.000         115.000
  12721476.36049   9914554.68845  23680505.958    23680503.386    23680524.090
       205.000         144.000
 -20925723.55849 -16292540.52246  21947990.804    21947990.201    21948004.371
       230.000         183.000
 -20346626.24249 -14701330.34546  21425475.211    21425474.543    21425487.668
       230.000         184.000
 -16668641.34649 -12966568.84046  21824148.306    21824147.360    21824161.374
       230.000         182.000
 -21150351.32949 -16450736.96847  19333881.943    19333881.624    19333889.465
       230.000         200.000
 01 12  3 18 25 29.9960000  0 10G 1G 2G28G27G10G22G 3G31G 8G13
  -6935484.68149  -5397706.82847  20159859.082    20159858.065    20159868.526
       241.000         205.000
 -15937736.71149 -12396071.80047  21832482.300    21832481.573    21832495.715
       235.000         191.000
  -4216924.91349  -3269211.64645  23736894.953    23736895.183    23736916.718
       204.000         154.000
 -22430238.23749 -17462299.75447  20579030.205    20579029.367    20579039.399
       241.000         204.000
  -1224543.02059   -409423.01155  24135104.831    24135104.100    24135123.411
       217.000         147.000
  12803475.04849   9978449.31445  23696110.252    23696107.579    23696128.381
       212.000         153.000
 -20955450.79449 -16315704.63646  21942333.957    21942333.333    21942347.544
       229.000         182.000
 -20442478.04849 -14776020.01046  21407235.223    21407234.524    21407247.652
       231.000         184.000
 -16768819.81549 -13044629.91246  21805084.960    21805083.986    21805097.973
       232.000         183.000
 -21191387.66749 -16482713.35947  19326073.022    19326072.695    19326080.527
       229.000         200.000
 01 12  3 18 25 59.9960000  0 10G 1G 2G28G27G10G22G 3G31G 8G13
  -6914268.40349  -5381174.77147  20163896.493    20163895.451    20163905.931
       242.000         204.000
 -16041752.54949 -12477122.98347  21812688.689    21812687.949    21812702.047
       235.000         191.000
  -4349235.40749  -3372310.37945  23711716.562    23711716.961    23711738.546
       213.000         152.000
 -22498569.63149 -17515545.02647  20566027.205    20566026.357    20566036.402
       241.000         204.000
  -1330069.05049   -491651.11845  24115024.051    24115023.218    24115043.289
       216.000         153.000
  12885500.13949  10042364.49445  23711719.539    23711716.784    23711737.783
       212.000         156.000
 -20984632.51649 -16338443.67346  21936780.941    21936780.249    21936794.477
       229.000         181.000
 -20537927.61149 -14850396.23746  21389071.758    21389071.057    21389084.158
       231.000         184.000
 -16868887.10749 -13122604.36646  21786042.698    21786041.768    21786055.730
       233.000         182.000
 -21231972.15749 -16514337.67147  19318349.995    19318349.732    19318357.591
       230.000         199.000
 01 12  3 18 26 29.9960000  0 10G 1G 2G28G27G10G22G 3G31G 8G13
  -6892636.72949  -5364319.02047  20168012.918    20168011.881    20168022.374
       242.000         204.000
 -16145479.63649 -12557949.16747  21792950.043    21792949.282    21792963.282
       236.000         191.000
  -4481405.42049  -3475299.80645  23686565.261    23686565.602    23686586.810
       213.000         139.000
 -22566766.82549 -17568685.73047  20553049.698    20553048.854    20553058.963
       241.000         204.000
  -1435205.14549   -573575.42245  24095017.441    24095016.557    24095036.776
       207.000         135.000
  12967560.75549  10106307.26245  23727335.319    23727332.666    23727353.867
       213.000         147.000
 -21013256.90149 -16360748.43446  21931333.845    21931333.221    21931347.432
       229.000         182.000
 -20632960.80049 -14924448.00446  21370987.533    21370986.801    21370999.887
       231.000         184.000
 -16968831.60849 -13200483.14446  21767023.881    21767022.925    21767036.850
       233.000         182.000
 -21272092.27049 -16545600.12247  19310715.408    19310715.127    19310722.993
       228.000         199.000
 01 12  3 18 26 59.9960000  0 10G 1G 2G28G27G10G22G 3G31G 8G13
  -6870597.95949  -5347146.06247  20172206.840    20172205.805    20172216.288
       241.000         204.000
 -16248925.08649 -12638555.89747  21773264.975    21773264.200    21773278.108
       236.000         191.000
  -4613441.48449  -3578184.72845  23661439.336    23661439.602    23661460.860
       211.000         155.000
 -22634837.52449 -17621727.85847  20540096.231    20540095.434    20540105.610
       240.000         204.000
                   -655200.48444  24075083.729
       213.000         107.000
  13049646.66249  10170270.04745  23742955.978    23742953.474    23742974.452
       214.000         151.000
 -21041331.19349 -16382624.57646  21925991.514    21925990.881    21926005.097
       229.000         181.000
 -20727582.14349 -14998178.86146  21352981.707    21352980.946    21352993.967
       231.000         184.000
 -17068661.39249 -13278272.53446  21748026.886    21748025.914    21748039.792
       233.000         180.000
 -21311754.67249 -16576505.91947  19303167.894    19303167.612    19303175.484
       229.000         199.000
 01 12  3 18 27 29.9960000  0 10G 1G 2G28G27G10G22G 3G31G 8G13
  -6848139.00549  -5329645.69547  20176480.711    20176479.675    20176490.188
       242.000         205.000
 -16352074.33249 -12718931.82147  21753636.250    21753635.482    21753649.310
       236.000         191.000
  -4745328.60249  -3680953.62945  23636341.755    23636341.937    23636363.274
       210.000         153.000
 -22702768.14949 -17674660.83247  20527169.537    20527168.680    20527178.888
       241.000         204.000
  -1644309.11749   -736514.04345  24055226.173    24055225.267    24055244.333
       212.000         138.000
  13131769.32649  10234261.23545  23758583.698    23758581.263    23758602.477
       199.000         151.000
 -21068841.58549 -16404061.32446  21920756.503    21920755.870    21920770.021
       230.000         180.000
 -20821775.32249 -15071576.07246  21335057.303    21335056.536    21335069.536
       231.000         184.000
 -17168362.70149 -13355961.80046  21729054.176    21729053.281    21729067.219
       234.000         182.000
 -21350944.64449 -16607043.58747  19295710.322    19295710.021    19295717.919
       229.000         199.000
 01 12  3 18 27 59.9960000  0 10G 1G 2G28G27G10G22G 3G31G 8G13
  -6825259.82449  -5311817.87347  20180834.605    20180833.523    20180844.053
       241.000         204.000
 -16454926.06349 -12799075.91547  21734064.134    21734063.369    21734077.137
       236.000         191.000
  -4877064.40049  -3783604.65445  23611273.174    23611273.234    23611294.487
       212.000         153.000
 -22770558.13449 -17727484.21747  20514269.542    20514268.696    20514278.910
       241.000         204.000
  -1748258.29649   -817513.37145  24035445.397    24035444.426    24035463.782
       214.000         155.000
  13213926.93849  10298279.49145  23774218.260    23774215.693    23774237.113
       219.000         154.000
 -21095786.92449 -16425057.77046  21915629.054    21915628.387    21915642.443
       230.000         180.000
 -20915536.92949 -15144636.98146  21317215.034    21317214.216    21317227.234
       230.000         184.000
 -17267935.17949 -13433550.66846  21710106.198    21710105.273    21710119.167
       235.000         186.000
 -21389660.43049 -16637211.75947  19288343.009    19288342.673    19288350.580
       229.000         199.000
 01 12  3 18 28 29.9960000  0 10G 1G 2G28G27G10G22G 3G31G 8G13
  -6801985.99049  -5293682.52547  20185263.596    20185262.489    20185273.024
       242.000         205.000
 -16557504.73249 -12879007.24847  21714544.014    21714543.237    21714556.930
       235.000         193.000
  -5008672.64849  -3886156.30045  23586228.438    23586228.732    23586249.918
       208.000         149.000
 -22838232.59649 -17780217.58647  20501391.522    20501390.696    20501400.911
       240.000         204.000
  -1851827.88349   -898216.95845  24015736.668    24015735.742    24015755.379
       212.000         140.000
  13296092.25749  10362304.14845  23789854.148    23789851.642    23789872.867
       212.000         135.000
 -21122192.17449 -16445633.39246  21910604.411    21910603.705    21910617.637
       229.000         181.000
 -21008889.39049 -15217379.07146  21299450.618    21299449.750    21299462.803
       232.000         185.000
 -17367403.91949 -13511058.70446  21691177.980    21691177.015    21691190.813
       232.000         185.000
 -21427926.09749 -16667029.19247  19281061.332    19281060.987    19281068.897
       229.000         200.000
 01 12  3 18 28 59.9960000  0 10G 1G 2G28G27G10G22G 3G31G 8G13
  -6778308.10449  -5275232.33847  20189769.467    20189768.330    20189778.900
       241.000         205.000
 -16659799.69249 -12958717.50747  21695077.809    21695077.057    21695090.767
       235.000         192.000
  -5140141.75249  -3988599.48745  23561210.597    23561210.730    23561231.960
       224.000         156.000
 -22905781.72549 -17832853.28947  20488537.404    20488536.557    20488546.817
       241.000         204.000
  -1955005.84049   -978615.55645  23996102.703    23996101.659    23996121.343
       208.000         137.000
  13378272.77449  10426340.45945  23805493.111    23805490.494    23805511.749
       213.000         148.000
 -21148047.13349 -16465780.21246  21905684.435    21905683.712    21905697.603
       230.000         180.000
 -21101819.85749 -15289792.32446  21281766.510    21281765.634    21281778.692
       231.000         186.000
 -17466759.00649 -13588478.17146  21672271.222    21672270.298    21672284.051
       231.000         180.000
 -21465730.53849 -16696487.22747  19273867.394    19273867.086    19273874.978
       229.000         200.000
 01 12  3 18 29 29.9960000  0 10G 1G 2G28G27G10G22G 3G31G 8G13
  -6754235.89849  -5256474.89147  20194350.353    20194349.199    20194359.822
       241.000         205.000
 -16761819.33349 -13038213.23647  21675663.999    21675663.263    21675676.967
       236.000         193.000
  -5271479.48749  -4090940.33045  23536217.936    23536217.894    23536238.993
       218.000         158.000
 -22973214.72349 -17885398.50147  20475705.424    20475704.533    20475714.767
       241.000         204.000
  -2057799.39349  -1058714.50845  23976541.635    23976540.680    23976560.267
       213.000         140.000
  13460457.29349  10490379.85545  23821132.430    23821130.014    23821151.236
       211.000         148.000
 -21173360.65149 -16485505.13346  21900867.468    21900866.739    21900880.595
       230.000         180.000
 -21194334.96049 -15361881.91046  21264161.436    21264160.564    21264173.609
       231.000         184.000
 -17566009.70649 -13665816.30746  21653384.366    21653383.474    21653397.065
       231.000         183.000
 -21503082.07449 -16725592.35247  19266759.737    19266759.371    19266767.239
       230.000         200.000
 01 12  3 18 29 59.9960000  0 10G 1G 2G28G27G10G22G 3G31G 8G13
  -6729787.40049  -5237424.22647  20199002.823    20199001.687    20199012.324
       241.000         204.000
 -16863580.54449 -13117507.58947  21656299.340    21656298.655    21656312.371
       237.000         194.000
  -5402702.10049  -4193191.51145  23511246.755    23511246.776    23511267.914
       216.000         147.000
 -23040549.02849 -17937866.81047  20462892.133    20462891.264    20462901.521
       240.000         203.000
  -2160223.70249  -1138525.65845  23957051.016    23957049.910    23957069.850
       214.000         143.000
  13542625.69149  10554406.67745  23836769.058    23836766.557    23836788.009
       214.000         157.000
 -21198150.00949 -16504821.61446  21896150.212    21896149.521    21896163.341
       230.000         180.000
 -21286449.34749 -15433659.26246  21246632.610    21246631.724    21246644.759
       231.000         184.000
 -17665173.48549 -13743086.70146  21634514.068    21634513.200    21634526.811
       234.000         187.000
 -21539997.03049 -16754357.28847  19259735.095    19259734.746    19259742.568
       230.000         200.000
 01 12  3 18 30 29.9960000  0 10G 1G 2G28G27G10G22G 3G31G 8G13
  -6704955.60949  -5218074.89247  20203728.260    20203727.099    20203737.749
       241.000         204.000
 -16965075.03549 -13196594.12647  21636985.483    21636984.818    21636998.495
       237.000         194.000
  -5533800.20249  -4295345.66445  23486299.627    23486299.454    23486320.560
       217.000         160.000
 -23107777.03449 -17990252.28447  20450099.058    20450098.211    20450108.466
       241.000         203.000
  -2262269.16449  -1218041.70145  23937632.400    23937631.314    23937651.440
       209.000         146.000
  13624783.78449  10618425.50845  23852403.491    23852401.039    23852422.480
       211.000         134.000
 -21222407.32949 -16523723.53546  21891534.299    21891533.571    21891547.361
       231.000         181.000
 -21378152.60849 -15505116.24946  21229181.944    21229181.107    21229194.123
       231.000         184.000
 -17764243.00449 -13820283.60146  21615661.583    21615660.757    21615674.544
       230.000         183.000
 -21576466.81649 -16782775.34547  19252795.179    19252794.832    19252802.614
       230.000         199.000
 01 12  3 18 30 59.9960000  0 10G 1G 2G28G27G10G22G 3G31G 8G13
  -6679729.40449  -5198418.22647  20208528.637    20208527.568    20208538.235
       240.000         203.000
 -17066290.33349 -13275463.12447  21617724.747    21617724.107    21617737.735
       238.000         194.000
  -5664760.85549  -4397392.73545  23461378.623    23461378.331    23461399.435
       213.000         159.000
 -23174887.17949 -18042545.92147  20437328.458    20437327.569    20437337.810
       240.000         203.000
  -2363922.37549  -1297251.99645  23918288.405    23918287.307    23918307.649
       210.000         149.000
  13706940.78449  10682443.53245  23868037.566    23868035.277    23868056.872
       205.000         144.000
 -21246120.60149 -16542201.52346  21887021.925    21887021.170    21887034.933
       230.000         180.000
 -21469430.36749 -15576241.68246  21211812.292    21211811.449    21211824.449
       231.000         184.000
 -17863206.47549 -13897397.93446  21596829.337    21596828.545    21596842.282
       235.000         182.000
 -21612478.58349 -16810836.50347  19245942.456    19245942.067    19245949.818
       230.000         199.000
 01 12  3 18 31 29.9960000  0 10G 1G 2G28G27G10G22G 3G31G 8G13
  -6654109.79549  -5178455.01547  20213403.853    20213402.889    20213413.581
       240.000         203.000
 -17167226.27449 -13354114.43747  21598517.234    21598516.574    21598530.146
       239.000         194.000
  -5795583.00449  -4499331.85145  23436483.791    23436483.558    23436504.547
       222.000         157.000
 -23241879.81549 -18094747.99647  20424580.076    20424579.284    20424589.538
       240.000         202.000
  -2465181.39849  -1376155.07745  23899019.591    23899018.336    23899038.908
       215.000         150.000
  13789094.06849  10746458.55245  23883671.175    23883668.804    23883690.656
       220.000         156.000
 -21269290.24949 -16560255.90546  21882613.054    21882612.200    21882625.925
       230.000         179.000
 -21560280.09149 -15647033.58846  21194524.137    21194523.253    21194536.213
       231.000         184.000
 -17962064.49949 -13974430.10046  21578017.306    21578016.472    21578030.052
       233.000         185.000
 -21648032.05049 -16838540.54647  19239176.903    19239176.480    19239184.220
       229.000         198.000
 01 12  3 18 31 59.9960000  0 10G 1G 2G28G27G10G22G 3G31G 8G13
  -6628099.57049  -5158187.42647  20218353.527    20218352.564    20218363.261
       241.000         203.000
 -17267884.35249 -13432549.24647  21579362.702    21579361.928    21579375.416
       239.000         194.000
  -5926267.07449  -4601163.44845  23411615.570    23411615.086    23411635.906
       216.000         161.000
 -23308757.38849 -18146860.40747  20411853.603    20411852.873    20411863.145
       240.000         202.000
  -2566046.41449  -1454751.29145  23879825.781    23879824.480    23879844.989
       218.000         149.000
  13871239.22249  10810467.32345  23899303.286    23899301.018    23899322.740
       200.000         139.000
 -21291918.37549 -16577888.31746  21878307.118    21878306.285    21878320.028
       230.000         180.000
 -21650701.27749 -15717491.55546  21177317.495    21177316.620    21177329.555
       232.000         185.000
 -18060819.46149 -14051381.92046  21559224.718    21559223.935    21559237.607
       231.000         185.000
 -21683128.34949 -16865888.34747  19232498.255    19232497.902    19232505.627
       229.000         199.000
 01 12  3 18 32 29.9960000  0 10G 1G 2G28G27G10G22G 3G31G 8G13
  -6601694.07149  -5137611.83147  20223378.462    20223377.447    20223388.164
       240.000         204.000
 -17368258.64349 -13510762.91847  21560262.076    21560261.299    21560274.715
       240.000         195.000
  -6056806.57449  -4702882.25045  23386774.393    23386773.988    23386794.906
       219.000         156.000
 -23375514.40549 -18198878.87247  20399150.190    20399149.427    20399159.681
       240.000         202.000
  -2666510.25849  -1533034.84845  23860708.392    23860706.913    23860727.362
       215.000         138.000
  13953379.60949  10874472.35745  23914934.423    23914931.953    23914953.945
       207.000         143.000
 -21313999.51949 -16595094.49546  21874105.374    21874104.447    21874118.236
       230.000         178.000
 -21740686.17149 -15787609.56346  21160193.843    21160193.009    21160205.915
       231.000         186.000
 -18159465.78849 -14128249.11646  21540452.886    21540452.089    21540465.731
       234.000         185.000
 -21717761.12849 -16892874.97047  19225907.880    19225907.540    19225915.232
       230.000         199.000
 01 12  3 18 32 59.9960000  0 10G 1G 2G28G27G10G22G 3G31G 8G13
  -6574902.01849  -5116735.02647  20228476.924    20228475.883    20228486.630
       240.000         203.000
 -17468356.82749 -13588761.43447  21541213.977    21541213.183    21541226.562
       239.000         194.000
  -6187208.06649  -4804493.57245  23361959.549    23361959.227    23361980.082
       217.000         155.000
 -23442158.97649 -18250809.71847  20386468.222    20386467.430    20386477.635
       241.000         203.000
  -2766579.47349  -1611010.84045  23841665.792    23841664.403    23841684.910
       196.000         138.000
  14035504.50049  10938465.30045  23930562.782    23930560.298    23930582.419
       215.000         157.000
 -21335541.51449 -16611880.55746  21870006.133    21870005.182    21870019.020
       229.000         178.000
 -21830240.44149 -15857392.01846  21143152.104    21143151.310    21143164.238
       232.000         186.000
 -18258011.77749 -14205038.15246  21521700.249    21521699.390    21521712.925
       234.000         184.000
 -21751937.61849 -16919506.04047  19219404.404    19219404.016    19219411.682
       231.000         199.000
 01 12  3 18 33 29.9960000  0 10G 1G 2G28G27G10G22G 3G31G 8G13
  -6547722.43349  -5095556.25447  20233649.155    20233648.057    20233658.845
       240.000         203.000
 -17568176.45449 -13666542.89747  21522218.875    21522218.074    21522231.438
       238.000         194.000
  -6317468.48449  -4905994.87446  23337171.682    23337171.321    23337192.238
       221.000         165.000
 -23508689.28449 -18302651.52347  20373808.020    20373807.176    20373817.351
       241.000         203.000
  -2866250.08449  -1688676.07245  23822699.010    23822697.652    23822718.488
       214.000         158.000
  14117613.71549  11002446.07545  23946188.252    23946185.566    23946207.832
       207.000         150.000
 -21356542.76149 -16628245.25746  21866009.815    21866008.827    21866022.712
       230.000         179.000
 -21919359.55949 -15926835.38946  21126193.224    21126192.425    21126205.370
       233.000         186.000
 -18356455.83949 -14281747.74246  21502966.815    21502966.009    21502979.577
       234.000         185.000
 -21785655.09349 -16945779.44147  19212988.293    19212987.858    19212995.450
       230.000         198.000
 01 12  3 18 33 59.9960000  0  9G 1G 2G28G27G10G 3G31G 8G13
  -6520138.02549  -5074062.03047  20238898.410    20238897.294    20238908.093
       240.000         203.000
 -17667698.80049 -13744092.70247  21503280.310    21503279.505    21503292.914
       237.000         195.000
  -6447568.44449  -5007371.17545  23312414.315    23312413.958    23312434.758
       217.000         155.000
 -23575087.37949 -18354390.30547  20361172.946    20361172.074    20361182.242
       241.000         203.000
  -2965501.83549  -1766015.05445  23803812.180    23803810.789    23803831.655
       220.000         160.000
 -21376985.05549 -16644174.40246  21862119.771    21862118.818    21862132.752
       229.000         177.000
 -22008022.85349 -15995923.58247  21109321.117    21109320.299    21109333.233
       233.000         188.000
 -18454779.89949 -14358363.83746  21484256.397    21484255.524    21484269.064
       235.000         186.000
 -21818894.47349 -16971680.30247  19206663.094    19206662.644    19206670.224
       230.000         199.000
 01 12  3 18 34 29.9960000  0  9G 1G 2G28G27G10G 3G31G 8G13
  -6492158.69249  -5052260.07547  20244222.808    20244221.673    20244232.502
       240.000         202.000
 -17766932.58449 -13821417.64847  21484396.656    21484395.883    21484409.310
       238.000         195.000
  -6577515.55949  -5108628.33045  23287685.977    23287685.611    23287706.263
       220.000         161.000
 -23641362.46649 -18406033.23347  20348561.263    20348560.377    20348570.539
       242.000         204.000
  -3064342.35249  -1843033.62745  23785003.695    23785002.222    23785022.941
       220.000         143.000
 -21396877.77949 -16659675.29446  21858334.348    21858333.417    21858347.376
       230.000         179.000
 -22096237.00049 -16064661.80847  21092534.532    21092533.684    21092546.568
       234.000         188.000
 -18552993.37549 -14434893.78646  21465566.977    21465566.065    21465579.570
       234.000         185.000
 -21851664.31349 -16997215.28347  19200427.226    19200426.781    19200434.335
       230.000         199.000
 01 12  3 18 34 59.9960000  0  9G 1G 2G28G27G10G 3G31G 8G13
  -6463756.81849  -5030128.87147  20249627.574    20249626.443    20249637.303
       239.000         201.000
 -17865848.82149 -13898495.15647  21465573.488    21465572.694    21465586.105
       239.000         196.000
  -6707279.94149  -5209743.00745  23262992.429    23262992.076    23263012.653
       216.000         160.000
 -23707486.25749 -18457558.26847  20335978.353    20335977.449    20335987.602
       241.000         204.000
  -3162741.29349  -1919708.16544  23766278.982    23766277.549    23766297.988
       200.000         117.000
 -21416192.74949 -16674725.99046  21854658.926    21854657.994    21854671.984
       230.000         180.000
 -22183970.73449 -16133025.68247  21075839.319    21075838.455    21075851.296
       233.000         188.000
 -18651067.70949 -14511315.29546  21446903.961    21446903.073    21446916.590
       233.000         186.000
 -21883935.30249 -17022361.55247  19194286.341    19194285.867    19194293.417
       231.000         200.000
 01 12  3 18 35 29.9960000  0  9G 1G 2G28G27G10G 3G31G 8G13
  -6434946.78649  -5007679.62047  20255109.949    20255108.879    20255119.778
       239.000         201.000
 -17964460.60449 -13975335.41747  21446808.178    21446807.420    21446820.873
       239.000         196.000
  -6836873.84049  -5310724.83045  23238331.258    23238330.997    23238351.525
       217.000         153.000
 -23773472.36849 -18508976.02447  20323421.596    20323420.723    20323430.862
       241.000         203.000
  -3260710.44449  -1996047.67045  23747635.764    23747634.397    23747655.131
       212.000         151.000
 -21434943.47349 -16689337.02146  21851090.819    21851089.936    21851103.919
       229.000         179.000
 -22271235.23149 -16201023.91347  21059233.319    21059232.516    21059245.315
       233.000         189.000
 -18749016.75649 -14587639.18646  21428264.811    21428263.942    21428277.451
       233.000         185.000
 -21915719.99249 -17047128.88047  19188237.983    19188237.508    19188245.042
       230.000         200.000
 01 12  3 18 35 59.9960000  0  9G 1G 2G28G27G10G 3G31G 8G13
  -6405742.09949  -4984922.85547  20260667.504    20260666.411    20260677.358
       239.000         201.000
 -18062780.15349 -14051947.94747  21428098.467    21428097.739    21428111.237
       239.000         196.000
  -6966308.75849  -5411582.81245  23213700.270    23213700.029    23213720.431
       215.000         156.000
 -23839333.46249 -18560296.35847  20310888.644    20310887.787    20310897.930
       241.000         203.000
  -3358260.59349  -2072060.73045  23729072.614    23729071.323    23729092.110
       221.000         162.000
 -21453142.78049 -16703518.36346  21847627.717    21847626.761    21847640.763
       228.000         178.000
 -22358040.77049 -16268664.52647  21042714.701    21042713.917    21042726.684
       233.000         189.000
 -18846853.49349 -14663875.61146  21409647.019    21409646.166    21409659.601
       233.000         185.000
 -21947030.60349 -17071526.79647  19182279.834    19182279.360    19182286.853
       231.000         200.000
 01 12  3 18 36 29.9960000  0  9G 1G 2G28G27G10G 3G31G 8G13
  -6376150.72549  -4961864.76647  20266298.627    20266297.535    20266308.504
       239.000         200.000
 -18160814.33149 -14128338.10947  21409443.120    21409442.374    21409455.901
       239.000         196.000
  -7095590.58449  -5512321.38345  23189098.394    23189098.237    23189118.650
       217.000         156.000
 -23905076.70149 -18611524.85647  20298378.123    20298377.283    20298387.400
       241.000         203.000
  -3455397.28149  -2147751.62445  23710588.083    23710586.795    23710607.678
       209.000         154.000
 -21470797.90149 -16717275.67346  21844268.122    21844267.135    21844281.141
       228.000         177.000
 -22444392.00249 -16335951.13147  21026282.557    21026281.799    21026294.513
       234.000         190.000
 -18944584.84149 -14740029.86146  21391049.266    21391048.438    21391061.884
       230.000         186.000
 -21977873.69149 -17095560.40847  19176410.649    19176410.165    19176417.616
       232.000         200.000
 01 12  3 18 36 59.9960000  0  9G 1G 2G28G27G10G 3G31G 8G13
  -6346144.03349  -4938483.05547  20272008.754    20272007.677    20272018.688
       239.000         200.000
 -18258533.23749 -14204482.61047  21390847.835    21390847.028    21390860.543
       239.000         197.000
  -7224688.55049  -5612916.71145  23164531.509    23164531.441    23164551.741
       216.000         155.000
 -23970672.60249 -18662638.53747  20285895.567    20285894.767    20285904.918
       240.000         203.000
  -3552089.07249  -2223095.73045  23692187.966    23692186.857    23692207.797
       203.000         134.000
 -21487879.46349 -16730586.03746  21841017.681    21841016.698    21841030.691
       230.000         179.000
 -22530256.96449 -16402858.83847  21009942.995    21009942.215    21009954.885
       235.000         191.000
 -19042181.60149 -14816079.27346  21372477.228    21372476.344    21372489.787
       235.000         187.000
 -22008218.61049 -17119205.83447  19170636.270    19170635.769    19170643.181
       230.000         200.000
 01 12  3 18 37 29.9960000  0  9G 1G 2G28G27G10G 3G31G 8G13
  -6315746.75449  -4914796.98947  20277793.220    20277792.162    20277803.206
       239.000         201.000
 -18355960.30249 -14280399.69547  21372308.079    21372307.226    21372320.701
       240.000         196.000
  -7353625.13749  -5713386.25045  23139995.351    23139995.287    23140015.561
       219.000         154.000
 -24036145.13049 -18713656.08347  20273436.487    20273435.718    20273445.907
       240.000         203.000
  -3648358.04649  -2298110.46844  23673868.465    23673867.372    23673888.253
       215.000         131.000
 -21504411.72649 -16743468.38446  21837871.789    21837870.799    21837884.775
       230.000         180.000
 -22615657.24849 -16469404.46447  20993691.816    20993691.030    20993703.670
       234.000         190.000
 -19139667.77049 -14892042.52246  21353926.103    21353925.299    21353938.668
       234.000         184.000
 -22038088.52749 -17142481.12547  19164952.277    19164951.778    19164959.150
       231.000         200.000
